[[{"header":{"parameterUnit":"m.s-1","parameterCategory":1,"la1":30.6,"la2":29.2853,"lo1":-89.7004,"lo2":-87.6739,"dy":0.0162,"dx":0.0183,"nx":112,"ny":82,"refTime":"2024-04-04T12:00:00:Z","depth":0,"parameterNumber":2,"parameterNumberName":"U-component_of_WINDS"},"data":[0.0,0.0,0.0,0.0,0.0,0.0,0.0,0.0,0.0,0.0,0.0,0.0,0.0,0.0,0.0,0.0,0.0,0.0,0.0,0.0,0.0,0.0,0.0,0.0,0.0,0.0,0.0,0.0,0.0,0.0,0.0,0.0,0.0,0.0,0.0,0.0,0.0,0.0,0.0,0.0,0.0,0.0,0.0,0.0,0.0,0.0,0.0,0.0,0.0,0.0,0.0,0.0,0.0,0.0,0.0,0.0,0.0,0.0,0.0,0.0,0.0,0.0,0.0,0.0,0.0,0.0,0.0,0.0,0.0,0.0,0.0,0.0,0.0,0.0,0.0,0.0,0.0,0.0,0.0,0.0,0.0,0.0,0.0,0.0,0.0,0.0,0.0,0.0,0.0,0.0,0.9562,1.1555,1.5337,1.7676,1.7728,1.9071,1.8608,1.5703,0.0,0.0,0.0,0.0,0.0,0.0,0.0,0.0,0.0,0.0,0.0,0.0,0.0,0.0,0.0,0.0,0.0,0.0,0.0,0.0,0.0,0.0,0.0,0.0,0.0,0.0,0.0,0.0,0.0,0.0,0.0,0.0,0.0,0.0,0.0,0.0,0.0,0.0,0.0,0.0,0.0,0.0,0.0,0.0,0.0,0.0,0.0,0.0,0.0,0.0,0.0,0.0,0.0,0.0,0.0,0.0,0.0,0.0,0.0,0.0,0.0,0.0,0.0,0.0,0.0,0.0,0.0,0.0,0.0,0.0,0.0,0.0,0.0,0.0,0.0,0.0,0.0,0.0,0.0,0.0,0.0,0.0,0.0,0.0,0.0,0.0,0.0,0.0,0.0,0.0,0.0,0.0,0.0,0.0,0.0,0.0,0.0,0.0,0.0,0.0,0.0,0.0,0.0,0.0,0.9813,1.2542,1.415,1.5756,1.7674,1.7079,1.6477,1.6035,0.0,0.0,0.0,0.0,0.0,0.0,0.0,0.0,0.0,0.0,0.0,0.0,0.0,0.0,0.0,0.0,0.0,0.0,0.0,0.0,0.0,0.0,0.0,0.0,0.0,0.0,0.0,0.0,0.0,0.0,0.0,0.0,0.0,0.0,0.0,0.0,0.0,0.0,0.0,0.0,0.0,0.0,0.0,0.0,0.0,0.0,0.0,0.0,0.0,0.0,0.0,0.0,0.0,0.0,0.0,0.0,0.0,0.0,0.0,0.0,0.0,0.0,0.0,0.0,0.0,0.0,0.0,0.0,0.0,0.0,0.0,0.0,0.0,0.0,0.0,0.0,0.0,0.0,0.0,0.0,0.0,0.0,0.0,0.0,0.0,0.0,0.0,0.0,0.0,0.0,0.0,0.0,0.0,0.0,0.0,0.0,0.0,0.0,0.0,0.0,0.0,0.0,0.0,0.9579,1.0431,1.2272,1.377,1.5169,1.6559,1.6387,1.6112,1.5722,1.5684,0.0,0.0,0.0,0.0,0.0,0.0,0.0,0.0,0.0,0.0,0.0,0.0,0.0,0.0,0.0,0.0,0.0,0.0,0.0,0.0,0.0,0.0,0.0,0.0,0.0,0.0,0.0,0.0,0.0,0.0,0.0,0.0,0.0,0.0,0.0,0.0,0.0,0.0,0.0,0.0,0.0,0.0,0.0,0.0,0.0,0.0,0.0,0.0,0.0,0.0,0.0,0.0,0.0,0.0,0.0,0.0,0.0,0.0,0.0,0.0,0.0,0.0,0.0,0.0,0.0,0.0,0.0,0.0,0.0,0.0,0.0,0.0,0.0,0.0,0.0,0.0,0.0,0.0,0.0,0.0,0.0,0.0,0.0,0.0,0.0,0.0,0.0,0.0,0.0,0.0,0.0,0.0,0.0,0.0,0.0,0.0,0.0,0.0,0.0,0.0,0.0,0.0,1.0327,1.0875,1.1677,1.3153,1.4411,1.5251,1.5531,1.5642,1.543,1.4824,0.0,0.0,0.0,0.0,0.0,0.0,0.0,0.0,0.0,0.0,0.0,0.0,0.0,0.0,0.0,0.0,0.0,0.0,0.0,0.0,0.0,0.0,0.0,0.0,0.0,0.0,0.0,0.0,0.0,0.0,0.0,0.0,0.0,0.0,0.0,0.0,0.0,0.0,0.0,0.0,0.0,0.0,0.0,0.0,0.0,0.0,0.0,0.0,0.0,0.0,0.0,0.0,0.0,0.0,0.0,0.0,0.0,0.0,0.0,0.0,0.0,0.0,0.0,0.0,0.0,0.0,0.0,0.0,0.0,0.0,0.0,0.0,0.0,0.0,0.0,0.0,0.0,0.0,0.0,0.0,0.0,0.0,0.0,0.0,0.0,0.0,0.0,0.0,0.0,0.0,0.0,0.0,0.0,0.0,0.0,0.0,0.0,0.0,0.0,0.0,0.0,0.0,1.0207,1.0795,1.1396,1.1827,1.2785,1.4417,1.3623,1.3718,1.5294,1.4277,0.0,0.0,0.0,0.0,0.0,0.0,0.0,0.0,0.0,0.0,0.0,0.0,0.0,0.0,0.0,0.0,0.0,0.0,0.0,0.0,0.0,0.0,0.0,0.0,0.0,0.0,0.0,0.0,0.0,0.0,0.0,0.0,0.0,0.0,0.0,0.0,0.0,0.0,0.0,0.0,0.0,0.0,0.0,0.0,0.0,0.0,0.0,0.0,0.0,0.0,0.0,0.0,0.0,0.0,0.0,0.0,0.0,0.0,0.0,0.0,0.0,0.0,0.0,0.0,0.0,0.0,0.0,0.0,0.0,0.0,0.0,0.0,0.0,0.0,0.0,0.0,0.0,0.0,0.0,0.0,0.0,0.0,0.0,0.0,0.0,0.0,0.0,0.0,0.0,0.0,0.0,0.0,0.0,0.0,0.0,0.0,0.0,0.0,0.0,0.0,0.0,0.0,1.0033,1.0514,1.1089,1.1423,1.2344,1.4079,1.3377,1.3554,1.5294,0.0,0.0,0.0,0.0,0.0,0.0,0.0,0.0,0.0,0.0,0.0,0.0,0.0,0.0,0.0,0.0,0.0,0.0,0.0,0.0,0.0,0.0,0.0,0.0,0.0,0.0,0.0,0.0,0.0,0.0,0.0,0.0,0.0,0.0,0.0,0.0,0.0,0.0,0.0,0.0,0.0,0.0,0.0,0.0,0.0,0.0,0.0,0.0,0.0,0.0,0.0,0.0,0.0,0.0,0.0,0.0,0.0,0.0,0.0,0.0,0.0,0.0,0.0,0.0,0.0,0.0,0.0,0.0,0.0,0.0,0.0,0.0,0.0,0.0,0.0,0.0,0.0,0.0,0.0,0.0,0.0,0.0,0.0,0.0,0.0,0.0,0.0,0.0,0.0,0.0,0.0,0.0,0.0,0.0,0.0,0.0,0.0,0.0,0.0,0.0,0.0,0.0,0.9472,0.9873,1.0341,1.0929,1.1356,1.2313,1.3884,1.3269,1.3591,1.5274,0.0,0.0,0.0,0.0,0.0,0.0,0.0,0.0,0.0,0.0,0.0,0.0,0.0,0.0,0.0,0.0,0.0,0.0,0.0,0.0,0.0,0.0,0.0,0.0,0.0,0.0,0.0,0.0,0.0,0.0,0.0,0.0,0.0,0.0,0.0,0.0,0.0,0.0,0.0,0.0,0.0,0.0,0.0,0.0,0.0,0.0,0.0,0.0,0.0,0.0,0.0,0.0,0.0,0.0,0.0,0.0,0.0,0.0,0.0,0.0,0.0,0.0,0.0,0.0,0.0,0.0,0.0,0.0,0.0,0.0,0.0,0.0,0.0,0.0,0.0,0.0,0.0,0.0,0.0,0.0,0.0,0.0,0.0,0.0,0.0,0.0,0.0,0.0,0.0,0.0,0.0,0.0,0.0,0.0,0.0,0.0,0.0,0.0,0.0,0.0,0.0,0.0,0.915,0.9753,1.0341,1.0929,1.1754,1.2653,1.3785,1.3296,1.3607,0.0,0.0,0.0,0.0,0.0,0.0,0.0,0.0,0.0,0.0,0.0,0.0,0.0,0.0,0.0,0.0,0.0,0.0,0.0,0.0,0.0,0.0,0.0,0.0,0.0,0.0,0.0,0.0,0.0,0.0,0.0,0.0,0.0,0.0,0.0,0.0,0.0,0.0,0.0,0.0,0.0,0.0,0.0,0.0,0.0,0.0,0.0,0.0,0.0,0.0,0.0,0.0,0.0,0.0,0.0,0.0,0.0,0.0,0.0,0.0,0.0,0.0,0.0,0.0,0.0,0.0,0.0,0.0,0.0,0.0,0.0,0.0,0.0,0.0,0.0,0.0,0.0,0.0,0.0,0.0,0.0,0.0,0.0,0.0,0.0,0.0,0.0,0.0,0.0,0.0,0.0,0.0,0.0,0.0,0.0,0.0,0.0,0.0,0.0,0.0,0.0,0.0,0.0,0.9766,0.9833,1.0114,1.0915,1.1819,1.269,1.3493,1.3441,1.4087,1.582,0.0,0.0,0.0,0.0,0.0,0.0,0.0,0.0,0.0,0.0,0.0,0.0,0.0,0.0,0.0,0.0,0.0,0.0,0.0,0.0,0.0,0.0,0.0,0.0,0.0,0.0,0.0,0.0,0.0,0.0,0.0,0.0,0.0,0.0,0.0,0.0,0.0,0.0,0.0,0.0,0.0,0.0,0.0,0.0,0.0,0.0,0.0,0.0,0.0,0.0,0.0,0.0,0.0,0.0,0.0,0.0,0.0,0.0,0.0,0.0,0.0,0.0,0.0,0.0,0.0,0.0,0.0,0.0,0.0,0.0,0.0,0.0,0.0,0.0,0.0,0.0,0.0,0.0,0.0,0.0,0.0,0.0,0.0,0.0,0.0,0.0,0.0,0.0,0.0,0.0,0.0,0.0,0.0,0.0,0.0,0.0,0.0,0.0,0.0,0.0,0.0,0.0,0.986,0.9886,1.0154,1.0915,1.2079,1.3028,1.3558,1.3879,1.4601,1.5762,0.0,0.0,0.0,0.0,0.0,0.0,0.0,0.0,0.0,0.0,0.0,0.0,0.0,0.0,0.0,0.0,0.0,0.0,0.0,0.0,0.0,0.0,0.0,0.0,0.0,0.0,0.0,0.0,0.0,0.0,0.0,0.0,0.0,0.0,0.0,0.0,0.0,0.0,0.0,0.0,0.0,0.0,0.0,0.0,0.0,0.0,0.0,0.0,0.0,0.0,0.0,0.0,0.0,0.0,0.0,0.0,0.0,0.0,0.0,0.0,0.0,0.0,0.0,0.0,0.0,0.0,0.0,0.0,0.0,0.0,0.0,0.0,0.0,0.0,0.0,0.0,0.0,0.0,0.0,0.0,0.0,0.0,0.0,0.0,0.0,0.0,0.0,0.0,0.0,0.0,0.0,0.0,0.0,0.0,0.0,0.0,0.0,0.0,0.0,0.0,0.0,0.0,0.9726,1.0026,1.0465,1.11,1.2657,1.3768,1.4032,1.4574,1.5078,1.5508,0.0,0.0,0.0,0.0,0.0,0.0,0.0,0.0,0.0,0.0,0.0,0.0,0.0,0.0,0.0,0.0,0.0,0.0,0.0,0.0,0.0,0.0,0.0,0.0,0.0,0.0,0.0,0.0,0.0,0.0,0.0,0.0,0.0,0.0,0.0,0.0,0.0,0.0,0.0,0.0,0.0,0.0,0.0,0.0,0.0,0.0,0.0,0.0,0.0,0.0,0.0,0.0,0.0,0.0,0.0,0.0,0.0,0.0,0.0,0.0,0.7189,0.0,0.0,0.0,0.0,0.0,0.0,0.0,0.0,0.0,0.0,0.0,0.0,0.0,0.0,0.0,0.0,0.0,0.0,0.0,0.0,0.0,0.0,0.0,0.0,0.0,0.0,0.0,0.0,0.0,0.0,0.0,0.0,0.0,0.0,0.0,0.0,0.0,0.0,0.0,0.0,0.0,1.0274,1.0863,1.1507,1.2373,1.428,1.5482,1.5504,1.5688,1.5977,1.6426,1.5801,0.0,0.0,0.0,0.0,0.0,0.0,0.0,0.0,0.0,0.0,0.0,0.0,0.0,0.0,0.0,0.0,0.0,0.0,0.0,0.0,0.0,0.0,0.0,0.0,0.0,0.0,0.0,0.0,0.0,0.0,0.0,0.0,0.0,0.0,0.0,0.0,0.0,0.0,0.0,0.0,0.0,0.0,0.0,0.0,0.0,0.0,0.0,0.0,0.0,0.0,0.0,0.0,0.0,0.0,0.0,0.0,0.0,0.0,0.0,0.0,0.835,0.0,0.0,0.0,0.0,0.0,0.0,0.0,0.0,0.0,0.0,0.0,0.0,0.0,0.0,0.0,0.0,0.0,0.0,0.0,0.0,0.0,0.0,0.0,0.0,0.0,0.0,0.0,0.0,0.0,0.0,0.0,0.0,0.0,0.0,0.0,0.0,0.0,0.0,0.0,0.0,1.122,1.1534,1.2135,1.3341,1.4844,1.5692,1.5626,1.5908,1.6172,1.6406,1.6172,0.0,0.0,0.0,0.0,0.0,0.0,0.0,0.0,0.0,0.0,0.0,0.0,0.0,0.0,0.0,0.0,0.0,0.0,0.0,0.0,0.0,0.0,0.0,0.0,0.0,0.0,0.0,0.0,0.0,0.0,0.0,0.0,0.0,0.0,0.0,0.0,0.0,0.0,0.0,0.0,0.0,0.0,0.0,0.0,0.0,0.0,0.0,0.0,0.0,0.0,0.0,0.0,0.0,1.0746,1.1357,1.2305,1.2358,1.2251,1.2029,1.0742,1.0127,0.9973,0.9879,0.0,0.0,0.0,0.0,0.0,0.0,0.0,0.0,0.0,0.0,0.0,0.0,0.0,0.0,0.0,0.0,0.0,0.0,0.0,0.0,0.0,0.0,0.0,0.0,1.4426,1.4526,1.1501,0.0,0.0,0.0,0.0,0.0,0.0,0.0,0.0,0.0,0.0,0.0,1.2157,1.2351,1.29,1.4212,1.5186,1.5798,1.5798,1.6084,1.6351,1.6351,1.6562,1.6733,0.0,0.0,0.0,0.0,0.0,0.0,0.0,0.0,0.0,0.0,0.0,0.0,0.0,0.0,0.0,0.0,0.0,0.0,0.0,0.0,0.0,0.0,0.0,0.0,0.0,0.0,0.0,0.0,0.0,0.0,0.0,0.0,0.7171,0.8486,0.0,0.0,0.0,0.0,0.0,0.0,0.0,0.0,0.0,0.0,0.0,0.0,0.0,1.0039,1.092,1.1751,1.2276,1.2443,1.2672,1.2656,1.2305,1.2572,1.2741,1.2688,1.2499,0.0,1.1169,1.0639,0.0,0.0,0.0,0.0,0.0,0.0,0.0,0.0,0.0,0.0,0.0,0.0,0.0,0.0,0.0,0.0,0.0,0.0,0.0,0.0,0.0,0.0,1.4409,1.4036,1.5232,1.6166,0.0,1.4674,1.4297,1.3504,1.2711,0.0,0.0,0.0,0.0,0.0,0.0,0.0,1.2752,1.3925,1.4836,1.5267,1.6703,1.7629,1.7629,1.7375,1.7207,1.7207,1.6914,1.707,1.7812,1.7539,0.0,0.0,0.0,0.0,0.0,0.0,0.0,0.0,0.0,0.0,0.0,0.0,0.0,0.0,0.0,0.0,0.0,0.0,0.0,0.0,0.0,0.0,0.0,0.0,0.0,0.0,0.0,0.0,0.0,0.7903,0.992,0.9807,1.0654,1.0719,0.0,0.0,0.0,0.0,0.0,0.0,0.0,0.0,0.0,1.0463,1.1323,1.1951,1.2197,1.2923,1.3333,1.3507,1.3801,1.3895,1.3801,1.3935,1.4072,1.4072,1.4072,1.3681,1.3106,1.2358,1.1875,1.166,0.0,0.0,0.0,0.0,1.1411,1.1513,1.2022,1.2403,1.2906,1.4039,0.0,0.0,0.0,0.0,0.0,0.0,0.0,0.0,0.0,0.0,1.6827,1.6522,1.7661,1.8815,1.851,1.7903,1.6997,0.0,1.487,1.4421,1.4191,0.0,0.0,0.0,0.0,1.3184,1.4156,1.4899,1.5523,1.6109,1.7089,1.7656,1.7656,1.75,1.7383,1.7383,1.7207,1.7266,1.7637,1.8164,1.8496,0.0,0.0,0.0,0.0,0.0,0.0,0.0,0.0,0.0,0.0,0.0,0.0,0.0,0.0,0.0,0.0,0.0,0.0,0.0,0.0,0.0,0.0,0.0,0.0,0.0,0.0,0.0,0.0,0.9296,1.1361,1.0684,1.1311,1.1423,0.0,0.0,0.0,0.0,0.0,0.0,1.0654,1.1242,1.1879,1.2398,1.3068,1.3427,1.3414,1.3868,1.4242,1.4536,1.475,1.4963,1.5177,1.5177,1.5177,1.5177,1.5177,1.5017,1.4669,1.3721,1.3,1.2498,1.2795,1.2804,1.2786,1.2935,1.2961,1.3115,1.3877,1.4062,1.426,1.512,1.5363,1.5343,1.5635,0.0,0.0,0.0,0.0,1.6123,1.5582,1.7099,1.8861,1.8883,1.9947,2.0879,2.0762,2.0234,1.9238,0.0,1.6731,1.6381,1.6096,0.0,0.0,0.0,0.0,1.453,1.5496,1.5882,1.6215,1.6831,1.7285,1.7598,1.7695,1.7695,1.7754,1.7871,1.7773,1.7754,1.7871,1.8672,1.8926,1.8496,0.0,0.0,0.0,0.0,0.0,0.0,0.0,0.0,0.0,0.0,0.0,0.0,0.0,0.0,0.0,0.0,0.0,0.0,0.0,0.0,0.0,0.0,0.0,0.0,0.0,0.0,0.0,0.0,0.0,1.052,1.1615,0.0,0.0,0.0,0.0,0.9699,1.1228,1.2309,1.2741,1.2986,1.3028,1.2845,1.3605,1.4342,1.5048,1.5192,1.5458,1.5738,1.5752,1.5765,1.5792,1.5792,1.5792,1.5792,1.5792,1.5618,1.5257,1.4095,1.3721,1.3924,1.336,1.3507,1.3961,1.3707,1.3519,1.3561,1.336,1.3265,1.3464,1.4894,1.6612,1.8149,1.8361,1.8705,0.0,0.0,1.783,1.8318,1.8027,1.8844,1.9944,2.041,2.1172,2.1699,2.1289,2.1172,2.0508,0.0,1.7637,1.7034,1.603,0.0,1.5793,1.5847,1.5811,1.598,1.6587,1.7025,1.7344,1.7344,1.7734,1.8144,1.8535,1.8574,1.875,1.916,1.8809,1.875,1.918,1.8848,1.9023,1.9805,1.9863,0.0,0.0,0.0,0.0,0.0,0.0,0.0,0.0,0.0,0.0,0.0,0.0,0.0,0.0,0.0,0.0,0.0,0.0,0.0,0.0,0.0,0.0,0.0,0.0,0.0,0.0,0.0,0.0,1.0836,1.1948,0.0,1.2454,1.2132,1.1902,1.1915,1.354,1.4388,1.4047,1.4162,1.434,1.4799,1.5233,1.5538,1.5625,1.6029,1.6192,1.6112,1.6299,1.6299,1.6126,1.6313,1.6286,1.6126,1.6313,1.6339,1.6192,1.5591,1.495,1.4349,1.4135,1.4068,1.4095,1.4175,1.4202,1.43,1.5135,1.5403,1.5529,1.6098,1.6798,1.7463,1.7803,1.8395,1.8914,1.8976,1.9638,2.0275,2.01,2.0816,2.1621,2.1777,2.2266,2.2656,2.25,2.2246,2.1758,2.0703,1.9687,1.886,1.8552,1.8024,1.7758,1.8043,1.7624,1.7197,1.7142,1.7519,1.7793,1.7793,1.8164,1.8594,1.9023,1.9062,1.9121,1.9277,1.9141,1.9121,1.9277,1.9394,1.9727,2.0332,2.0332,2.0547,0.0,0.0,0.0,0.0,0.0,0.0,0.0,0.0,0.0,0.0,0.0,0.0,0.0,0.0,0.0,0.0,0.0,0.0,0.0,0.0,0.0,0.0,0.0,0.0,0.0,0.0,1.171,1.1474,1.2531,1.3226,1.3121,1.2991,1.3444,1.4597,1.5517,1.5821,1.5518,1.5444,1.5602,1.596,1.6295,1.6406,1.6196,1.6494,1.6607,1.642,1.662,1.6607,1.642,1.662,1.6607,1.6433,1.662,1.67,1.6687,1.6393,1.5872,1.5244,1.515,1.4937,1.471,1.5003,1.5044,1.508,1.5965,1.6235,1.6255,1.6753,1.686,1.6937,1.7536,1.8123,1.8714,1.9664,2.032,2.0976,2.1457,2.209,2.2519,2.2519,2.2832,2.3105,2.2949,2.2715,2.2441,2.2148,2.1152,2.0273,1.9961,1.9434,1.916,1.9453,1.8906,1.8398,1.8262,1.8359,1.8437,1.8437,1.8691,1.9023,1.9453,1.9629,1.9727,1.9727,1.9727,1.9727,1.9727,1.998,2.0352,2.0781,2.0781,2.1152,2.1875,0.0,0.0,0.0,0.0,0.0,0.0,0.0,0.0,0.0,0.0,0.0,0.0,0.0,0.0,0.0,0.0,0.0,0.0,0.0,0.0,0.0,0.0,0.0,0.9758,1.1007,1.2062,1.2276,1.3374,1.3671,1.2565,1.3547,1.5123,1.7412,1.6885,1.6649,1.7027,1.6827,1.66,1.64,1.6613,1.6827,1.6954,1.6841,1.6727,1.6727,1.6727,1.6727,1.6727,1.6727,1.6727,1.6727,1.6727,1.6727,1.6714,1.642,1.646,1.6687,1.6393,1.6099,1.5885,1.6166,1.6086,1.5832,1.5832,1.5645,1.5589,1.6646,1.6788,1.68,1.785,1.8197,1.8456,1.9639,1.9978,2.034,2.2063,2.2434,2.2454,2.2539,2.2852,2.3027,2.2617,2.2539,2.2539,2.2519,2.1836,2.0996,2.0117,1.9961,1.9941,1.9922,1.957,0.0,1.9844,1.9531,1.9297,1.9316,1.9336,1.9512,1.9941,2.0352,2.0586,2.0586,2.0566,2.0566,2.0566,2.0586,2.0801,2.1269,2.1289,2.1504,2.1934,0.0,0.0,0.0,0.0,0.0,0.0,0.0,0.0,0.0,0.0,0.0,0.0,0.0,0.0,0.0,0.0,0.0,0.0,0.0,0.0,0.0,1.1144,1.0923,1.0658,1.2067,1.3244,1.3548,1.4231,1.4782,1.4816,1.5939,1.694,1.7569,1.7429,1.7313,1.7469,1.7163,1.7015,1.7211,1.7128,1.7021,1.7021,1.7235,1.7235,1.7034,1.7235,1.7235,1.7034,1.7248,1.7221,1.7034,1.7248,1.7341,1.7315,1.7021,1.6954,1.6981,1.6473,1.6353,1.6446,1.6326,1.6086,1.5832,1.5832,1.5778,1.5712,1.6074,1.6099,1.6216,1.7507,1.7873,1.8131,1.9289,1.9647,1.9932,2.1298,2.1599,2.1864,2.2689,2.3047,2.3105,2.2988,2.2969,2.2871,2.2578,2.2324,2.1894,2.1016,2.0879,2.0664,2.0019,1.9824,0.0,1.9492,1.9355,1.9531,2.0156,2.0215,2.0527,2.1269,2.1172,2.1055,2.1055,2.0742,2.0566,2.0566,2.0879,2.1406,2.2148,2.2461,2.2676,0.0,0.0,0.0,0.0,0.0,0.0,0.0,0.0,0.0,0.0,0.0,0.0,0.0,0.0,0.0,0.0,0.0,0.0,0.0,0.0,0.0,0.0,1.2897,1.2682,1.2568,1.3503,1.4269,1.4449,1.4961,1.5686,1.6433,1.7172,1.7566,1.7576,1.7456,1.7441,1.7752,1.7593,1.7609,1.7956,1.7675,1.7528,1.741,1.7689,1.7689,1.7528,1.7822,1.7876,1.7716,1.7889,1.7809,1.7528,1.7702,1.7702,1.7555,1.7275,1.7221,0.0,0.0,0.0,0.0,0.0,1.5979,1.5832,1.5832,1.5832,1.5832,1.5832,1.5832,1.5927,1.6669,1.6951,1.7124,1.8411,1.878,1.9039,2.0206,2.0926,2.148,2.2208,2.2775,2.3144,2.3144,2.3144,2.3066,2.2812,2.2773,0.0,2.1894,2.1621,2.1387,2.1055,2.0859,2.0723,2.0644,2.0488,2.0566,2.1074,2.1113,2.1328,2.1836,2.1816,0.0,0.0,0.0,2.1387,2.1387,2.1621,0.0,0.0,0.0,2.3144,2.3144,0.0,0.0,0.0,2.1409,2.0973,0.0,0.0,0.0,0.0,0.0,0.0,0.0,0.0,0.0,0.0,0.0,0.0,0.0,0.0,0.0,0.0,1.4457,1.4652,1.4875,1.5127,1.5233,1.513,1.5477,1.6249,1.7524,1.7594,1.7618,1.7571,1.7252,1.741,1.7968,0.0,0.0,0.0,0.0,1.8103,1.8103,1.8103,1.8103,1.8103,1.837,1.849,1.849,1.849,1.833,1.805,1.805,1.7876,1.7555,1.7301,1.7355,1.7555,1.7301,1.686,1.6339,1.6046,1.5912,1.5872,1.5845,0.0,0.0,1.5832,1.5832,1.5832,1.5832,1.5832,1.6008,1.7124,1.7498,1.7777,1.8948,2.0116,2.0926,2.1194,2.212,2.295,2.3057,2.3144,2.3144,2.3144,2.3144,2.3027,2.2656,2.2227,2.207,2.2402,2.2129,2.2031,2.2402,2.2109,2.1894,2.1953,0.0,0.0,2.2031,2.2324,2.2363,2.1973,2.2266,2.2461,2.2519,2.2519,2.2715,2.3125,2.3144,2.3144,2.3144,2.3144,2.3144,2.3144,2.3144,2.2949,0.0,0.0,0.0,0.0,0.0,0.0,0.0,0.0,0.0,0.0,0.0,0.0,0.0,0.0,0.0,1.5707,1.5268,1.5071,1.6421,1.6553,1.6321,1.5706,1.5695,1.6304,1.751,1.7626,1.7647,1.7609,1.7688,1.7968,1.8384,1.845,1.849,1.8739,1.8561,1.841,1.841,1.841,1.841,1.841,0.0,0.0,1.849,1.849,1.833,1.805,1.805,1.7876,1.7582,1.7515,1.7528,1.7569,1.7515,1.7288,1.6941,1.6647,1.6393,1.6152,1.5912,1.5832,1.5832,1.5832,1.5832,1.5832,1.5832,1.5832,0.0,1.6103,1.6197,1.648,1.7684,1.8226,1.8872,2.0836,2.148,2.1943,2.2862,2.3144,2.3144,2.3144,2.3144,2.3105,2.3027,2.2676,2.2305,2.2051,2.1934,2.1914,2.1992,2.1934,2.2012,2.2363,2.2383,2.2539,2.2871,2.2656,2.248,2.2402,2.2148,2.2168,2.25,2.2519,2.2715,2.3125,2.3144,2.3144,2.3144,2.3144,2.3144,2.3144,2.3144,2.3086,0.0,0.0,0.0,0.0,0.0,0.0,0.0,0.0,0.0,0.0,0.0,0.6371,0.9529,0.0,1.5562,1.5981,1.5959,1.6117,1.6843,1.7141,1.7141,1.6793,1.6562,1.6729,1.7472,1.7635,1.7648,1.7915,1.8084,1.8419,1.8704,1.8704,1.8784,1.9058,1.8762,1.8557,1.8704,1.8704,1.8704,1.8704,1.8865,1.8931,1.8931,1.8931,1.8771,1.849,1.849,1.8317,1.8023,1.7876,1.7809,1.7796,1.7649,1.7408,1.7114,1.682,1.6526,1.6246,1.6099,1.5952,1.5832,1.5832,1.5832,1.5832,1.5832,1.5832,1.5832,1.5832,1.5832,1.5927,1.6574,1.7217,1.8133,1.9951,2.0836,2.1658,2.2862,2.3144,2.3144,2.3144,2.3144,2.3144,2.3144,2.2969,2.2754,2.2539,2.2519,2.2519,2.2519,2.2519,2.2598,2.2812,2.2832,2.291,2.3125,2.2949,2.2832,2.2832,2.2617,2.2617,2.2812,2.2832,2.293,2.3125,2.3144,2.3144,2.3144,2.3359,2.3457,2.3477,2.3672,2.3555,0.0,0.0,0.0,0.0,0.0,0.0,0.0,0.0,0.6265,0.6258,0.6145,0.6812,0.9024,1.245,1.5101,1.5541,1.6406,1.6977,1.7118,1.7422,1.7582,1.7582,1.7264,1.7211,1.7555,1.7569,1.7741,1.805,1.8295,1.8585,1.8725,1.8778,1.8884,1.9199,1.8798,1.8691,1.8918,1.8985,1.9011,1.9011,1.9252,1.9372,1.9372,1.9372,1.9199,1.8918,1.8865,1.8704,1.8477,1.8237,1.8103,1.8023,1.7769,1.7488,1.7194,1.6901,1.6647,1.6433,1.638,1.6166,1.5912,1.5912,1.5872,1.5832,1.5832,1.5832,1.5832,1.5832,1.5872,1.5912,1.5912,1.6714,1.7784,1.9063,2.0062,2.1157,2.265,2.2936,2.3005,2.3193,2.3262,2.3242,2.3144,2.3144,2.3144,2.3144,2.3144,2.3144,2.3144,2.3144,2.3144,2.3144,2.3144,2.3144,2.3144,2.3144,2.3144,2.3144,2.3144,2.3144,2.3144,2.3144,2.3144,2.3144,2.3223,2.3262,2.3262,2.3691,2.3906,2.3926,2.4258,2.4043,0.0073,0.2639,0.563,0.6684,0.7019,0.708,0.0,0.0,0.6586,0.7541,0.8185,0.8517,0.8596,1.0281,1.2435,1.4756,1.6147,1.716,1.7515,1.7555,1.7582,1.7582,1.7555,1.7542,1.7582,1.7609,1.7623,1.7659,1.822,1.8419,1.8282,1.8658,1.8824,1.8597,1.8771,1.8891,1.8918,1.9185,1.9319,1.9319,1.9359,1.9372,1.9372,1.9372,1.9199,1.8905,1.8651,1.8517,1.849,1.845,1.829,1.805,1.8009,1.7809,1.7502,1.7208,1.7074,1.7021,1.6754,1.6473,1.6219,1.6219,1.6046,1.5832,1.5832,1.5832,1.5832,1.5832,1.6019,1.6219,1.6219,1.6505,1.709,1.8341,1.8731,1.9492,2.199,2.2478,2.2741,2.3609,2.3711,2.3594,2.3203,2.3144,2.3144,2.3144,2.3144,2.3144,2.3144,2.3144,2.3144,2.3144,2.3144,2.3144,2.3144,2.3144,2.3144,2.3144,2.3144,2.3144,2.3144,2.3144,2.3144,2.3144,2.3516,2.3711,2.3711,2.4141,2.4355,2.4355,2.4394,2.4355,-0.0695,0.1143,0.0,0.0,0.7883,0.8076,0.7945,0.7759,0.776,0.843,0.8735,0.891,0.8736,0.9495,1.0839,0.0,1.3894,1.4559,1.5115,1.5731,1.6119,1.5946,1.5902,1.6355,1.7437,1.7649,1.7676,1.7793,1.8194,1.8366,1.8366,1.8437,1.8437,1.849,1.8611,1.8758,1.8918,1.9225,1.9372,1.9372,1.9372,1.9372,1.9372,1.9372,1.9305,1.9172,1.9052,1.8998,1.8985,1.8811,1.8664,1.8544,1.837,1.8116,1.7809,1.7515,1.7288,1.7128,1.7007,1.6767,1.65,1.6326,1.6299,1.6313,1.6139,1.6206,1.6339,1.6339,1.6433,1.6526,1.6526,1.662,1.7,1.8163,1.8459,1.9228,2.183,2.2416,2.2756,2.3905,2.3965,2.3809,2.3867,2.3672,2.3594,2.3848,2.3457,2.3144,2.3144,2.3144,2.3144,2.3144,2.3144,2.3144,2.3144,2.3144,2.3144,2.3144,2.3144,2.3144,2.3144,2.3144,2.3144,2.3144,2.3574,2.3789,2.3789,2.4473,2.4805,2.4805,2.5059,2.5195,-0.2399,0.0,0.0,0.5829,0.7797,0.8459,0.8472,0.8441,0.854,0.8751,0.8827,0.8779,0.8842,0.8994,0.9794,1.1678,1.1777,1.1986,1.3406,1.4179,1.4574,1.4432,1.4356,1.4753,1.6131,1.6647,1.7158,1.7795,1.8074,1.8207,1.8237,1.8116,1.8143,1.8357,1.845,1.8637,1.8918,1.9225,1.9372,1.9372,1.9372,1.9372,1.9372,1.9372,1.9372,1.9372,1.9372,1.9372,1.9345,1.9132,1.8998,1.8891,1.8597,1.8303,1.8009,1.7702,1.7448,1.7275,1.7275,1.7074,1.6794,1.658,1.6607,1.666,1.646,1.654,1.67,1.67,1.6767,1.6834,1.6834,1.6887,1.7144,1.8038,1.8225,1.8825,2.1176,2.1952,2.2607,2.3749,2.4059,2.4199,2.4375,2.416,2.4062,2.4375,2.3789,2.332,2.332,2.3223,2.3144,2.3144,2.3144,2.3144,2.3144,2.3144,2.3144,2.3144,2.3144,2.3144,2.3144,2.3144,2.3203,2.332,2.375,2.4023,2.4141,2.4883,2.5254,2.5254,2.5586,2.5742,-0.5405,0.0,0.0729,0.3857,0.6067,0.7624,0.8147,0.8472,0.8582,0.8582,0.8588,0.8595,0.8595,0.8602,0.9298,1.121,1.0342,1.0532,1.3276,1.3525,1.3516,1.3846,1.3275,1.2892,0.0,1.4389,1.5909,1.7463,1.7889,1.7929,1.7622,1.7889,1.805,1.8063,1.8343,1.8637,1.8918,1.9225,1.9372,1.9372,1.9372,1.9372,1.9372,1.9372,1.9372,1.9372,1.9372,1.9372,1.9372,1.9359,1.9185,1.8891,1.8597,1.8303,1.8009,1.7702,1.7569,1.7569,1.7569,1.7382,1.7141,1.723,1.6941,1.67,1.67,1.67,1.67,1.67,1.6914,1.7141,1.7141,1.7341,1.7555,1.766,1.766,1.7962,1.9391,2.0813,2.2012,2.285,2.4145,2.4902,2.4492,2.4414,2.4394,2.4414,2.4043,2.3769,2.3769,2.3398,2.3144,2.3144,2.3144,2.3144,2.3144,2.3144,2.3144,2.3144,2.3144,2.3144,2.3144,2.3144,2.334,2.3769,2.418,2.4609,2.5039,2.5488,2.5723,2.5723,2.5723,2.5742,-0.2559,0.0,-0.2756,0.0656,0.4942,0.8405,0.8533,0.8622,0.8722,0.8622,0.8521,0.8421,0.8223,0.8387,0.8821,0.9514,0.9622,0.9931,1.0618,1.1439,1.1466,1.0338,1.0733,0.0,0.0,0.0,0.0,1.4489,1.5575,1.6287,1.6427,1.743,1.813,1.833,1.8624,1.8824,1.8918,1.9225,1.9372,1.9372,1.9372,1.9372,1.9372,1.9372,1.9372,1.9372,1.9372,1.9372,1.9372,1.9372,1.9305,1.9212,1.9105,1.8891,1.8597,1.829,1.8063,1.7862,1.7649,1.7515,1.7408,1.7208,1.7208,1.7248,1.7061,1.7141,1.7288,1.7288,1.7355,1.7435,1.7435,1.7515,1.7582,1.7582,1.7582,1.7989,1.9317,1.9922,2.0915,2.3008,2.3578,2.4029,2.5063,2.5039,2.4941,2.5254,2.4434,2.3691,2.3398,2.3223,2.3144,2.3144,2.3144,2.3144,2.3144,2.3398,2.3574,2.3574,2.3828,2.3984,2.3984,2.3984,2.4062,2.4199,2.4629,2.4922,2.5059,2.5527,2.5742,2.5742,2.6035,2.6172,-0.101,-0.1709,-0.2866,-0.0599,0.3662,0.7528,0.8536,0.8769,0.8798,0.8488,0.8384,0.818,0.7878,0.7878,0.8106,0.8418,0.8939,0.9307,0.9363,1.0047,0.9994,0.8628,0.9249,1.0286,0.0,0.0,0.0,1.4365,1.5106,1.5791,1.6574,1.7585,1.8343,1.8637,1.8824,1.8971,1.9078,1.9265,1.9372,1.9372,1.9372,1.9372,1.9372,1.9372,1.9372,1.9372,1.9372,1.9372,1.9372,1.9372,1.9305,1.9212,1.9212,1.9025,1.8744,1.8557,1.837,1.8143,1.7729,1.7582,1.7555,1.7368,1.7435,1.7542,1.7368,1.7435,1.7582,1.7582,1.7582,1.7609,1.7716,1.7742,1.7769,1.7876,1.7903,1.8117,1.9049,1.9564,2.0465,2.2078,2.2985,2.3754,2.4786,2.5199,2.5352,2.5488,2.4785,2.4082,2.3652,2.332,2.3144,2.3144,2.3144,2.3144,2.3144,2.3535,2.3789,2.3789,2.418,2.4414,2.4414,2.4414,2.4492,2.4648,2.4922,2.5137,2.5312,2.5605,2.5742,2.5742,2.6191,2.6387,-0.1298,-0.0097,-0.0,-0.0,0.2124,0.5054,0.8225,0.8809,0.8608,0.8405,0.7991,0.7678,0.0,0.0,0.7047,0.7818,0.8258,0.8859,0.963,0.9272,0.8927,0.0,0.0,0.0,0.0,0.0,0.0,1.6962,0.0,1.6478,1.7859,1.8357,1.8651,1.8945,1.8945,1.9078,1.9359,1.9372,1.9372,1.9372,1.9372,1.9372,1.9372,1.9372,1.9372,1.9372,1.9372,1.9372,1.9372,1.9372,1.9199,1.8945,1.8945,1.8771,1.8531,1.8517,1.8517,1.8424,1.7836,1.7635,1.7622,1.7609,1.7609,1.7609,1.7609,1.7609,1.7609,1.7622,1.7635,1.7702,1.7996,1.805,1.8116,1.8424,1.849,1.849,1.849,1.9552,2.0308,2.021,2.2204,2.3931,2.3655,2.4609,2.5392,2.5061,2.4983,2.4808,2.4473,2.3711,2.3203,2.3184,2.3184,2.3184,2.3184,2.3555,2.3809,2.3828,2.4219,2.4453,2.4453,2.4473,2.4687,2.5098,2.5098,2.5312,2.5742,2.5742,2.5742,2.5781,2.6211,2.6426,-0.3293,-0.1163,-0.0,-0.0,0.057,0.2498,0.7702,0.8845,0.8727,0.8503,0.8044,0.7446,0.0,0.0,0.0,0.7638,0.8282,0.0,0.9321,0.9497,0.0,0.913,0.0,0.995,1.1846,1.1629,0.0,0.0,1.6435,1.6102,1.7028,1.8181,1.8945,1.9239,1.9252,1.9292,1.9372,1.9372,1.9372,1.9372,1.9372,1.9372,1.9372,1.9372,1.9372,1.9372,1.9372,1.9372,1.9372,1.9372,1.9319,1.9252,1.9252,1.9212,1.9118,1.8891,1.8811,1.8758,1.8384,1.8263,1.8223,1.7996,1.7929,1.7929,1.7929,1.7929,1.7969,1.8196,1.8263,1.8277,1.8357,1.837,1.8384,1.8477,1.849,1.849,1.849,1.8809,1.9318,2.0185,2.1544,2.2501,2.2232,2.2466,2.3032,2.395,2.3772,2.3727,2.438,2.4219,2.3965,2.3652,2.3633,2.3633,2.3633,2.373,2.3926,2.4238,2.4668,2.4902,2.4902,2.5234,2.5449,2.5566,2.5566,2.5625,2.5742,2.5742,2.5898,2.623,2.666,2.7031,-0.4376,-0.1791,-0.0,-0.0,-0.0,0.0907,0.4262,0.6039,0.6961,0.6815,0.6373,0.0,0.5151,0.5988,0.0,0.0,0.0,0.0,0.8967,0.9273,0.9415,0.0,0.9367,0.0,1.2478,1.2001,1.3106,0.0,1.6563,1.6573,1.7603,1.8568,1.9199,1.9359,1.9372,1.9372,1.9372,1.9372,1.9372,1.9372,1.9372,1.9372,1.9372,1.9372,1.9372,1.9372,0.0,1.9372,1.9372,1.9372,1.9292,1.9185,1.9319,1.9292,1.9172,1.9132,1.9118,1.9092,1.8931,1.8878,1.8811,1.8384,1.8237,1.8237,1.8237,1.8237,1.8277,1.8437,1.849,1.8517,1.8651,1.8677,1.8718,1.8851,1.8878,1.8878,1.8878,1.8878,1.9275,2.0413,2.0972,2.137,2.1931,2.1857,2.2013,2.2909,2.2698,2.2663,2.313,2.3881,2.4316,2.4102,2.4062,2.4062,2.4062,2.4238,2.4453,2.4687,2.5117,2.5371,2.5371,2.5605,2.5742,2.5742,2.5742,2.584,2.6016,2.6016,2.625,2.668,2.7109,2.7422,-0.5455,-0.2455,-0.0,-0.0,-0.0,-0.0,-0.0,0.2068,0.3941,0.3866,0.0,0.3347,0.2756,0.4196,0.5829,0.6851,0.0,0.7767,0.8798,0.8974,0.915,0.9557,0.9745,1.036,1.1975,1.1957,1.3289,1.6839,1.6851,1.7436,1.8871,1.9225,1.9372,1.9372,1.9372,1.9372,1.9372,1.9372,1.9372,1.9372,1.9372,1.9372,1.9372,1.9372,1.9372,1.9372,1.9372,1.9372,1.9372,1.9372,1.9212,1.9011,1.9265,1.9212,1.9011,1.9265,1.9372,1.9372,1.9372,1.9372,1.9279,1.8731,1.8544,1.8544,1.8544,1.8544,1.8557,1.8597,1.8611,1.8664,1.8918,1.8985,1.9052,1.9305,1.9372,1.9372,1.9372,1.9372,1.9611,2.0496,2.0208,2.033,2.1739,2.1595,2.1393,2.182,2.1696,2.1587,2.1791,2.3238,2.4272,2.4214,2.44,2.4512,2.4512,2.4805,2.5,2.5059,2.543,2.5644,2.5644,2.5703,2.5742,2.5742,2.5801,2.6016,2.6387,2.6445,2.6699,2.7109,2.748,2.7695,-0.8941,-0.4536,-0.0,-0.0,-0.0,-0.0,-0.0,0.0383,0.0,0.0,0.074,0.0637,0.0547,0.0849,0.2281,0.5814,0.7125,0.7902,0.8825,0.9157,0.9381,0.0,1.0875,1.2354,1.4015,1.4134,0.0,0.0,1.7732,1.7615,1.9292,1.9332,1.9372,1.9372,1.9372,1.9372,1.9372,1.9372,1.9372,1.9372,1.9372,1.9372,1.9372,1.9372,1.9372,1.9372,1.9372,0.0,1.9372,1.9372,1.9332,1.9292,1.9345,1.9332,1.9292,1.9345,1.9372,1.9372,1.9372,1.9372,1.9305,1.8958,1.8851,1.8851,1.8851,1.8851,1.8905,1.9145,1.9212,1.9225,1.9279,1.9292,1.9305,1.9359,1.9372,1.9372,1.9372,1.9372,1.9394,1.9312,1.9163,1.9138,1.9168,1.9153,1.941,2.0632,2.068,2.1079,2.2234,2.3265,2.3651,2.3322,2.426,2.4961,2.4961,2.4687,2.4687,2.5039,2.5137,2.5176,2.5176,2.5547,2.5742,2.5742,2.6094,2.6309,2.6387,2.6738,2.7129,2.7559,2.7637,2.7851,-1.0019,-0.7807,-0.4548,-0.0857,-0.0,-0.0,-0.0,0.0,0.0,0.0,-0.0,-0.0,-0.0,-0.0,0.0,0.2681,0.4516,0.6368,0.8354,0.8723,0.0,0.9544,1.0448,1.1856,0.0,1.3885,1.5074,1.9127,1.7923,1.7689,1.9359,1.9372,1.9372,1.9372,1.9372,1.9372,1.9372,1.9372,1.9372,1.9372,1.9372,1.9372,1.9372,1.9372,1.9372,1.9372,1.9372,1.9372,1.9372,1.9372,1.9372,1.9372,1.9372,1.9372,1.9386,1.9533,1.9492,1.9386,1.9546,1.9492,1.9345,1.9199,1.9158,1.9158,1.9158,1.9158,1.9185,1.9332,1.9372,1.9372,1.9372,1.9372,1.9372,1.9372,1.9372,1.9372,1.9372,1.9372,1.9332,1.9185,1.9025,1.8931,1.8945,1.8691,1.8752,1.9556,1.9541,1.9661,2.0303,2.1396,2.2258,2.2707,2.3226,2.352,2.352,2.3242,2.317,2.3484,2.3404,2.3386,2.3502,2.3698,2.3806,2.3806,2.4181,2.4485,2.47,2.4879,2.529,2.5667,2.5667,2.5757,-1.0088,-1.0342,-0.8949,-0.2684,-0.0582,-0.0,-0.0,-0.0,0.0,0.0,-0.0,-0.0,-0.0,0.0,-0.0,0.0,0.1741,0.4176,0.7415,0.8166,0.8728,0.0,0.9933,0.0,1.4361,1.3407,0.0,1.901,1.8286,1.804,1.9372,1.9372,1.9372,1.9372,1.9372,1.9372,1.9372,1.9372,1.9372,1.9372,1.9372,1.9372,1.9372,1.9372,1.9372,1.9372,1.9372,1.9372,1.9372,1.9372,1.9372,1.9372,1.9372,1.9372,1.9399,1.9693,1.9653,1.9506,1.9786,1.9746,1.9546,1.9479,1.9412,1.9372,1.9372,1.9372,1.9372,1.9372,1.9372,1.9372,1.9372,1.9372,1.9386,1.9452,1.9466,1.9466,1.9466,1.9412,1.9372,1.9372,1.9185,1.9092,1.9332,1.8985,1.8758,1.8985,1.8824,1.8677,1.8677,1.9639,2.0714,2.1698,2.207,2.2231,2.2231,2.1952,2.1903,2.2199,2.1952,2.2022,2.2215,2.2231,2.2231,2.2231,2.247,2.2797,2.3184,2.3267,2.3447,2.3822,2.3822,2.3871,-0.9971,-1.0328,-0.9748,-0.581,-0.2462,-0.0,-0.0,0.0,-0.0,-0.0,-0.0,-0.0,-0.0,0.0,0.0,0.0,0.0,0.1824,0.5888,0.7827,0.889,0.925,0.0,0.0,1.448,1.448,1.5795,1.9127,1.9243,1.9243,1.9372,1.9372,1.9372,1.9372,1.9372,1.9372,1.9372,1.9372,1.9372,1.9372,1.9372,1.9372,1.9372,1.9372,1.9372,1.9372,1.9372,1.9372,0.0,1.9372,1.9372,1.9372,1.9372,1.9372,1.9399,1.9693,1.9786,1.98,2.0094,2.0174,2.0107,1.984,1.9586,1.9372,1.9372,1.9372,1.9372,1.9372,1.9372,1.9372,1.9372,1.9372,1.9439,1.9693,1.976,1.976,1.976,1.9559,1.9372,1.9372,1.9345,1.9332,1.9359,1.9319,1.9292,1.9319,1.9305,1.9292,1.9292,1.9394,1.951,1.9625,2.1383,2.2487,2.2487,2.2454,2.2454,2.2487,2.2454,2.2454,2.2487,2.2487,2.2487,2.2487,2.2954,2.3152,2.3184,2.3624,2.3789,2.3822,2.3822,2.4003,-0.9652,-1.0336,-1.041,-0.9001,-0.4262,-0.0,-0.0,0.0,-0.0,-0.0,-0.0,-0.0,-0.0,-0.0,-0.0,0.0,0.0,0.0,0.2447,0.5532,0.8098,0.924,1.0001,0.0,0.0,0.0,1.5913,1.9127,1.9372,1.9372,1.9372,1.9372,1.9372,1.9372,1.9372,1.9372,1.9372,1.9372,1.9372,1.9372,1.9372,1.9372,1.9372,1.9372,1.9372,1.9372,1.9372,1.9466,0.0,1.9439,1.9466,1.9613,1.9439,1.9479,1.9666,1.996,2.0054,2.0107,2.0401,2.0388,2.0214,2.0094,1.9867,1.9599,1.9426,1.9372,1.9372,1.9372,1.9492,1.9626,1.9626,1.976,1.992,2.004,2.0054,2.0013,1.984,1.9706,1.9573,1.9399,1.9372,1.9372,1.9372,1.9372,1.9372,1.9372,1.9372,1.9372,1.9372,1.9372,1.9372,1.9372,1.9991,2.0376,2.0376,2.0201,2.0172,2.0361,2.0201,2.0172,2.0376,2.0376,2.0376,2.0376,2.0696,2.0856,2.0856,2.1101,2.1159,2.1159,2.135,2.1511,-0.8307,-0.7851,-0.7986,-1.0144,-0.5282,-0.0,0.0,0.0,-0.0,-0.0,-0.0,-0.0,-0.0,-0.0,-0.0,-0.0,0.2114,0.3336,0.2133,0.4894,0.757,0.0,0.0,0.9851,0.0,1.4006,1.6503,1.9243,1.9372,1.9372,1.9372,1.9372,1.9372,1.9372,1.9372,1.9372,1.9372,1.9372,1.9372,1.9372,1.9372,1.9372,1.9372,1.9372,1.9372,1.9372,1.9372,1.9479,0.0,1.9452,1.9492,1.9653,1.9452,1.9546,1.984,2.012,2.0294,2.0401,2.0708,2.0668,2.0481,2.0388,2.0227,2.0,1.9706,1.9506,1.9372,1.9372,1.9573,1.9813,1.9907,2.0147,2.0361,2.0361,2.0361,2.0307,2.0107,1.9987,1.9867,1.9666,1.9559,1.9519,1.9613,1.9479,1.9399,1.9479,1.9426,1.9372,1.9372,1.9439,1.9466,1.9372,1.9332,1.9239,1.9065,1.8865,1.8878,1.9158,1.8905,1.8878,1.9172,1.9105,1.9052,1.9052,1.9265,1.9412,1.9492,1.9492,1.9546,1.9626,1.9826,1.9973,-0.5201,-0.2331,-0.1865,-0.8889,-0.5339,-0.0,0.0,0.0,-0.0,-0.0,-0.0,-0.0,-0.0,-0.0,-0.0,-0.0,0.3032,0.5654,0.6538,0.7087,0.0,0.0,0.0,0.9479,1.1355,1.4782,1.7689,1.9243,1.9372,0.0,1.9372,1.9372,1.9372,1.9372,1.9372,1.9372,1.9372,1.9372,1.9372,1.9372,1.9372,1.9372,1.9372,1.9372,1.9372,1.9372,1.9372,1.9372,0.0,1.9372,1.9372,1.9372,1.9372,1.9546,1.984,2.012,2.0414,2.0708,2.1002,2.1096,2.1056,2.0762,2.0668,2.0615,2.0307,1.9826,1.9372,1.9372,1.9573,1.9867,2.0147,2.0441,2.0668,2.0668,2.0668,2.0668,2.0668,2.0441,2.0227,2.0227,1.9987,1.988,2.0174,1.9746,1.9466,1.976,1.9546,1.9372,1.9372,1.9626,1.9679,1.9399,1.988,1.9987,1.9412,1.9359,1.9479,1.9773,1.9519,1.9492,1.9773,1.9519,1.9359,1.9359,1.9372,1.9506,1.98,1.98,1.9947,2.0227,2.0227,2.0388,-0.2313,-0.2545,-0.4579,-0.8457,-0.7449,-0.4515,-0.0809,0.0,0.0,-0.0,-0.0,-0.0,-0.0,-0.0,-0.0,-0.0,0.0956,0.2956,0.6512,0.0,0.0,0.8557,0.9071,1.0083,0.0,0.0,1.602,1.7689,1.8765,1.9372,1.9372,1.9372,1.9372,1.9372,1.9372,1.9372,1.9372,1.9372,1.9372,1.9372,1.9372,1.9372,1.9372,1.9372,1.9372,1.9372,1.9372,1.9479,1.9653,1.9452,1.9599,1.992,1.9519,1.9786,2.0388,2.0267,2.0548,2.0989,2.1082,2.1109,2.1096,2.1002,2.0842,2.0655,2.0561,2.0267,2.0,2.0201,2.0321,2.0468,2.0762,2.0895,2.0975,2.0975,2.0975,2.0922,2.0722,2.0601,2.0481,2.0267,2.016,2.012,2.0214,2.008,1.9987,2.008,2.0013,1.996,1.996,2.004,2.0054,1.9973,2.012,2.0,1.9412,1.9733,1.9907,1.9813,1.9907,2.0,2.0094,2.0013,1.9867,1.9666,1.9853,1.9907,1.98,2.0,2.0241,2.0535,2.0535,2.0695,0.0,-0.3725,-0.5757,-0.719,-0.6238,-0.4143,0.0,0.0,0.0,0.0,0.0,0.0,-0.0,-0.0,-0.0,-0.0,0.0745,0.2357,0.5393,0.0,0.0,0.8589,0.0,0.0,0.0,1.3561,1.5311,1.6844,1.8519,1.9372,1.9372,1.9372,1.9372,1.9372,1.9372,1.9372,1.9372,1.9372,1.9372,1.9372,1.9372,1.9372,1.9372,1.9372,1.9372,1.9372,1.9372,1.9466,0.0,1.9439,1.9586,1.988,1.9626,1.9933,2.0494,2.0428,2.0695,2.1109,2.1109,2.1109,2.1109,2.1109,2.0989,2.0842,2.0842,2.0561,2.0294,2.0588,2.0681,2.0748,2.1029,2.1109,2.1109,2.1109,2.1109,2.1056,2.0882,2.0842,2.0788,2.0601,2.0481,2.0441,2.0548,2.0374,2.0267,2.0388,2.0307,2.0227,2.0227,2.0334,2.0361,2.0241,2.0428,2.0321,1.9746,2.0027,2.0201,2.0134,2.0201,2.0281,2.0401,2.0294,2.0147,1.996,2.0134,2.0201,2.0134,2.0414,2.0655,2.0842,2.0842,2.0935,0.0,-0.5378,-0.5365,-0.5311,-0.2807,-0.0293,-0.007,0.0,0.0,0.0,0.0,0.0,-0.0,-0.0,-0.0,-0.0,0.2011,0.3613,0.3663,0.5739,0.0,0.0,0.8933,0.0,1.1446,1.3302,1.5074,1.6727,1.8286,1.9243,1.9372,1.9372,1.9372,1.9372,1.9372,1.9372,1.9372,1.9372,1.9372,1.9372,1.9372,1.9372,1.9372,1.9372,1.9372,0.0,1.9372,1.9372,0.0,1.9372,1.9372,1.9426,1.9679,1.9973,2.0294,2.0548,2.0842,2.1109,2.1109,2.1109,2.1109,2.1109,2.1109,2.1109,2.1109,2.0735,2.0347,2.0628,2.0708,2.0775,2.1042,2.1109,2.1109,2.1109,2.1109,2.1109,2.1109,2.1109,2.1109,2.1109,2.0895,2.0788,2.1069,2.0655,2.0388,2.0668,2.0468,2.0294,2.0294,2.0535,2.0601,2.0321,2.0788,2.0882,2.0347,2.0294,2.0401,2.0655,2.0441,2.0414,2.0695,2.0441,2.0281,2.0267,2.0267,2.0414,2.0708,2.0975,2.1109,2.1109,2.1109,2.1109,-0.4671,0.0,-0.5266,-0.4827,-0.4432,-0.3416,0.0,0.0,0.0,0.0,0.0,0.0,0.0,-0.0,-0.0,-0.0,0.223,0.3934,0.3867,0.6463,0.0,0.9103,0.9462,0.9751,1.0148,1.1733,1.3407,1.5074,1.6621,1.804,1.9372,1.9372,1.9372,1.9372,1.9372,1.9372,1.9372,1.9372,1.9372,1.9372,1.9372,1.9372,1.9372,1.9372,1.9372,1.9372,1.9372,1.9372,1.9372,1.9372,1.9492,1.9679,1.9533,1.992,2.0548,2.0401,2.0668,2.1109,2.1109,2.1109,2.1109,2.1109,2.1109,2.1109,2.1109,2.1015,2.0922,2.0989,2.1002,2.1029,2.1096,2.1109,2.1109,2.1109,2.1109,2.1109,2.1109,2.1109,2.1109,2.1109,2.1056,2.1029,2.1096,2.0989,2.0922,2.1002,2.0949,2.0909,2.0909,2.0962,2.0989,2.0909,2.1029,2.1056,2.0922,2.0909,2.0842,2.0681,2.0815,2.0935,2.1002,2.0935,2.0802,2.0575,2.0575,2.0708,2.1002,2.1082,2.1109,2.1109,2.1109,2.1109,-0.2416,-0.2676,-0.2841,-0.2509,-0.2682,-0.2397,-0.0423,0.0,0.0,0.0,0.0,0.0,0.0,0.0,-0.0,-0.0,0.2246,0.4391,0.0,0.0,0.8771,0.9225,0.9544,0.972,0.0,1.1207,1.2808,1.448,1.6138,1.7689,1.9359,1.9372,1.9372,1.9372,1.9239,1.9225,1.9372,1.9225,1.9158,1.9158,1.9025,1.9038,1.9158,1.9158,1.9239,1.9372,1.9372,1.9372,1.9372,1.9372,1.9466,1.9599,1.9573,1.9853,2.0267,2.0241,2.0521,2.0909,2.0909,2.1002,2.1109,2.1109,2.1109,2.1109,2.1109,2.1109,2.1109,2.1109,2.1109,2.1109,2.1109,2.1109,2.1109,2.1109,2.1109,2.1109,2.1109,2.1109,2.1109,2.1109,2.1109,2.1109,2.1109,2.1109,2.1109,2.1109,2.1109,2.1109,2.1109,2.1109,2.1109,2.1109,2.1109,2.1109,2.1109,2.1109,2.1042,2.0882,2.1029,2.1109,2.1109,2.1109,2.1042,2.0882,2.0869,2.0949,2.1109,2.1109,2.1109,2.1109,2.1109,2.1109,-0.0,-0.0,-0.0,-0.0,-0.0,-0.0,-0.0,0.0,0.0,0.0,0.0,0.0,0.0,-0.0,0.0,0.0,0.0,0.0,0.7779,0.8404,0.8771,0.9171,0.9469,0.0,0.9781,1.1004,1.2569,1.448,1.5902,1.7443,1.9243,1.9319,1.9305,1.9305,1.9011,1.8971,1.9239,1.8985,1.8865,1.8851,1.8651,1.8691,1.8918,1.8971,1.9132,1.9372,0.0,0.0,1.9372,1.9372,1.9372,1.9399,1.9639,1.976,1.9826,2.008,2.0361,2.0615,2.0655,2.0842,2.1056,2.1096,2.1082,2.1056,2.1096,2.1109,2.1109,2.1109,2.1109,2.1109,2.1109,2.1109,2.1109,2.1109,2.1109,2.1109,2.1109,2.1109,2.1109,2.1109,2.1109,2.1122,2.1162,2.1176,2.1189,2.1243,2.1243,2.1243,2.1243,2.1243,2.1243,2.1243,2.1243,2.1243,2.1243,2.1243,2.1243,2.1243,2.1162,2.1109,2.1109,2.1109,2.1109,2.1109,2.1109,2.1109,2.1109,2.1109,2.0982,2.0716,2.0716,2.0615,-0.0,-0.0,-0.0,-0.0,-0.0,-0.0,0.0,0.0,0.0,0.0,0.0,0.0,0.0,-0.0,-0.0,0.0,0.0,0.5694,0.0,0.0,0.932,0.9517,0.0,0.9747,0.9652,0.9988,1.1374,1.4361,1.4837,1.6267,1.9243,1.9132,1.8985,1.8985,1.8704,1.8584,1.8624,1.8584,1.8557,1.8557,1.8758,1.8878,1.8931,1.9185,1.9319,1.9372,0.0,1.9372,1.9372,1.9372,1.9372,1.9372,1.9412,1.9586,1.98,1.9853,2.0054,2.0334,2.0588,2.0708,2.0788,2.1029,2.0949,2.0788,2.1029,2.1109,2.1109,2.1109,2.1109,2.1109,2.1109,2.1109,2.1109,2.1109,2.1109,2.1109,2.1109,2.1109,2.1109,2.1109,2.1109,2.1189,2.1443,2.1483,2.1563,2.1817,2.1844,2.1844,2.1844,2.1844,2.1844,2.1844,2.1844,2.1844,2.1844,2.1844,2.1844,2.1844,2.1376,2.1109,2.1109,2.1109,2.1109,2.1109,2.1109,2.1109,2.1109,2.1109,2.0322,1.8896,1.8896,1.8231,-0.0,-0.0,-0.0,-0.0,-0.0,-0.0,0.0,0.0,0.0,0.0,0.0,0.0,0.0,0.0,-0.0,-0.0,0.0,0.5971,0.8924,0.9353,0.9313,0.0,0.0,0.9713,0.972,0.9713,1.1048,1.4351,1.4488,1.5832,1.9004,1.8998,1.8851,1.8691,1.841,1.825,1.825,1.8076,1.817,1.849,1.8464,1.8611,1.8931,1.9065,1.9212,1.9372,0.0,1.9372,1.9372,1.9372,1.9372,1.9372,1.9372,1.9452,1.9586,1.9746,1.988,2.004,2.0334,2.0548,2.0695,2.0828,2.0895,2.0935,2.1069,2.1109,2.1109,2.1109,2.1109,2.1109,2.1109,2.1109,2.1109,2.1109,2.1109,2.1109,2.1109,2.1109,2.1109,2.1109,2.1243,2.139,2.1537,2.1683,2.183,2.1964,2.1991,2.1991,2.1991,2.1991,2.1991,2.1991,2.1991,2.1991,2.1991,2.1991,2.1991,2.1991,2.159,2.1349,2.1349,2.1349,2.1269,2.1109,2.0373,1.9918,1.977,1.8983,1.8125,1.7335,1.7335,1.6992,-0.0,-0.0,-0.0,-0.0,0.0,0.0,0.0,0.0,0.0,0.0,0.0,0.0,0.0,-0.0,0.0,-0.0,0.2736,0.5994,0.9325,0.9509,0.9354,0.9469,0.9557,0.9652,0.9761,0.9639,1.0776,1.3731,1.4169,1.5462,1.812,1.8519,1.8624,1.8397,1.809,1.7943,1.7943,1.7702,1.7849,1.8384,1.8223,1.8424,1.8931,1.8998,1.9158,1.9372,1.9372,1.9372,1.9372,1.9372,1.9372,1.9372,1.9372,1.9372,1.9399,1.9613,1.9746,1.9826,2.0054,2.0281,2.0494,2.0628,2.0775,2.0935,2.1069,2.1109,2.1109,2.1109,2.1109,2.1109,2.1109,2.1109,2.1109,2.1109,2.1109,2.1109,2.1109,2.1162,2.1216,2.1216,2.1456,2.167,2.175,2.1937,2.2111,2.2178,2.2258,2.2271,2.2205,2.2258,2.2271,2.2191,2.2191,2.2191,2.2191,2.1779,2.1512,2.1512,2.1188,2.0993,2.0993,2.059,2.0215,2.0002,1.9076,1.8384,1.8192,1.7026,1.6165,1.576,1.576,1.5653,-0.0,-0.0,-0.0,-0.0,0.0,0.0,0.0,0.0,0.0,0.0,0.0,0.0,0.0,-0.0,-0.0,-0.0,0.2711,0.6045,0.929,0.0,0.9774,0.9788,0.9686,0.9612,0.9625,0.949,1.0091,1.1816,1.3174,1.4632,1.6446,1.7469,1.8103,1.8076,1.7782,1.7609,1.7609,1.7595,1.7756,1.8076,1.833,1.8624,1.8931,1.9212,1.9345,1.9372,1.9372,1.9372,1.9372,1.9372,1.9372,1.9372,1.9372,1.9372,1.9372,1.9399,1.9573,1.98,1.9826,1.984,1.996,2.0494,2.0508,2.0401,2.0949,2.1109,2.1109,2.1109,2.1109,2.1109,2.1109,2.1109,2.1109,2.1109,2.1109,2.1109,2.1109,2.1323,2.1523,2.1523,2.175,2.2044,2.2311,2.2378,2.2485,2.2752,2.3046,2.3126,2.2832,2.3046,2.3113,2.2832,2.2806,2.2806,2.2806,2.1258,2.0281,2.0281,1.9669,1.9397,1.9397,1.7771,1.6809,1.6799,1.6695,1.657,1.655,1.6435,1.5624,1.4011,1.4011,1.3149,-0.0,-0.0,-0.0,-0.0,0.0,0.0,0.0,0.0,0.0,0.0,0.0,0.0,0.0,0.0,0.1375,0.5422,0.5466,0.6077,0.9342,0.9842,0.9788,0.97,0.9646,0.9571,0.9476,0.9327,0.996,1.1659,1.223,1.3496,1.5951,1.6417,1.7067,1.7769,1.7649,1.7502,1.7315,1.7488,1.7649,1.7756,1.8063,1.8464,1.8931,1.9038,1.9199,1.9372,1.9372,1.9372,1.9372,1.9372,1.9372,1.9372,1.9372,1.9372,1.9372,1.9372,1.9439,1.9533,1.9533,1.9653,1.9867,2.0267,2.0454,2.0588,2.0989,2.1109,2.1109,2.1109,2.1109,2.1109,2.1109,2.1109,2.1109,2.1109,2.1109,2.1109,2.1109,2.1336,2.155,2.155,2.1937,2.2285,2.2405,2.2726,2.302,2.314,2.3407,2.3567,2.3447,2.3367,2.3354,2.342,2.342,2.2986,2.1678,2.0814,1.9864,1.8584,1.7994,1.7737,1.7737,1.7056,1.6576,1.6446,1.5615,1.5126,1.4871,1.3891,1.3115,1.2425,1.2521,1.2173,-0.0,-0.0,-0.0,0.0,0.0,0.0,0.0,0.0,0.0,0.0,0.0,0.0,0.0,0.0,0.0,0.0,0.7897,0.722,0.9457,0.9795,0.972,0.9618,0.9523,0.9422,0.932,0.9171,0.9574,1.081,1.1148,1.2284,1.4254,1.5247,1.615,1.6829,1.7279,1.7395,1.7288,1.7395,1.7488,1.7582,1.7796,1.821,1.8784,1.8784,1.8891,1.9092,1.9092,1.9145,1.9225,1.9225,1.9279,1.9372,1.9372,1.9372,1.9372,1.9372,1.9372,1.9372,1.9372,1.9492,1.9733,2.0107,2.0374,2.0615,2.0989,2.1109,2.1109,2.1109,2.1109,2.1109,2.1109,2.1109,2.1109,2.1109,2.1109,2.1136,2.1229,2.1483,2.171,2.1804,2.2218,2.2565,2.2565,2.2899,2.3207,2.3313,2.3581,2.3741,2.3647,2.3607,2.3647,2.3754,2.3768,2.2885,2.0826,2.0078,1.8832,1.6817,1.5827,1.5475,1.6044,1.5487,1.5032,1.4961,1.4048,1.3421,1.335,1.2201,1.1687,1.1687,1.1837,1.1904,-0.0,-0.0,-0.0,0.0,0.0,0.0,0.0,0.0,0.0,0.0,0.0,-0.0,-0.0,0.0,0.0,0.8609,0.9729,0.9787,0.9815,0.9713,0.9605,0.9605,0.934,0.915,0.915,0.9022,0.894,0.894,1.0241,1.1101,1.1101,1.3804,1.5411,1.5411,1.6548,1.7288,1.7569,1.7288,1.7288,1.7569,1.7569,1.7903,1.849,1.849,1.849,1.849,1.849,1.8651,1.8918,1.8918,1.9092,1.9359,1.9359,1.9359,1.9372,1.9372,1.9372,1.9372,1.9372,1.9372,1.9466,2.004,2.0227,2.0334,2.0922,2.1109,2.1109,2.1109,2.1109,2.1109,2.1109,2.1109,2.1109,2.1109,2.1109,2.1189,2.1496,2.1777,2.2071,2.2365,2.2659,2.2859,2.2859,2.2859,2.2979,2.3287,2.3581,2.3661,2.338,2.3848,2.4102,2.3808,2.3781,2.2898,2.0838,1.8934,1.7029,1.4982,1.3089,1.2802,1.4307,1.261,1.1687,1.183,1.1694,1.1694,1.183,1.183,1.183,1.1837,1.1993,1.206,-0.0,-0.0,0.0,-0.0,0.0,0.0,0.0,0.0,0.0,0.0,0.0,-0.0,-0.0,0.0,0.0,0.2556,0.6574,0.951,0.956,0.9557,0.9408,0.93,0.9205,0.9117,0.9015,0.8866,0.8777,0.8777,0.9204,0.9846,1.0907,1.1891,1.3264,1.5304,1.5596,1.6034,1.6967,1.7088,1.6981,1.666,1.7088,1.7595,1.8183,1.8183,1.829,1.849,1.849,1.8544,1.8624,1.8624,1.8798,1.9052,1.9052,1.9185,1.9372,1.9372,1.9372,1.9372,1.9372,1.9372,1.9426,1.9813,1.9933,2.004,2.0628,2.0802,2.0842,2.1056,2.1109,2.1109,2.1109,2.1109,2.1109,2.1109,2.1109,2.1189,2.1496,2.1777,2.2071,2.2365,2.2659,2.2859,2.2859,2.3046,2.3287,2.3594,2.3888,2.4048,2.3955,2.4275,2.4396,2.4102,2.4262,2.3024,1.9575,1.8525,1.6657,1.3258,1.2414,1.2317,1.2802,1.222,1.1952,1.1993,1.1952,1.1952,1.1993,1.1993,1.1993,1.1999,1.2149,1.2223,-0.0,-0.0,0.0,-0.0,-0.0,-0.0,-0.0,0.0,0.0,0.0,0.0,-0.0,-0.0,-0.0,0.0,0.1638,0.4929,0.7908,0.9288,0.9395,0.9259,0.9164,0.9103,0.9035,0.8947,0.8798,0.871,0.871,0.8655,0.9041,0.9875,1.0609,1.1727,1.352,1.4344,1.5113,1.5985,1.6566,1.6687,1.6446,1.6807,1.7168,1.7515,1.7635,1.7782,1.7969,1.8196,1.8303,1.833,1.8437,1.8597,1.8771,1.8878,1.9038,1.9199,1.9319,1.9372,1.9372,1.9372,1.9372,1.9412,1.9706,1.98,1.9907,2.0494,2.0681,2.0735,2.1029,2.1109,2.1109,2.1109,2.1109,2.1109,2.1109,2.1109,2.1189,2.1496,2.1777,2.2071,2.2365,2.2659,2.2859,2.2859,2.3113,2.342,2.3728,2.4022,2.4209,2.4209,2.4356,2.4436,2.4382,2.378,2.2049,1.8874,1.7689,1.5824,1.2525,1.2284,1.2237,1.2237,1.2121,1.2088,1.2149,1.2094,1.2094,1.2155,1.2155,1.2155,1.2155,1.2305,1.2372,-0.0,0.0,0.0,-0.0,-0.0,0.0,-0.0,-0.0,-0.0,-0.0,0.0,-0.0,-0.0,0.0477,0.1741,0.4457,0.4929,0.5972,0.8897,0.9218,0.9117,0.913,0.9008,0.892,0.892,0.8777,0.8682,0.8669,0.854,0.8465,0.8465,0.9815,1.0543,1.0742,1.2777,1.4167,1.4612,1.5592,1.6196,1.6421,1.6547,1.6647,1.6633,1.6967,1.7114,1.7141,1.7689,1.7943,1.7983,1.829,1.8424,1.8477,1.8744,1.8878,1.8958,1.9225,1.9345,1.9372,1.9372,1.9372,1.9412,1.9679,1.976,1.9867,2.0454,2.0641,2.0695,2.1015,2.1109,2.1109,2.1109,2.1109,2.1109,2.1109,2.1109,2.1189,2.1496,2.1777,2.2071,2.2365,2.2659,2.2859,2.2859,2.31,2.3394,2.3728,2.4022,2.4209,2.4235,2.409,2.4037,2.4301,2.2509,2.0542,1.8421,1.6599,1.4629,1.2656,1.2501,1.2501,1.2501,1.2244,1.2169,1.2305,1.2176,1.2169,1.2311,1.2311,1.2311,1.2311,1.244,1.2501,-0.0,-0.0,0.0,0.0,-0.0,-0.0,-0.0,-0.0,-0.0,-0.0,-0.0,-0.0,-0.0,0.42,0.779,0.7954,0.8078,0.8421,0.8895,0.887,0.8852,0.8974,0.8852,0.8757,0.8757,0.8621,0.8486,0.8377,0.8336,0.8316,0.8316,0.873,0.9511,1.0638,1.0968,1.1683,1.2946,1.4086,1.468,1.4534,1.5745,1.6246,1.6032,1.6567,1.6807,1.682,1.7181,1.7341,1.7368,1.7662,1.7916,1.8143,1.821,1.8517,1.8931,1.8998,1.9172,1.9372,1.9372,1.9372,1.9372,1.9439,1.9466,1.9573,2.0147,2.0334,2.0441,2.0962,2.1109,2.1109,2.1109,2.1109,2.1109,2.1109,2.1109,2.1189,2.1496,2.1777,2.2071,2.2365,2.2659,2.2859,2.2859,2.2926,2.314,2.3688,2.4022,2.4289,2.4516,2.3176,2.2138,2.2198,2.0391,1.8421,1.6294,1.5693,1.4629,1.2656,1.2501,1.2501,1.2501,1.244,1.242,1.2454,1.2427,1.242,1.2454,1.2454,1.2454,1.2461,1.2488,1.2501,-0.0,0.0,0.0,-0.0,0.0,-0.0,-0.0,-0.0,0.0869,0.3641,0.4456,0.4655,0.4339,0.5896,0.7643,0.8772,0.9013,0.9017,0.8864,0.8749,0.8743,0.8818,0.8696,0.8601,0.8601,0.8465,0.835,0.8275,0.8201,0.816,0.816,0.8228,0.8568,0.9376,0.9887,1.0436,1.1231,1.3193,1.4002,1.3872,1.539,1.5979,1.5845,1.6433,1.678,1.6941,1.7235,1.7355,1.7368,1.7515,1.7675,1.7836,1.7996,1.8237,1.8531,1.8824,1.9025,1.9172,1.9319,1.9372,1.9372,1.9372,1.9372,1.9479,2.0054,2.0227,2.0361,2.0949,2.1109,2.1109,2.1109,2.1109,2.1109,2.1109,2.1109,2.1149,2.1309,2.1683,2.2031,2.2178,2.2565,2.2859,2.2859,2.31,2.3407,2.3728,2.4142,2.4116,2.3075,2.2126,2.1291,2.0241,1.827,1.6751,1.554,1.4629,1.3568,1.2501,1.2501,1.2535,1.261,1.261,1.2576,1.2501,1.2501,1.2501,1.2501,1.2501,1.2535,1.261,1.261,1.2651,-0.0,0.0,-0.0,-0.0,-0.0,0.0,-0.0,0.084,0.2917,0.7847,0.931,0.9497,0.9106,0.6961,0.6042,0.8533,0.8931,0.8858,0.892,0.875,0.8642,0.8669,0.854,0.8445,0.8445,0.8336,0.8262,0.8235,0.8113,0.8038,0.8038,0.8038,0.8038,0.8038,0.9114,0.9608,0.9608,1.2037,1.3199,1.3199,1.4758,1.5629,1.5845,1.638,1.674,1.6941,1.7288,1.7435,1.7435,1.7542,1.7582,1.7609,1.7862,1.7996,1.8116,1.8651,1.8878,1.8971,1.9265,1.9372,1.9372,1.9372,1.9372,1.9479,2.0054,2.0227,2.0361,2.0949,2.1109,2.1109,2.1109,2.1109,2.1109,2.1109,2.0843,2.0589,2.0589,2.1175,2.1582,2.1582,2.2041,2.2448,2.25,2.2881,2.3351,2.3754,2.3879,2.3209,2.1384,2.0831,1.993,1.827,1.6142,1.4935,1.4935,1.3443,1.2542,1.2542,1.2569,1.2637,1.2766,1.2766,1.2712,1.2583,1.2583,1.2583,1.2583,1.2583,1.2644,1.2766,1.2766,1.284,0.0,0.0,-0.0,0.0,-0.0,-0.0,0.0,0.0,0.7965,0.0,0.8904,0.9099,0.9281,0.8864,0.8678,0.8863,0.895,0.8809,0.8764,0.8506,0.8377,0.8499,0.8384,0.8296,0.8296,0.8282,0.8214,0.8079,0.8052,0.8038,0.8038,0.8038,0.8038,0.8038,0.8137,0.8237,0.8237,0.9805,1.0485,1.0583,1.3006,1.4758,1.5845,1.6179,1.6206,1.6032,1.658,1.682,1.686,1.7368,1.7582,1.7582,1.7622,1.7809,1.809,1.8424,1.8704,1.8971,1.9265,1.9372,1.9372,1.9372,1.9372,1.9479,2.0054,2.0227,2.0361,2.0949,2.1109,2.1109,2.1109,2.1109,2.1109,2.1109,1.9941,1.8896,1.8896,1.9304,1.982,1.982,2.0107,2.0551,2.0778,2.0683,2.1315,2.3545,2.2363,2.1148,2.119,1.8281,1.6142,1.5998,1.4176,1.2958,1.2958,1.278,1.2698,1.2698,1.2827,1.2908,1.2929,1.2929,1.2922,1.2901,1.2901,1.2901,1.2901,1.2901,1.2908,1.2929,1.2929,1.2942,-0.0,-0.0,-0.0,0.0,0.2258,0.4482,0.4498,0.0,0.6616,0.8183,0.8665,0.8826,0.9063,0.9164,0.9104,0.8957,0.8803,0.8784,0.8716,0.8459,0.8296,0.8357,0.8228,0.814,0.814,0.814,0.8113,0.8045,0.8038,0.8038,0.8038,0.8038,0.8038,0.8038,0.8038,0.8038,0.8038,0.9312,1.0779,1.2231,1.3392,1.4555,1.5832,1.5965,1.6046,1.6099,1.6526,1.6807,1.6981,1.7235,1.7435,1.7582,1.7582,1.7662,1.7822,1.813,1.8424,1.8718,1.9011,1.9225,1.9372,1.9372,1.9372,1.9452,1.9867,1.9356,1.8815,1.9337,1.8788,1.8244,1.8244,1.8896,1.9674,1.9674,1.8244,1.7076,1.7076,1.8245,1.9504,1.9799,1.9898,1.9854,1.8965,1.8888,1.9305,2.0397,1.9981,1.9213,1.8111,1.6545,1.5089,1.3868,1.2958,1.2501,1.2501,1.2644,1.2732,1.2732,1.2874,1.2996,1.3078,1.3078,1.3119,1.3207,1.3044,1.2963,1.2963,1.2963,1.3003,1.3078,1.3078,1.3125,0.0,0.0,-0.0,-0.0,0.3953,0.7772,0.0,0.0,0.5669,0.0,0.8474,0.8653,0.8759,0.891,0.9008,0.8899,0.8723,0.8601,0.8601,0.8377,0.8214,0.8214,0.8113,0.8038,0.8038,0.8038,0.8038,0.8038,0.8038,0.8038,0.8038,0.8038,0.8038,0.8038,0.8038,0.8038,0.8038,0.9023,1.0681,1.2909,1.3199,1.4076,1.5343,1.5629,1.5952,1.6179,1.6473,1.6727,1.6941,1.719,1.7275,1.7475,1.7555,1.7582,1.7622,1.7929,1.7895,1.7961,1.8233,1.8288,1.8169,1.8169,1.8169,1.8219,1.8495,1.7901,1.7044,1.7417,1.6775,1.5913,1.5913,1.6818,1.7859,1.7859,1.656,1.5294,1.541,1.6747,1.8204,1.856,1.8648,1.8325,1.7038,1.703,1.7331,1.805,1.7931,1.7133,1.5616,1.5056,1.4176,1.2656,1.2501,1.2515,1.2556,1.2698,1.2807,1.284,1.299,1.3119,1.3227,1.3227,1.3288,1.3397,1.3186,1.3071,1.3071,1.3071,1.3125,1.3227,1.3227,1.3295,0.0,-0.0,0.0,-0.0,0.3598,0.0,0.0,0.0,0.7846,0.8276,0.8401,0.8513,0.852,0.8635,0.873,0.8723,0.8479,0.8296,0.8296,0.8153,0.8052,0.8052,0.8045,0.8038,0.8038,0.8038,0.8038,0.8038,0.8038,0.8038,0.8038,0.8038,0.8038,0.8038,0.8038,0.8038,0.8038,0.8038,0.8825,1.019,1.1463,1.2716,1.4064,1.5235,1.5832,1.5872,1.6166,1.6299,1.6366,1.6914,1.7257,1.7194,1.7475,1.7582,1.7622,1.7929,1.7224,1.6233,1.6492,1.5821,1.4837,1.4837,1.4837,1.4878,1.5225,1.533,1.5421,1.5772,1.587,1.5913,1.5913,1.5913,1.6043,1.6043,1.4744,1.355,1.4044,1.4138,1.4405,1.4638,1.4716,1.4828,1.5207,1.4984,1.5576,1.7734,1.646,1.5278,1.5127,1.3625,1.2656,1.2501,1.2501,1.2562,1.2705,1.2861,1.301,1.3139,1.3295,1.3383,1.339,1.339,1.339,1.3403,1.3383,1.3376,1.3376,1.3376,1.3383,1.339,1.339,1.3397,0.0,0.0,0.0,0.0318,0.3448,0.6913,0.6936,0.729,0.7624,0.7671,0.8004,0.8228,0.833,0.8465,0.8567,0.8567,0.8397,0.8269,0.8269,0.814,0.8038,0.8038,0.8038,0.8038,0.8038,0.8038,0.8038,0.8038,0.8038,0.8038,0.8038,0.8038,0.8038,0.8038,0.8038,0.8038,0.8038,0.8038,0.8627,1.0002,1.1268,1.2619,1.3968,1.5235,1.5832,1.5832,1.5939,1.6099,1.6286,1.65,1.6807,1.7154,1.7261,1.7422,1.7595,1.7702,1.7607,1.7224,1.647,1.6046,1.5693,1.4914,1.4599,1.4619,1.47,1.424,1.3653,1.3717,1.3217,1.2545,1.2545,1.3456,1.4232,1.4232,1.3805,1.3177,1.2338,1.3149,1.4128,1.4381,1.4534,1.4268,1.3341,1.3133,1.3529,1.4349,1.3931,1.3479,1.3479,1.2923,1.2501,1.2501,1.2589,1.2671,1.2725,1.2956,1.3119,1.3166,1.3315,1.3403,1.3403,1.3403,1.3403,1.3403,1.3403,1.3403,1.3403,1.3403,1.3403,1.3403,1.3403,1.3403,0.3774,0.0,0.0,0.0,0.0,0.6614,0.6518,0.0,0.7238,0.7285,0.7611,0.7936,0.8085,0.8235,0.835,0.8404,0.8289,0.8194,0.8194,0.8106,0.8038,0.8038,0.8038,0.8038,0.8038,0.8038,0.8038,0.8038,0.8038,0.0,0.8038,0.8038,0.8038,0.8038,0.8038,0.8038,0.8038,0.8038,0.8428,0.9312,1.1072,1.2328,1.3295,1.5045,1.5832,1.5832,1.5832,1.5939,1.6126,1.6233,1.6255,1.6279,1.6369,1.6365,1.618,1.6711,1.6687,1.6417,1.5546,1.5102,1.4761,1.3461,1.2928,1.2928,1.2928,1.2479,1.1894,1.1894,1.1386,1.0717,1.0717,1.1505,1.2413,1.2413,1.2594,1.2391,1.1413,1.2241,1.3255,1.3484,1.3625,1.3351,1.24,1.2223,1.2338,1.2481,1.2501,1.2501,1.2501,1.2501,1.2501,1.2501,1.2637,1.2752,1.28,1.303,1.3193,1.3247,1.3342,1.3403,1.3403,1.3403,1.3403,1.3403,1.3403,1.3403,1.3403,1.3403,1.3403,1.3403,1.3403,1.3451,0.0,0.0,0.0,0.0,0.0,0.0,0.6683,0.0,0.6946,0.7088,0.736,0.7624,0.7773,0.7923,0.8072,0.8235,0.8133,0.8038,0.8038,0.8038,0.8038,0.8038,0.8038,0.8038,0.8031,0.8031,0.8031,0.8031,0.8031,0.8031,0.8038,0.8038,0.8038,0.8038,0.8038,0.8038,0.8038,0.8038,0.8038,0.8038,1.0583,1.1853,1.195,1.4567,1.5724,1.5724,1.5724,1.5737,1.575,1.6139,1.5617,1.4558,1.4826,1.4334,1.347,1.4877,1.4603,1.3517,1.3615,1.2809,1.161,1.0251,0.9822,0.9822,0.9822,1.0039,1.0283,1.0283,1.0493,1.0717,1.0717,1.0717,1.0724,1.0724,1.0948,1.1165,1.1165,1.1287,1.1484,1.1775,1.1837,1.1938,1.2237,1.2291,1.2345,1.2481,1.2501,1.2501,1.2501,1.2501,1.2501,1.2501,1.2644,1.28,1.2949,1.3098,1.3241,1.339,1.3403,1.3403,1.3403,1.3403,1.3403,1.3403,1.3403,1.3403,1.3403,1.3403,1.3403,1.341,1.341,1.3566,0.5779,0.0,0.0,0.0,0.0,0.0,0.6003,0.624,0.6458,0.6498,0.6831,0.719,0.7448,0.7529,0.7638,0.7896,0.7997,0.8038,0.8038,0.8038,0.8038,0.8038,0.8038,0.7997,0.7882,0.7875,0.7875,0.0,0.7875,0.7923,0.8031,0.8038,0.8038,0.8038,0.8038,0.8038,0.8038,0.8038,0.8038,0.8038,0.9706,1.0974,1.195,1.3692,1.4459,1.4459,1.4459,1.3884,1.3113,1.5134,1.5919,1.5716,1.4963,1.4608,1.4534,1.4062,1.363,1.3197,1.2447,1.1914,1.1438,1.0208,0.9822,0.9822,0.9822,1.0039,1.0283,1.0283,1.0493,1.0717,1.0717,1.0717,1.0751,1.086,1.1029,1.1192,1.1301,1.145,1.1613,1.1796,1.2013,1.2189,1.2277,1.2372,1.2454,1.2494,1.2501,1.2501,1.2501,1.2501,1.2501,1.2501,1.2739,1.2915,1.2956,1.3193,1.3356,1.3397,1.3403,1.3403,1.3403,1.3403,1.3403,1.3403,1.3403,1.3403,1.3403,1.3403,1.3458,1.3566,1.3675,1.3763,0.5935,0.5915,0.5889,0.5947,0.0,0.0,0.5822,0.5996,0.6071,0.6071,0.6376,0.6722,0.6953,0.7102,0.7265,0.7495,0.7712,0.7896,0.8024,0.8038,0.8038,0.8038,0.8038,0.7977,0.7828,0.7814,0.7814,0.7814,0.7814,0.7875,0.8031,0.8038,0.8038,0.8038,0.8038,0.8038,0.8038,0.8038,0.8038,0.8038,0.9312,1.0386,1.117,1.2425,1.3102,1.3102,1.3102,1.2619,1.2047,1.3499,1.3998,1.3735,1.3057,1.2695,1.2452,1.2361,1.2455,1.2358,1.1776,1.1594,1.147,1.0222,0.9822,0.9822,0.9822,1.0039,1.0283,1.0283,1.0493,1.0717,1.0717,1.0717,1.0758,1.0914,1.1056,1.1206,1.1355,1.1558,1.1748,1.1898,1.2074,1.2237,1.2359,1.2447,1.2501,1.2501,1.2501,1.2501,1.2501,1.2501,1.2501,1.2501,1.2779,1.2963,1.2963,1.3234,1.3403,1.3403,1.3403,1.3403,1.3403,1.3403,1.3403,1.3403,1.3403,1.3403,1.3403,1.3403,1.3478,1.3634,1.3777,1.3871,0.6159,0.6017,0.5962,0.622,0.6091,0.0,0.601,0.5949,0.5861,0.5813,0.603,0.6281,0.6424,0.6668,0.6912,0.7088,0.7346,0.7638,0.797,0.8018,0.8018,0.8018,0.7997,0.7929,0.778,0.776,0.776,0.776,0.7794,0.7875,0.8031,0.8038,0.8038,0.8038,0.8038,0.8038,0.8038,0.8038,0.8038,0.8038,0.9213,0.9903,1.0002,1.117,1.1658,1.1658,1.1658,1.156,1.1463,1.1463,1.1079,1.0587,1.0422,0.9808,0.9216,1.0445,1.0998,1.106,1.1249,1.1438,1.139,1.013,0.9822,0.9822,0.9822,1.0039,1.029,1.0324,1.0521,1.0717,1.0717,1.0717,1.0765,1.0934,1.107,1.1212,1.1382,1.1619,1.185,1.2006,1.206,1.2169,1.2433,1.2488,1.2501,1.2501,1.2501,1.2501,1.2501,1.2501,1.2501,1.2501,1.2759,1.2935,1.2935,1.3207,1.3376,1.3376,1.339,1.3403,1.3403,1.3403,1.3403,1.3403,1.341,1.3417,1.3437,1.3431,1.3485,1.3607,1.3783,1.3933,0.6695,0.6641,0.6512,0.6444,0.6478,0.0,0.6105,0.6193,0.624,0.5874,0.5949,0.6125,0.6274,0.6349,0.6519,0.6905,0.7021,0.7244,0.778,0.7855,0.7855,0.7855,0.7753,0.7624,0.7468,0.7455,0.7455,0.7455,0.7678,0.7875,0.8031,0.8038,0.8038,0.8038,0.8038,0.8038,0.8038,0.8038,0.8038,0.8038,0.8237,0.8924,1.0002,1.0288,1.0386,1.0386,1.0386,0.9805,0.8726,0.8726,0.9838,1.1519,1.0732,1.0281,1.0063,0.9494,0.9468,0.9624,0.9781,0.9945,0.9982,0.9895,0.9822,0.9822,0.9822,1.0039,1.0331,1.0568,1.0677,1.0717,1.0717,1.0717,1.0785,1.1056,1.1145,1.124,1.1518,1.1619,1.1701,1.185,1.2074,1.2264,1.2325,1.2427,1.2501,1.2501,1.2501,1.2501,1.2501,1.2501,1.2501,1.2501,1.2664,1.2773,1.2773,1.3044,1.3214,1.3214,1.3336,1.3403,1.3403,1.3431,1.3444,1.3444,1.3471,1.3378,1.3323,1.3439,1.3539,1.3458,1.3844,1.3973,0.6993,0.6871,0.6715,0.679,0.6641,0.0,0.0,0.6193,0.6098,0.5942,0.5915,0.5942,0.6017,0.6091,0.622,0.6444,0.6607,0.6858,0.7305,0.7434,0.7475,0.7475,0.7414,0.7312,0.7163,0.7149,0.7183,0.7251,0.7536,0.774,0.7814,0.7821,0.7821,0.7821,0.7821,0.7855,0.7923,0.7923,0.7963,0.8038,0.8038,0.8336,0.9023,0.9023,0.9023,0.9023,0.9023,0.8627,0.8038,0.8038,0.8726,0.9937,0.9587,0.9459,0.9466,0.9071,0.9028,0.9171,0.9327,0.9483,0.9632,0.9774,0.9822,0.9822,0.9822,1.0039,1.0344,1.0636,1.0717,1.0717,1.0717,1.0717,1.0792,1.109,1.1165,1.1246,1.1552,1.1619,1.164,1.1708,1.1904,1.2088,1.2162,1.2298,1.2393,1.2393,1.2454,1.2501,1.2501,1.2501,1.2501,1.2501,1.2637,1.2732,1.2732,1.2935,1.3098,1.3166,1.3247,1.3329,1.3424,1.3444,1.2432,1.0065,1.008,1.0141,1.0083,1.0172,1.1222,1.3442,1.384,1.3948,0.7251,0.7115,0.6987,0.7109,0.6871,0.658,0.0,0.0,0.0,0.603,0.0,0.0,0.0,0.0,0.0,0.0,0.0,0.0,0.0,0.6878,0.0,0.7088,0.7021,0.6946,0.6892,0.6885,0.6946,0.7088,0.7333,0.7495,0.755,0.7556,0.757,0.7597,0.7597,0.7651,0.7767,0.7773,0.7848,0.7997,0.7997,0.8011,0.8038,0.8038,0.8038,0.8038,0.8038,0.8038,0.8038,0.8038,0.8038,0.8065,0.8336,0.8533,0.8682,0.8838,0.9008,0.9171,0.9327,0.9483,0.9632,0.9774,0.9822,0.9829,0.989,1.008,1.0344,1.0636,1.0717,1.0717,1.0717,1.0717,1.0792,1.109,1.1165,1.1246,1.1552,1.1619,1.1619,1.1619,1.1708,1.1837,1.1993,1.2142,1.2244,1.2244,1.2372,1.2461,1.2461,1.2481,1.2501,1.2501,1.261,1.2684,1.2684,1.2834,1.299,1.3132,1.3173,1.3275,1.3451,1.3464,1.092,0.5533,0.5376,0.5921,0.6676,0.6782,0.8565,1.2161,1.2336,1.2589,0.7665,0.7807,0.7767,0.7265,0.7489,0.7597,0.6681,0.0,0.6654,0.6132,0.0,0.6003,0.0,0.0,0.0,0.0,0.0,0.0,0.6146,0.6261,0.6512,0.6905,0.66,0.6458,0.6702,0.6729,0.679,0.6939,0.6987,0.7122,0.7387,0.74,0.7461,0.7597,0.7597,0.7604,0.7624,0.7624,0.7692,0.7834,0.7834,0.7909,0.8038,0.8038,0.8038,0.8038,0.8038,0.8038,0.8038,0.8038,0.8038,0.8058,0.8228,0.8384,0.8526,0.8682,0.8913,0.9171,0.9327,0.9483,0.9632,0.9774,0.9822,0.9869,1.0148,1.0249,1.0344,1.0636,1.0717,1.0717,1.0717,1.0717,1.0792,1.109,1.1165,1.1246,1.1552,1.1619,1.1619,1.1619,1.1633,1.1687,1.183,1.1986,1.2088,1.2088,1.2216,1.2318,1.2318,1.2427,1.2501,1.2501,1.2515,1.2528,1.2528,1.2698,1.2868,1.2856,1.318,1.3336,1.3325,1.3358,0.9445,0.101,0.068,0.2747,0.6779,0.6772,0.6942,0.7465,0.7461,0.7501,0.7889,0.7868,0.7746,0.757,0.7522,0.74,0.6959,0.6824,0.6722,0.6471,0.0,0.0,0.0,0.0,0.0,0.0,0.6084,0.6105,0.0,0.0,0.6037,0.6485,0.0,0.0,0.6308,0.639,0.6437,0.641,0.6647,0.681,0.6851,0.7021,0.7143,0.721,0.7292,0.7373,0.7468,0.7468,0.7584,0.7814,0.7814,0.7889,0.8038,0.8038,0.8038,0.8038,0.8038,0.8038,0.8038,0.8038,0.8038,0.8058,0.8208,0.8357,0.8513,0.8757,0.892,0.9062,0.93,0.9422,0.9517,0.9747,0.9822,0.9863,1.008,1.0209,1.0324,1.0527,1.0649,1.0717,1.0717,1.0717,1.0792,1.109,1.1165,1.1246,1.1552,1.1619,1.1619,1.1619,1.1619,1.164,1.1701,1.183,1.1932,1.1932,1.2135,1.2291,1.2291,1.2413,1.2508,1.2528,1.2528,1.2542,1.2562,1.2554,1.1568,0.923,1.177,1.3464,1.3365,0.8429,0.3871,-0.0,-0.0,0.0861,0.2784,0.2784,0.2799,0.2829,0.281,0.2816,0.8011,0.7916,0.778,0.776,0.7536,0.7278,0.7122,0.698,0.6851,0.6722,0.6675,0.0,0.0,0.0,0.6237,0.6125,0.0,0.6043,0.0,0.5881,0.0,0.0,0.0,0.0,0.0,0.6105,0.6132,0.5976,0.6268,0.6444,0.6417,0.6627,0.6803,0.6926,0.7027,0.7156,0.7305,0.7353,0.7502,0.7753,0.7794,0.7889,0.8038,0.8038,0.8038,0.8038,0.8038,0.8038,0.8038,0.8038,0.8038,0.8058,0.8255,0.8391,0.8513,0.8777,0.8927,0.9035,0.9293,0.9435,0.9537,0.9747,0.9822,0.9849,1.0005,1.0154,1.031,1.0453,1.0602,1.0724,1.0731,1.0731,1.0806,1.0973,1.1185,1.1267,1.1579,1.1647,1.1647,1.1647,1.1647,1.1653,1.1549,1.1775,1.183,1.183,1.2094,1.2291,1.2291,1.242,1.2528,1.2549,1.1448,1.0837,1.0733,1.1805,1.0302,0.488,0.7829,0.979,0.979,0.3546,-0.0,-0.0,-0.0,-0.0,-0.0,-0.0,-0.0,-0.0,-0.0,-0.0,0.8038,0.0,0.8147,0.7712,0.7699,0.7638,0.7068,0.7149,0.7224,0.679,0.6926,0.694,0.6652,0.6433,0.6335,0.6302,0.6284,0.0,0.0,0.6152,0.6193,0.6051,0.6173,0.0,0.0,0.5949,0.5976,0.582,0.582,0.5956,0.6254,0.6274,0.6478,0.6912,0.6932,0.7007,0.7143,0.7299,0.7448,0.7611,0.7746,0.7889,0.8038,0.8038,0.8038,0.8038,0.8038,0.8038,0.8038,0.8038,0.8038,0.8065,0.8364,0.8479,0.8499,0.8662,0.8899,0.9171,0.9327,0.9564,0.9808,0.9815,0.9822,0.9849,1.0005,1.0154,1.031,1.0453,1.0602,1.0724,1.0744,1.0751,1.0699,1.0744,1.0961,1.1328,1.1489,1.1556,1.1556,1.1556,1.1556,1.1603,1.1596,1.1724,1.183,1.183,1.2094,1.2291,1.2291,1.244,1.2549,1.2556,0.892,0.6441,0.6518,1.0242,0.9059,0.0661,0.0335,0.0505,0.0505,0.017,-0.0,-0.0,-0.0,-0.0,-0.0,-0.0,-0.0,-0.0,-0.0,-0.0,0.0,0.0,0.8208,0.7957,0.0,0.0,0.7312,0.738,0.7394,0.6946,0.7088,0.717,0.6686,0.6446,0.6381,0.651,0.6358,0.6205,0.0,0.6071,0.6091,0.6037,0.5989,0.5915,0.0,0.0,0.5562,0.5515,0.5603,0.5705,0.5813,0.6098,0.6376,0.662,0.6824,0.7048,0.7292,0.7346,0.7495,0.774,0.7787,0.7889,0.8038,0.8038,0.8038,0.8038,0.8038,0.8038,0.8038,0.8038,0.8038,0.8072,0.8364,0.8479,0.8526,0.8872,0.9069,0.9191,0.9442,0.9659,0.9822,0.9822,0.9822,0.9849,1.0005,1.0154,1.031,1.0453,1.0602,1.0724,1.0751,1.0751,1.0149,0.7779,0.727,0.7468,0.767,0.7711,0.7711,0.7711,0.7711,0.7747,0.7699,0.7752,0.8835,1.1709,1.2052,1.2179,1.2159,1.232,1.2434,1.2454,1.1179,0.8207,0.2551,0.3403,0.2964,0.0167,-0.0,-0.0,-0.0,-0.0,-0.0,-0.0,-0.0,-0.0,-0.0,-0.0,-0.0,-0.0,-0.0,-0.0,0.8255,0.8309,0.0,0.816,0.8045,0.0,0.7536,0.0,0.7631,0.7177,0.7278,0.7366,0.6893,0.6714,0.6576,0.6483,0.6377,0.6225,0.0,0.6112,0.6112,0.6112,0.6023,0.5922,0.5813,0.563,0.5474,0.5432,0.5454,0.5535,0.0,0.5915,0.6213,0.6464,0.6715,0.7014,0.7366,0.7428,0.7577,0.7814,0.7868,0.7943,0.8038,0.8038,0.8038,0.8038,0.8038,0.8038,0.8038,0.8038,0.8072,0.8147,0.8391,0.8513,0.8608,0.9008,0.9218,0.9354,0.9598,0.9747,0.9822,0.9822,0.9856,0.9924,1.0019,1.0195,1.0371,1.0466,1.0602,1.0731,1.0765,0.9813,0.7973,0.4303,0.3492,0.352,0.3758,0.378,0.3785,0.3802,0.3807,0.4123,0.5547,0.5751,0.669,0.958,1.125,1.1676,1.028,1.1498,1.2568,1.247,0.9893,0.5915,0.0485,-0.0,-0.0,-0.0,-0.0,-0.0,-0.0,-0.0,-0.0,-0.0,-0.0,-0.0,-0.0,-0.0,-0.0,-0.0,-0.0,-0.0]},{"header":{"parameterUnit":"m.s-1","parameterCategory":1,"la1":30.6,"la2":29.2853,"lo1":-89.7004,"lo2":-87.6739,"dy":0.0162,"dx":0.0183,"nx":112,"ny":82,"refTime":"2024-04-04T12:00:00:Z","depth":0,"parameterNumber":3,"parameterNumberName":"V-component_of_WINDS"},"data":[0.0,0.0,0.0,0.0,0.0,0.0,0.0,0.0,0.0,0.0,0.0,0.0,0.0,0.0,0.0,0.0,0.0,0.0,0.0,0.0,0.0,0.0,0.0,0.0,0.0,0.0,0.0,0.0,0.0,0.0,0.0,0.0,0.0,0.0,0.0,0.0,0.0,0.0,0.0,0.0,0.0,0.0,0.0,0.0,0.0,0.0,0.0,0.0,0.0,0.0,0.0,0.0,0.0,0.0,0.0,0.0,0.0,0.0,0.0,0.0,0.0,0.0,0.0,0.0,0.0,0.0,0.0,0.0,0.0,0.0,0.0,0.0,0.0,0.0,0.0,0.0,0.0,0.0,0.0,0.0,0.0,0.0,0.0,0.0,0.0,0.0,0.0,0.0,0.0,0.0,-2.5074,-2.7389,-3.2155,-3.4878,-3.4237,-3.4582,-3.2557,-2.7199,0.0,0.0,0.0,0.0,0.0,0.0,0.0,0.0,0.0,0.0,0.0,0.0,0.0,0.0,0.0,0.0,0.0,0.0,0.0,0.0,0.0,0.0,0.0,0.0,0.0,0.0,0.0,0.0,0.0,0.0,0.0,0.0,0.0,0.0,0.0,0.0,0.0,0.0,0.0,0.0,0.0,0.0,0.0,0.0,0.0,0.0,0.0,0.0,0.0,0.0,0.0,0.0,0.0,0.0,0.0,0.0,0.0,0.0,0.0,0.0,0.0,0.0,0.0,0.0,0.0,0.0,0.0,0.0,0.0,0.0,0.0,0.0,0.0,0.0,0.0,0.0,0.0,0.0,0.0,0.0,0.0,0.0,0.0,0.0,0.0,0.0,0.0,0.0,0.0,0.0,0.0,0.0,0.0,0.0,0.0,0.0,0.0,0.0,0.0,0.0,0.0,0.0,0.0,0.0,-2.5731,-2.9728,-3.2737,-3.4374,-3.4133,-3.2461,-3.0347,-2.7774,0.0,0.0,0.0,0.0,0.0,0.0,0.0,0.0,0.0,0.0,0.0,0.0,0.0,0.0,0.0,0.0,0.0,0.0,0.0,0.0,0.0,0.0,0.0,0.0,0.0,0.0,0.0,0.0,0.0,0.0,0.0,0.0,0.0,0.0,0.0,0.0,0.0,0.0,0.0,0.0,0.0,0.0,0.0,0.0,0.0,0.0,0.0,0.0,0.0,0.0,0.0,0.0,0.0,0.0,0.0,0.0,0.0,0.0,0.0,0.0,0.0,0.0,0.0,0.0,0.0,0.0,0.0,0.0,0.0,0.0,0.0,0.0,0.0,0.0,0.0,0.0,0.0,0.0,0.0,0.0,0.0,0.0,0.0,0.0,0.0,0.0,0.0,0.0,0.0,0.0,0.0,0.0,0.0,0.0,0.0,0.0,0.0,0.0,0.0,0.0,0.0,0.0,0.0,-2.6319,-2.8086,-3.1356,-3.3659,-3.4679,-3.395,-3.2335,-3.0144,-2.7368,-2.7165,0.0,0.0,0.0,0.0,0.0,0.0,0.0,0.0,0.0,0.0,0.0,0.0,0.0,0.0,0.0,0.0,0.0,0.0,0.0,0.0,0.0,0.0,0.0,0.0,0.0,0.0,0.0,0.0,0.0,0.0,0.0,0.0,0.0,0.0,0.0,0.0,0.0,0.0,0.0,0.0,0.0,0.0,0.0,0.0,0.0,0.0,0.0,0.0,0.0,0.0,0.0,0.0,0.0,0.0,0.0,0.0,0.0,0.0,0.0,0.0,0.0,0.0,0.0,0.0,0.0,0.0,0.0,0.0,0.0,0.0,0.0,0.0,0.0,0.0,0.0,0.0,0.0,0.0,0.0,0.0,0.0,0.0,0.0,0.0,0.0,0.0,0.0,0.0,0.0,0.0,0.0,0.0,0.0,0.0,0.0,0.0,0.0,0.0,0.0,0.0,0.0,0.0,-2.8374,-2.9879,-3.2082,-3.3822,-3.4366,-3.3273,-3.1844,-2.973,-2.686,-2.5676,0.0,0.0,0.0,0.0,0.0,0.0,0.0,0.0,0.0,0.0,0.0,0.0,0.0,0.0,0.0,0.0,0.0,0.0,0.0,0.0,0.0,0.0,0.0,0.0,0.0,0.0,0.0,0.0,0.0,0.0,0.0,0.0,0.0,0.0,0.0,0.0,0.0,0.0,0.0,0.0,0.0,0.0,0.0,0.0,0.0,0.0,0.0,0.0,0.0,0.0,0.0,0.0,0.0,0.0,0.0,0.0,0.0,0.0,0.0,0.0,0.0,0.0,0.0,0.0,0.0,0.0,0.0,0.0,0.0,0.0,0.0,0.0,0.0,0.0,0.0,0.0,0.0,0.0,0.0,0.0,0.0,0.0,0.0,0.0,0.0,0.0,0.0,0.0,0.0,0.0,0.0,0.0,0.0,0.0,0.0,0.0,0.0,0.0,0.0,0.0,0.0,0.0,-2.8044,-2.9659,-3.1311,-3.2276,-3.2456,-3.1635,-2.955,-2.7817,-2.6758,-2.4729,0.0,0.0,0.0,0.0,0.0,0.0,0.0,0.0,0.0,0.0,0.0,0.0,0.0,0.0,0.0,0.0,0.0,0.0,0.0,0.0,0.0,0.0,0.0,0.0,0.0,0.0,0.0,0.0,0.0,0.0,0.0,0.0,0.0,0.0,0.0,0.0,0.0,0.0,0.0,0.0,0.0,0.0,0.0,0.0,0.0,0.0,0.0,0.0,0.0,0.0,0.0,0.0,0.0,0.0,0.0,0.0,0.0,0.0,0.0,0.0,0.0,0.0,0.0,0.0,0.0,0.0,0.0,0.0,0.0,0.0,0.0,0.0,0.0,0.0,0.0,0.0,0.0,0.0,0.0,0.0,0.0,0.0,0.0,0.0,0.0,0.0,0.0,0.0,0.0,0.0,0.0,0.0,0.0,0.0,0.0,0.0,0.0,0.0,0.0,0.0,0.0,0.0,-2.7567,-2.8888,-3.0467,-3.1384,-3.1538,-3.0716,-2.9018,-2.7636,-2.6758,0.0,0.0,0.0,0.0,0.0,0.0,0.0,0.0,0.0,0.0,0.0,0.0,0.0,0.0,0.0,0.0,0.0,0.0,0.0,0.0,0.0,0.0,0.0,0.0,0.0,0.0,0.0,0.0,0.0,0.0,0.0,0.0,0.0,0.0,0.0,0.0,0.0,0.0,0.0,0.0,0.0,0.0,0.0,0.0,0.0,0.0,0.0,0.0,0.0,0.0,0.0,0.0,0.0,0.0,0.0,0.0,0.0,0.0,0.0,0.0,0.0,0.0,0.0,0.0,0.0,0.0,0.0,0.0,0.0,0.0,0.0,0.0,0.0,0.0,0.0,0.0,0.0,0.0,0.0,0.0,0.0,0.0,0.0,0.0,0.0,0.0,0.0,0.0,0.0,0.0,0.0,0.0,0.0,0.0,0.0,0.0,0.0,0.0,0.0,0.0,0.0,0.0,-2.6025,-2.7126,-2.8411,-3.0026,-3.0576,-3.0667,-3.029,-2.8293,-2.6964,-2.6724,0.0,0.0,0.0,0.0,0.0,0.0,0.0,0.0,0.0,0.0,0.0,0.0,0.0,0.0,0.0,0.0,0.0,0.0,0.0,0.0,0.0,0.0,0.0,0.0,0.0,0.0,0.0,0.0,0.0,0.0,0.0,0.0,0.0,0.0,0.0,0.0,0.0,0.0,0.0,0.0,0.0,0.0,0.0,0.0,0.0,0.0,0.0,0.0,0.0,0.0,0.0,0.0,0.0,0.0,0.0,0.0,0.0,0.0,0.0,0.0,0.0,0.0,0.0,0.0,0.0,0.0,0.0,0.0,0.0,0.0,0.0,0.0,0.0,0.0,0.0,0.0,0.0,0.0,0.0,0.0,0.0,0.0,0.0,0.0,0.0,0.0,0.0,0.0,0.0,0.0,0.0,0.0,0.0,0.0,0.0,0.0,0.0,0.0,0.0,0.0,0.0,0.0,-2.5311,-2.6796,-2.8411,-3.0026,-2.9839,-2.9808,-3.0249,-2.711,-2.5592,0.0,0.0,0.0,0.0,0.0,0.0,0.0,0.0,0.0,0.0,0.0,0.0,0.0,0.0,0.0,0.0,0.0,0.0,0.0,0.0,0.0,0.0,0.0,0.0,0.0,0.0,0.0,0.0,0.0,0.0,0.0,0.0,0.0,0.0,0.0,0.0,0.0,0.0,0.0,0.0,0.0,0.0,0.0,0.0,0.0,0.0,0.0,0.0,0.0,0.0,0.0,0.0,0.0,0.0,0.0,0.0,0.0,0.0,0.0,0.0,0.0,0.0,0.0,0.0,0.0,0.0,0.0,0.0,0.0,0.0,0.0,0.0,0.0,0.0,0.0,0.0,0.0,0.0,0.0,0.0,0.0,0.0,0.0,0.0,0.0,0.0,0.0,0.0,0.0,0.0,0.0,0.0,0.0,0.0,0.0,0.0,0.0,0.0,0.0,0.0,0.0,0.0,0.0,-2.6833,-2.7016,-2.7787,-2.9989,-2.9813,-2.9538,-2.9438,-2.7256,-2.6354,-2.7402,0.0,0.0,0.0,0.0,0.0,0.0,0.0,0.0,0.0,0.0,0.0,0.0,0.0,0.0,0.0,0.0,0.0,0.0,0.0,0.0,0.0,0.0,0.0,0.0,0.0,0.0,0.0,0.0,0.0,0.0,0.0,0.0,0.0,0.0,0.0,0.0,0.0,0.0,0.0,0.0,0.0,0.0,0.0,0.0,0.0,0.0,0.0,0.0,0.0,0.0,0.0,0.0,0.0,0.0,0.0,0.0,0.0,0.0,0.0,0.0,0.0,0.0,0.0,0.0,0.0,0.0,0.0,0.0,0.0,0.0,0.0,0.0,0.0,0.0,0.0,0.0,0.0,0.0,0.0,0.0,0.0,0.0,0.0,0.0,0.0,0.0,0.0,0.0,0.0,0.0,0.0,0.0,0.0,0.0,0.0,0.0,0.0,0.0,0.0,0.0,0.0,0.0,-2.709,-2.7163,-2.7897,-2.9989,-2.9709,-2.9433,-2.958,-2.7387,-2.6341,-2.73,0.0,0.0,0.0,0.0,0.0,0.0,0.0,0.0,0.0,0.0,0.0,0.0,0.0,0.0,0.0,0.0,0.0,0.0,0.0,0.0,0.0,0.0,0.0,0.0,0.0,0.0,0.0,0.0,0.0,0.0,0.0,0.0,0.0,0.0,0.0,0.0,0.0,0.0,0.0,0.0,0.0,0.0,0.0,0.0,0.0,0.0,0.0,0.0,0.0,0.0,0.0,0.0,0.0,0.0,0.0,0.0,0.0,0.0,0.0,0.0,0.0,0.0,0.0,0.0,0.0,0.0,0.0,0.0,0.0,0.0,0.0,0.0,0.0,0.0,0.0,0.0,0.0,0.0,0.0,0.0,0.0,0.0,0.0,0.0,0.0,0.0,0.0,0.0,0.0,0.0,0.0,0.0,0.0,0.0,0.0,0.0,0.0,0.0,0.0,0.0,0.0,0.0,-2.6722,-2.7361,-2.8366,-3.0088,-2.9637,-2.9526,-3.0264,-2.7555,-2.6116,-2.686,0.0,0.0,0.0,0.0,0.0,0.0,0.0,0.0,0.0,0.0,0.0,0.0,0.0,0.0,0.0,0.0,0.0,0.0,0.0,0.0,0.0,0.0,0.0,0.0,0.0,0.0,0.0,0.0,0.0,0.0,0.0,0.0,0.0,0.0,0.0,0.0,0.0,0.0,0.0,0.0,0.0,0.0,0.0,0.0,0.0,0.0,0.0,0.0,0.0,0.0,0.0,0.0,0.0,0.0,0.0,0.0,0.0,0.0,0.0,0.0,-2.549,0.0,0.0,0.0,0.0,0.0,0.0,0.0,0.0,0.0,0.0,0.0,0.0,0.0,0.0,0.0,0.0,0.0,0.0,0.0,0.0,0.0,0.0,0.0,0.0,0.0,0.0,0.0,0.0,0.0,0.0,0.0,0.0,0.0,0.0,0.0,0.0,0.0,0.0,0.0,0.0,0.0,-2.8227,-2.7755,-2.8128,-3.0432,-3.0451,-3.0385,-3.0593,-2.8596,-2.7672,-2.845,-2.7368,0.0,0.0,0.0,0.0,0.0,0.0,0.0,0.0,0.0,0.0,0.0,0.0,0.0,0.0,0.0,0.0,0.0,0.0,0.0,0.0,0.0,0.0,0.0,0.0,0.0,0.0,0.0,0.0,0.0,0.0,0.0,0.0,0.0,0.0,0.0,0.0,0.0,0.0,0.0,0.0,0.0,0.0,0.0,0.0,0.0,0.0,0.0,0.0,0.0,0.0,0.0,0.0,0.0,0.0,0.0,0.0,0.0,0.0,0.0,0.0,-2.6284,0.0,0.0,0.0,0.0,0.0,0.0,0.0,0.0,0.0,0.0,0.0,0.0,0.0,0.0,0.0,0.0,0.0,0.0,0.0,0.0,0.0,0.0,0.0,0.0,0.0,0.0,0.0,0.0,0.0,0.0,0.0,0.0,0.0,0.0,0.0,0.0,0.0,0.0,0.0,0.0,-2.9041,-2.837,-2.8416,-3.032,-3.0267,-3.0144,-3.0179,-2.8698,-2.801,-2.8416,-2.801,0.0,0.0,0.0,0.0,0.0,0.0,0.0,0.0,0.0,0.0,0.0,0.0,0.0,0.0,0.0,0.0,0.0,0.0,0.0,0.0,0.0,0.0,0.0,0.0,0.0,0.0,0.0,0.0,0.0,0.0,0.0,0.0,0.0,0.0,0.0,0.0,0.0,0.0,0.0,0.0,0.0,0.0,0.0,0.0,0.0,0.0,0.0,0.0,0.0,0.0,0.0,0.0,0.0,-3.2117,-3.2982,-3.3807,-3.3954,-3.366,-3.2826,-2.9512,-2.7824,-2.7589,-2.9524,0.0,0.0,0.0,0.0,0.0,0.0,0.0,0.0,0.0,0.0,0.0,0.0,0.0,0.0,0.0,0.0,0.0,0.0,0.0,0.0,0.0,0.0,0.0,0.0,-2.8161,-2.7757,-2.5237,0.0,0.0,0.0,0.0,0.0,0.0,0.0,0.0,0.0,0.0,0.0,-2.917,-2.8748,-2.8806,-2.9964,-2.9965,-2.9868,-2.9868,-2.8868,-2.8178,-2.8178,-2.8687,-2.913,0.0,0.0,0.0,0.0,0.0,0.0,0.0,0.0,0.0,0.0,0.0,0.0,0.0,0.0,0.0,0.0,0.0,0.0,0.0,0.0,0.0,0.0,0.0,0.0,0.0,0.0,0.0,0.0,0.0,0.0,0.0,0.0,-2.5008,-2.6117,0.0,0.0,0.0,0.0,0.0,0.0,0.0,0.0,0.0,0.0,0.0,0.0,0.0,-3.1362,-3.4115,-3.4127,-3.4191,-3.4421,-3.5294,-3.5009,-3.3807,-3.4541,-3.477,-3.4623,-3.411,0.0,-3.0687,-2.9632,0.0,0.0,0.0,0.0,0.0,0.0,0.0,0.0,0.0,0.0,0.0,0.0,0.0,0.0,0.0,0.0,0.0,0.0,0.0,0.0,0.0,0.0,-2.8432,-2.8618,-2.8798,-2.8867,0.0,-2.834,-2.7612,-2.6219,-2.6352,0.0,0.0,0.0,0.0,0.0,0.0,0.0,-2.8144,-2.8237,-2.8652,-2.9485,-3.0446,-3.1002,-3.1002,-3.0247,-2.9803,-2.9803,-2.9296,-2.9567,-3.0852,-3.0378,0.0,0.0,0.0,0.0,0.0,0.0,0.0,0.0,0.0,0.0,0.0,0.0,0.0,0.0,0.0,0.0,0.0,0.0,0.0,0.0,0.0,0.0,0.0,0.0,0.0,0.0,0.0,0.0,0.0,-2.6258,-2.7442,-2.7316,-2.8879,-3.006,0.0,0.0,0.0,0.0,0.0,0.0,0.0,0.0,0.0,-3.1964,-3.3118,-3.4223,-3.5172,-3.5993,-3.6633,-3.711,-3.7918,-3.8175,-3.7918,-3.8285,-3.8401,-3.8401,-3.8401,-3.7588,-3.6009,-3.3954,-3.155,-2.9414,0.0,0.0,0.0,0.0,-3.3377,-3.2969,-3.2371,-3.2101,-3.1944,-3.1719,0.0,0.0,0.0,0.0,0.0,0.0,0.0,0.0,0.0,0.0,-3.2152,-3.1738,-3.2192,-3.2754,-3.2883,-3.1969,-3.0506,0.0,-2.8414,-2.9082,-2.9585,0.0,0.0,0.0,0.0,-2.8763,-2.8864,-2.8928,-2.9041,-2.9212,-3.0051,-3.0581,-3.0581,-3.0311,-3.0108,-3.0108,-2.9803,-2.9905,-3.0548,-3.1461,-3.2036,0.0,0.0,0.0,0.0,0.0,0.0,0.0,0.0,0.0,0.0,0.0,0.0,0.0,0.0,0.0,0.0,0.0,0.0,0.0,0.0,0.0,0.0,0.0,0.0,0.0,0.0,0.0,0.0,-2.7783,-2.9028,-2.82,-3.0051,-3.1384,0.0,0.0,0.0,0.0,0.0,0.0,-3.1612,-3.3599,-3.4744,-3.477,-3.6148,-3.689,-3.6853,-3.8102,-3.9129,-3.9937,-4.0524,-4.1111,-4.1699,-4.1699,-4.1699,-4.1699,-4.1699,-4.1258,-4.0304,-3.7698,-3.4089,-3.055,-3.3332,-3.4706,-3.5128,-3.5781,-3.5854,-3.5549,-3.5006,-3.4806,-3.4641,-3.3761,-3.2574,-3.1458,-3.1532,0.0,0.0,0.0,0.0,-3.2161,-3.1253,-3.3023,-3.4919,-3.4418,-3.5256,-3.6163,-3.596,-3.5047,-3.3322,0.0,-3.0029,-3.0487,-3.0594,0.0,0.0,0.0,0.0,-2.9464,-2.9453,-2.9558,-2.9555,-2.9299,-2.9939,-3.048,-3.0649,-3.0649,-3.0751,-3.0954,-3.0784,-3.0751,-3.0954,-3.2341,-3.278,-3.2036,0.0,0.0,0.0,0.0,0.0,0.0,0.0,0.0,0.0,0.0,0.0,0.0,0.0,0.0,0.0,0.0,0.0,0.0,0.0,0.0,0.0,0.0,0.0,0.0,0.0,0.0,0.0,0.0,0.0,-2.8137,-3.0061,0.0,0.0,0.0,0.0,-3.3548,-3.4303,-3.476,-3.477,-3.5679,-3.6536,-3.7304,-3.8155,-3.9675,-4.1912,-4.2026,-4.247,-4.324,-4.3277,-4.3314,-4.3387,-4.3387,-4.3387,-4.3387,-4.3387,-4.291,-4.1919,-3.8726,-3.7698,-3.7998,-3.6707,-3.711,-3.8358,-3.7661,-3.7397,-3.7257,-3.6457,-3.6201,-3.6252,-3.6407,-3.5828,-3.4679,-3.2787,-3.2727,0.0,0.0,-3.25,-3.2542,-3.3549,-3.4172,-3.4718,-3.5351,-3.6671,-3.7584,-3.6874,-3.6671,-3.552,0.0,-3.0548,-3.0262,-3.0629,0.0,-3.0664,-3.0768,-3.0699,-3.0214,-2.9168,-2.9638,-3.004,-3.004,-3.0717,-3.1427,-3.2104,-3.2171,-3.2476,-3.3186,-3.2577,-3.2476,-3.322,-3.2645,-3.2949,-3.4303,-3.4404,0.0,0.0,0.0,0.0,0.0,0.0,0.0,0.0,0.0,0.0,0.0,0.0,0.0,0.0,0.0,0.0,0.0,0.0,0.0,0.0,0.0,0.0,0.0,0.0,0.0,0.0,0.0,0.0,-3.1922,-3.3976,0.0,-3.5661,-3.5235,-3.5314,-3.6133,-3.5974,-3.6526,-3.8077,-3.8909,-4.0215,-4.2083,-4.2426,-4.2981,-4.3821,-4.434,-4.4488,-4.4268,-4.4782,-4.4782,-4.4305,-4.4819,-4.4745,-4.4305,-4.4819,-4.4892,-4.4488,-4.2837,-4.1075,-3.9423,-3.8836,-3.8652,-3.8726,-3.8946,-3.9019,-3.9025,-3.8919,-3.8855,-3.8679,-3.7469,-3.686,-3.6204,-3.4198,-3.4416,-3.5201,-3.4233,-3.4533,-3.5294,-3.5708,-3.6605,-3.7449,-3.7719,-3.8565,-3.9242,-3.8971,-3.8531,-3.7686,-3.5859,-3.41,-3.2998,-3.3128,-3.2349,-3.1871,-3.2383,-3.1632,-3.0708,-2.9841,-3.0345,-3.0818,-3.0818,-3.1461,-3.2205,-3.2949,-3.3017,-3.3119,-3.3389,-3.3152,-3.3119,-3.3389,-3.3592,-3.4167,-3.5216,-3.5216,-3.5588,0.0,0.0,0.0,0.0,0.0,0.0,0.0,0.0,0.0,0.0,0.0,0.0,0.0,0.0,0.0,0.0,0.0,0.0,0.0,0.0,0.0,0.0,0.0,0.0,0.0,0.0,-3.3769,-3.4797,-3.6915,-3.8412,-3.8654,-3.7997,-3.7963,-3.904,-3.8894,-3.9656,-4.1782,-4.2433,-4.3456,-4.507,-4.5075,-4.5076,-4.511,-4.5626,-4.5626,-4.5112,-4.5663,-4.5626,-4.5112,-4.5663,-4.5626,-4.5149,-4.5663,-4.5883,-4.5847,-4.5039,-4.3608,-4.1882,-4.1625,-4.1038,-4.0414,-4.1222,-4.1332,-4.1152,-4.132,-4.1214,-4.0744,-3.9229,-3.8544,-3.8041,-3.6559,-3.6751,-3.733,-3.6217,-3.6659,-3.7456,-3.7543,-3.8261,-3.9005,-3.9005,-3.9546,-4.002,-3.9749,-3.9343,-3.887,-3.8362,-3.6637,-3.5115,-3.4573,-3.366,-3.3186,-3.3694,-3.2747,-3.1867,-3.163,-3.1799,-3.1935,-3.1935,-3.2374,-3.2949,-3.3694,-3.3998,-3.4167,-3.4167,-3.4167,-3.4167,-3.4167,-3.4607,-3.525,-3.5994,-3.5994,-3.6637,-3.7889,0.0,0.0,0.0,0.0,0.0,0.0,0.0,0.0,0.0,0.0,0.0,0.0,0.0,0.0,0.0,0.0,0.0,0.0,0.0,0.0,0.0,0.0,0.0,-3.0714,-3.4128,-3.6578,-3.6424,-3.8567,-3.9704,-3.8961,-3.9623,-4.072,-4.2298,-4.3141,-4.4236,-4.5846,-4.592,-4.592,-4.5992,-4.5956,-4.592,-4.5957,-4.5957,-4.5957,-4.5957,-4.5957,-4.5957,-4.5957,-4.5957,-4.5957,-4.5957,-4.5957,-4.5957,-4.592,-4.5112,-4.5223,-4.5847,-4.5039,-4.4232,-4.3644,-4.4415,-4.4195,-4.3497,-4.3497,-4.2983,-4.2255,-4.1724,-4.1035,-4.0311,-3.9857,-3.97,-3.958,-3.8963,-3.879,-3.8866,-3.8996,-3.9054,-3.9088,-3.9039,-3.958,-3.9884,-3.9174,-3.9039,-3.9039,-3.9005,-3.7821,-3.6366,-3.4844,-3.4573,-3.4539,-3.4506,-3.3897,0.0,-3.437,-3.3829,-3.3423,-3.3457,-3.3491,-3.3795,-3.4539,-3.525,-3.5656,-3.5656,-3.5622,-3.5622,-3.5622,-3.5656,-3.6028,-3.684,-3.6874,-3.7246,-3.799,0.0,0.0,0.0,0.0,0.0,0.0,0.0,0.0,0.0,0.0,0.0,0.0,0.0,0.0,0.0,0.0,0.0,0.0,0.0,0.0,0.0,-3.3549,-3.3868,-3.3297,-3.5547,-3.7661,-3.8796,-4.104,-4.2627,-4.3028,-4.3791,-4.4418,-4.4887,-4.5109,-4.5697,-4.6724,-4.6212,-4.6434,-4.7609,-4.7058,-4.6764,-4.6764,-4.7352,-4.7352,-4.6801,-4.7352,-4.7352,-4.6801,-4.7388,-4.7315,-4.6801,-4.7388,-4.7645,-4.7572,-4.6764,-4.6581,-4.6654,-4.5259,-4.4929,-4.5186,-4.4856,-4.4195,-4.3497,-4.3497,-4.3351,-4.3167,-4.2992,-4.2774,-4.2521,-4.2006,-4.1851,-4.1697,-4.1131,-4.0961,-4.0867,-4.0481,-4.041,-4.0268,-3.9898,-3.9918,-4.002,-3.9817,-3.9783,-3.9614,-3.9106,-3.8667,-3.7922,-3.64,-3.6163,-3.5791,-3.4675,-3.4336,0.0,-3.3761,-3.3525,-3.3829,-3.4912,-3.5013,-3.5554,-3.684,-3.6671,-3.6468,-3.6468,-3.5926,-3.5622,-3.5622,-3.6163,-3.7077,-3.8362,-3.8903,-3.9276,0.0,0.0,0.0,0.0,0.0,0.0,0.0,0.0,0.0,0.0,0.0,0.0,0.0,0.0,0.0,0.0,0.0,0.0,0.0,0.0,0.0,0.0,-3.6168,-3.7359,-3.7562,-3.8398,-3.9743,-4.1667,-4.3144,-4.4297,-4.5149,-4.5625,-4.6061,-4.6391,-4.6687,-4.7276,-4.8119,-4.8011,-4.8379,-4.9334,-4.8563,-4.8159,-4.8161,-4.86,-4.86,-4.8159,-4.8967,-4.9114,-4.8673,-4.915,-4.893,-4.8159,-4.8636,-4.8636,-4.8233,-4.7462,-4.7315,0.0,0.0,0.0,0.0,0.0,-4.3901,-4.3497,-4.3497,-4.3497,-4.3497,-4.3497,-4.3497,-4.3463,-4.3142,-4.3032,-4.2921,-4.2342,-4.218,-4.2021,-4.1429,-4.107,-4.0827,-4.048,-4.0254,-4.0087,-4.0087,-4.0087,-3.9952,-3.9512,-3.9445,0.0,-3.7922,-3.7449,-3.7043,-3.6468,-3.6129,-3.5893,-3.5757,-3.5487,-3.5622,-3.6502,-3.6569,-3.6941,-3.7821,-3.7787,0.0,0.0,0.0,-3.7043,-3.7043,-3.7449,0.0,0.0,0.0,-4.0087,-4.0087,0.0,0.0,0.0,-3.9225,-3.9239,0.0,0.0,0.0,0.0,0.0,0.0,0.0,0.0,0.0,0.0,0.0,0.0,0.0,0.0,0.0,0.0,-3.8925,-4.0809,-4.2595,-4.2132,-4.2426,-4.4572,-4.4949,-4.5257,-4.5951,-4.6134,-4.6501,-4.7311,-4.8051,-4.8825,-4.9703,0.0,0.0,0.0,0.0,-4.9738,-4.9738,-4.9738,-4.9738,-4.9738,-5.0472,-5.0802,-5.0802,-5.0802,-5.0362,-4.9591,-4.9591,-4.9114,-4.8233,-4.7535,-4.7682,-4.8233,-4.7535,-4.6324,-4.4892,-4.4085,-4.3718,-4.3608,-4.3534,0.0,0.0,-4.3497,-4.3497,-4.3497,-4.3497,-4.3497,-4.3391,-4.2921,-4.277,-4.2655,-4.2062,-4.1473,-4.107,-4.0932,-4.0528,-4.0154,-4.0138,-4.0087,-4.0087,-4.0087,-4.0087,-3.9884,-3.9242,-3.8497,-3.8227,-3.8802,-3.8328,-3.8159,-3.8802,-3.8294,-3.7922,-3.8024,0.0,0.0,-3.8159,-3.8667,-3.8734,-3.8058,-3.8565,-3.8903,-3.9005,-3.9005,-3.9343,-4.0054,-4.0087,-4.0087,-4.0087,-4.0087,-4.0087,-4.0087,-4.0087,-3.9749,0.0,0.0,0.0,0.0,0.0,0.0,0.0,0.0,0.0,0.0,0.0,0.0,0.0,0.0,0.0,-4.0917,-4.1666,-4.2857,-4.5735,-4.548,-4.5148,-4.5614,-4.6237,-4.6688,-4.6834,-4.7457,-4.8157,-4.9044,-4.9265,-4.9703,-5.0508,-5.0692,-5.0802,-5.0794,-5.0652,-5.0582,-5.0582,-5.0582,-5.0582,-5.0582,0.0,0.0,-5.0802,-5.0802,-5.0362,-4.9591,-4.9591,-4.9114,-4.8306,-4.8122,-4.8159,-4.8269,-4.8122,-4.7498,-4.6544,-4.5736,-4.5039,-4.4378,-4.3718,-4.3497,-4.3497,-4.3497,-4.3497,-4.3497,-4.3497,-4.3497,0.0,-4.3356,-4.3321,-4.3214,-4.2693,-4.2422,-4.2139,-4.1115,-4.0827,-4.0625,-4.0204,-4.0087,-4.0087,-4.0087,-4.0087,-4.002,-3.9884,-3.9276,-3.8633,-3.8193,-3.799,-3.7956,-3.8091,-3.799,-3.8125,-3.8734,-3.8768,-3.9039,-3.9614,-3.9242,-3.8937,-3.8802,-3.8362,-3.8396,-3.8971,-3.9005,-3.9343,-4.0054,-4.0087,-4.0087,-4.0087,-4.0087,-4.0087,-4.0087,-4.0087,-3.9986,0.0,0.0,0.0,0.0,0.0,0.0,0.0,0.0,0.0,0.0,0.0,-3.6598,-3.752,0.0,-4.0805,-4.3318,-4.4448,-4.5512,-4.6912,-4.7095,-4.7095,-4.7095,-4.7095,-4.7242,-4.7681,-4.8453,-4.9154,-4.9556,-5.0368,-5.0952,-5.1389,-5.1389,-5.161,-5.2009,-5.1202,-5.0986,-5.1389,-5.1389,-5.1389,-5.1389,-5.183,-5.2013,-5.2013,-5.2013,-5.1573,-5.0802,-5.0802,-5.0325,-4.9517,-4.9114,-4.893,-4.8893,-4.8489,-4.7829,-4.7021,-4.6214,-4.5406,-4.4635,-4.4232,-4.3828,-4.3497,-4.3497,-4.3497,-4.3497,-4.3497,-4.3497,-4.3497,-4.3497,-4.3497,-4.3463,-4.3178,-4.2884,-4.2462,-4.1595,-4.1115,-4.0733,-4.0204,-4.0087,-4.0087,-4.0087,-4.0087,-4.0087,-4.0087,-3.9783,-3.9411,-3.9039,-3.9005,-3.9005,-3.9005,-3.9005,-3.914,-3.9512,-3.9546,-3.9681,-4.0054,-3.9749,-3.9546,-3.9546,-3.9174,-3.9174,-3.9512,-3.9546,-3.9715,-4.0054,-4.0087,-4.0087,-4.0087,-4.046,-4.0629,-4.0663,-4.1001,-4.0798,0.0,0.0,0.0,0.0,0.0,0.0,0.0,0.0,-3.6458,-3.6419,-3.826,-4.0169,-4.1131,-4.2715,-4.4169,-4.5134,-4.6652,-4.7611,-4.7352,-4.7865,-4.8306,-4.8306,-4.7756,-4.7609,-4.8233,-4.8934,-4.9412,-4.9591,-5.0956,-5.1765,-5.1797,-5.1944,-5.2238,-5.2747,-5.1646,-5.1353,-5.1977,-5.216,-5.2234,-5.2234,-5.2894,-5.3225,-5.3225,-5.3225,-5.2747,-5.1977,-5.183,-5.1389,-5.0765,-5.0105,-4.9738,-4.9517,-4.882,-4.8049,-4.7241,-4.6434,-4.5736,-4.5149,-4.5002,-4.4415,-4.3718,-4.3718,-4.3608,-4.3497,-4.3497,-4.3497,-4.3497,-4.3497,-4.3608,-4.3718,-4.3718,-4.3543,-4.3201,-4.2567,-4.2062,-4.1522,-4.0861,-4.0746,-4.0662,-4.0375,-4.029,-4.0257,-4.0087,-4.0087,-4.0087,-4.0087,-4.0087,-4.0087,-4.0087,-4.0087,-4.0087,-4.0087,-4.0087,-4.0087,-4.0087,-4.0087,-4.0087,-4.0087,-4.0087,-4.0087,-4.0087,-4.0087,-4.0087,-4.0087,-4.0223,-4.029,-4.029,-4.1035,-4.1407,-4.1441,-4.2016,-4.1644,-3.3672,-3.2628,-3.2762,-3.5628,-3.5285,-3.5193,0.0,0.0,-3.989,-3.972,-4.1625,-4.3311,-4.3216,-4.4532,-4.6005,-4.7159,-4.7568,-4.7794,-4.8122,-4.8233,-4.8306,-4.8306,-4.8233,-4.8196,-4.8306,-4.8379,-4.8748,-4.9524,-5.0401,-5.0952,-5.0919,-5.1614,-5.172,-5.1096,-5.1573,-5.1903,-5.1977,-5.2711,-5.3078,-5.3078,-5.3188,-5.3225,-5.3225,-5.3225,-5.2747,-5.194,-5.1242,-5.0875,-5.0802,-5.0692,-5.0251,-4.9591,-4.9481,-4.893,-4.8086,-4.7278,-4.6911,-4.6764,-4.603,-4.5259,-4.4562,-4.4562,-4.4085,-4.3497,-4.3497,-4.3497,-4.3497,-4.3497,-4.4011,-4.4562,-4.4562,-4.504,-4.5406,-4.4831,-4.4669,-4.43,-4.3158,-4.295,-4.2546,-4.1307,-4.1068,-4.0865,-4.0189,-4.0087,-4.0087,-4.0087,-4.0087,-4.0087,-4.0087,-4.0087,-4.0087,-4.0087,-4.0087,-4.0087,-4.0087,-4.0087,-4.0087,-4.0087,-4.0087,-4.0087,-4.0087,-4.0087,-4.0087,-4.0087,-4.073,-4.1068,-4.1068,-4.1813,-4.2185,-4.2185,-4.2252,-4.2185,-3.5384,-3.4903,0.0,0.0,-3.79,-3.9256,-4.0875,-4.2381,-4.3453,-4.3368,-4.494,-4.6378,-4.657,-4.7737,-4.8891,0.0,-5.0101,-5.0359,-4.9828,-4.9145,-4.8526,-4.8007,-4.7527,-4.7497,-4.8234,-4.8489,-4.8895,-4.9559,-5.0328,-5.0805,-5.0805,-5.0655,-5.0655,-5.0802,-5.1132,-5.1536,-5.1977,-5.2821,-5.3225,-5.3225,-5.3225,-5.3225,-5.3225,-5.3225,-5.3041,-5.2674,-5.2344,-5.2197,-5.216,-5.1683,-5.1279,-5.0949,-5.0472,-4.9774,-4.893,-4.8122,-4.7498,-4.7058,-4.6728,-4.6067,-4.5333,-4.4856,-4.4782,-4.4819,-4.4342,-4.4525,-4.4892,-4.4892,-4.5149,-4.5406,-4.5406,-4.5663,-4.5773,-4.524,-4.512,-4.4755,-4.3545,-4.3291,-4.3024,-4.2038,-4.1508,-4.1238,-4.1339,-4.1001,-4.0865,-4.1305,-4.0629,-4.0087,-4.0087,-4.0087,-4.0087,-4.0087,-4.0087,-4.0087,-4.0087,-4.0087,-4.0087,-4.0087,-4.0087,-4.0087,-4.0087,-4.0087,-4.0087,-4.0087,-4.0832,-4.1204,-4.1204,-4.2388,-4.2963,-4.2963,-4.3403,-4.3639,-3.6601,0.0,0.0,-3.8428,-4.0586,-4.2526,-4.3081,-4.4996,-4.6646,-4.6647,-4.7626,-4.8548,-4.8894,-4.974,-5.0385,-5.0583,-5.1523,-5.1916,-5.0921,-4.9859,-4.8808,-4.7953,-4.6956,-4.6792,-4.7863,-4.8347,-4.879,-4.9226,-4.9997,-5.0365,-5.0105,-4.9774,-4.9848,-5.0435,-5.0692,-5.1206,-5.1977,-5.2821,-5.3225,-5.3225,-5.3225,-5.3225,-5.3225,-5.3225,-5.3225,-5.3225,-5.3225,-5.3225,-5.3151,-5.2564,-5.2197,-5.1903,-5.1096,-5.0288,-4.9481,-4.8636,-4.7939,-4.7462,-4.7462,-4.6911,-4.614,-4.5553,-4.5626,-4.5773,-4.5223,-4.5443,-4.5883,-4.5883,-4.6067,-4.625,-4.625,-4.6397,-4.647,-4.6088,-4.5972,-4.573,-4.4647,-4.427,-4.3895,-4.3065,-4.2309,-4.1914,-4.2219,-4.1847,-4.1677,-4.2219,-4.1204,-4.0392,-4.0392,-4.0223,-4.0087,-4.0087,-4.0087,-4.0087,-4.0087,-4.0087,-4.0087,-4.0087,-4.0087,-4.0087,-4.0087,-4.0087,-4.0189,-4.0392,-4.1136,-4.161,-4.1813,-4.3098,-4.3741,-4.3741,-4.4316,-4.4587,-3.6714,0.0,-3.7102,-4.1972,-4.3169,-4.3794,-4.6201,-4.8048,-4.9298,-4.9298,-4.9336,-4.9375,-4.9375,-4.9413,-4.9565,-5.0049,-5.0833,-5.1193,-5.0874,-5.004,-4.9152,-4.8288,-4.707,-4.6488,0.0,-4.7436,-4.7895,-4.8307,-4.915,-4.926,-4.8416,-4.915,-4.9591,-4.9627,-5.0398,-5.1206,-5.1977,-5.2821,-5.3225,-5.3225,-5.3225,-5.3225,-5.3225,-5.3225,-5.3225,-5.3225,-5.3225,-5.3225,-5.3225,-5.3188,-5.2711,-5.1903,-5.1096,-5.0288,-4.9481,-4.8636,-4.8269,-4.8269,-4.8269,-4.7755,-4.7095,-4.702,-4.6544,-4.5883,-4.5883,-4.5883,-4.5883,-4.5883,-4.6471,-4.7095,-4.7095,-4.7645,-4.8233,-4.8194,-4.8194,-4.8041,-4.7398,-4.6748,-4.5892,-4.4605,-4.3784,-4.3132,-4.2422,-4.2286,-4.2252,-4.2286,-4.1644,-4.117,-4.117,-4.0527,-4.0087,-4.0087,-4.0087,-4.0087,-4.0087,-4.0087,-4.0087,-4.0087,-4.0087,-4.0087,-4.0087,-4.0087,-4.0426,-4.117,-4.188,-4.2625,-4.3369,-4.4147,-4.4553,-4.4553,-4.4553,-4.4587,-3.659,0.0,-4.0688,-4.2925,-4.5121,-4.7068,-4.8394,-4.9528,-5.0106,-4.9528,-4.8951,-4.8374,-4.7853,-4.8182,-4.8779,-4.9524,-5.1293,-5.2308,-5.1614,-5.1599,-5.0672,-4.8121,-4.7434,0.0,0.0,0.0,0.0,-4.814,-4.8293,-4.8676,-4.9452,-4.9564,-4.9811,-5.0362,-5.1169,-5.172,-5.1977,-5.2821,-5.3225,-5.3225,-5.3225,-5.3225,-5.3225,-5.3225,-5.3225,-5.3225,-5.3225,-5.3225,-5.3225,-5.3225,-5.3041,-5.2784,-5.2491,-5.1903,-5.1096,-5.0251,-4.9627,-4.9077,-4.8489,-4.8122,-4.7829,-4.7278,-4.7278,-4.7388,-4.6874,-4.7095,-4.7498,-4.7498,-4.7682,-4.7902,-4.7902,-4.8122,-4.8306,-4.8306,-4.8306,-4.8114,-4.7512,-4.7219,-4.6702,-4.5401,-4.4578,-4.4026,-4.3851,-4.3369,-4.32,-4.3741,-4.232,-4.1035,-4.0527,-4.0223,-4.0087,-4.0087,-4.0087,-4.0087,-4.0087,-4.0527,-4.0832,-4.0832,-4.1271,-4.1542,-4.1542,-4.1542,-4.1677,-4.1914,-4.2658,-4.3166,-4.3403,-4.4215,-4.4587,-4.4587,-4.5094,-4.5331,-3.858,-4.1214,-4.3734,-4.5738,-4.7868,-4.9628,-5.0336,-5.0375,-4.9894,-4.8759,-4.7548,-4.6394,-4.5257,-4.5257,-4.597,-4.774,-4.9433,-5.0835,-5.1777,-5.1689,-5.0823,-4.8933,-4.8143,-4.7373,0.0,0.0,0.0,-4.7729,-4.8278,-4.8962,-4.9897,-5.0006,-5.0398,-5.1206,-5.172,-5.2123,-5.2417,-5.2931,-5.3225,-5.3225,-5.3225,-5.3225,-5.3225,-5.3225,-5.3225,-5.3225,-5.3225,-5.3225,-5.3225,-5.3225,-5.3041,-5.2784,-5.2784,-5.227,-5.1499,-5.0986,-5.0472,-4.9848,-4.871,-4.8306,-4.8233,-4.7719,-4.7902,-4.8196,-4.7719,-4.7902,-4.8306,-4.8306,-4.8306,-4.8379,-4.8673,-4.8746,-4.882,-4.9114,-4.9187,-4.9108,-4.867,-4.8424,-4.7922,-4.6813,-4.585,-4.5148,-4.4947,-4.4313,-4.391,-4.4147,-4.2929,-4.1711,-4.0967,-4.0392,-4.0087,-4.0087,-4.0087,-4.0087,-4.0087,-4.0764,-4.1204,-4.1204,-4.188,-4.2286,-4.2286,-4.2286,-4.2422,-4.2692,-4.3166,-4.3538,-4.3842,-4.435,-4.4587,-4.4587,-4.5365,-4.5703,-4.248,-4.4492,-4.6328,-5.0273,-5.1206,-5.1314,-5.1931,-5.0606,-4.8817,-4.7068,-4.5316,-4.3547,0.0,0.0,-4.1555,-4.491,-4.5666,-4.7223,-5.1331,-5.0642,-4.999,0.0,0.0,0.0,0.0,0.0,0.0,-4.7243,0.0,-4.997,-4.9743,-5.0435,-5.1242,-5.205,-5.205,-5.2417,-5.3188,-5.3225,-5.3225,-5.3225,-5.3225,-5.3225,-5.3225,-5.3225,-5.3225,-5.3225,-5.3225,-5.3225,-5.3225,-5.3225,-5.2747,-5.205,-5.205,-5.1573,-5.0912,-5.0875,-5.0875,-5.0618,-4.9003,-4.8453,-4.8416,-4.8379,-4.8379,-4.8379,-4.8379,-4.8379,-4.8379,-4.8416,-4.8453,-4.8636,-4.9444,-4.9591,-4.9774,-5.0618,-5.0802,-5.0802,-5.0802,-5.0277,-4.9639,-4.8792,-4.7616,-4.6465,-4.5684,-4.5089,-4.4427,-4.3627,-4.3491,-4.3186,-4.2388,-4.1068,-4.0189,-4.0155,-4.0155,-4.0155,-4.0155,-4.0798,-4.1238,-4.1271,-4.1948,-4.2354,-4.2354,-4.2388,-4.276,-4.347,-4.347,-4.3842,-4.4587,-4.4587,-4.4587,-4.4654,-4.5399,-4.5771,-4.5663,-4.8462,-5.0976,-5.2031,-5.2223,-5.201,-5.1537,-4.9529,-4.7089,-4.4786,-4.2368,-4.0175,0.0,0.0,0.0,-4.3316,-4.6376,0.0,-5.1547,-5.3182,0.0,-5.1779,0.0,-5.119,-4.934,-4.9873,0.0,0.0,-4.912,-4.9928,-5.164,-5.1701,-5.205,-5.2858,-5.2894,-5.3004,-5.3225,-5.3225,-5.3225,-5.3225,-5.3225,-5.3225,-5.3225,-5.3225,-5.3225,-5.3225,-5.3225,-5.3225,-5.3225,-5.3225,-5.3078,-5.2894,-5.2894,-5.2784,-5.2527,-5.1903,-5.1683,-5.1536,-5.0508,-5.0178,-5.0068,-4.9444,-4.926,-4.926,-4.926,-4.926,-4.937,-4.9994,-5.0178,-5.0215,-5.0435,-5.0472,-5.0508,-5.0765,-5.0802,-5.0802,-5.0802,-5.0643,-5.0326,-4.9647,-4.8389,-4.7174,-4.635,-4.6063,-4.5695,-4.5044,-4.4475,-4.37,-4.2441,-4.1948,-4.1508,-4.0967,-4.0933,-4.0933,-4.0933,-4.1102,-4.1441,-4.1982,-4.2726,-4.3132,-4.3132,-4.3707,-4.4079,-4.4282,-4.4282,-4.4384,-4.4587,-4.4587,-4.4857,-4.5432,-4.6177,-4.6819,-4.8788,-5.1297,-5.3203,-5.3242,-5.2891,-5.1984,-4.9975,-4.7469,-4.4577,-4.1277,-3.9133,0.0,-3.5527,-3.6267,0.0,0.0,0.0,0.0,-5.0856,-5.2587,-5.3395,0.0,-5.3126,0.0,-5.0995,-5.1471,-5.1604,0.0,-5.06,-5.1008,-5.2231,-5.2434,-5.2747,-5.3188,-5.3225,-5.3225,-5.3225,-5.3225,-5.3225,-5.3225,-5.3225,-5.3225,-5.3225,-5.3225,-5.3225,-5.3225,0.0,-5.3225,-5.3225,-5.3225,-5.3004,-5.2711,-5.3078,-5.3004,-5.2674,-5.2564,-5.2527,-5.2454,-5.2013,-5.1867,-5.1683,-5.0508,-5.0105,-5.0105,-5.0105,-5.0105,-5.0215,-5.0655,-5.0802,-5.0875,-5.1242,-5.1316,-5.1426,-5.1793,-5.1867,-5.1867,-5.1867,-5.1867,-5.1553,-5.0524,-4.9108,-4.7997,-4.7571,-4.6873,-4.6411,-4.6455,-4.5775,-4.4963,-4.4196,-4.3082,-4.2117,-4.1745,-4.1677,-4.1677,-4.1677,-4.1982,-4.2354,-4.276,-4.3504,-4.3944,-4.3944,-4.435,-4.4587,-4.4587,-4.4587,-4.4756,-4.506,-4.506,-4.5466,-4.621,-4.6955,-4.7496,-5.1901,-5.3537,-5.4297,-5.4336,-5.3437,-5.1601,-4.8047,-4.5109,-4.1885,-3.7575,0.0,-3.4761,-3.3167,-3.3567,-3.5303,-3.8854,0.0,-4.4047,-4.9894,-5.0894,-5.1895,-5.4203,-5.3891,-5.3299,-5.292,-5.2844,-5.2807,-5.2605,-5.2642,-5.2492,-5.2201,-5.2821,-5.3225,-5.3225,-5.3225,-5.3225,-5.3225,-5.3225,-5.3225,-5.3225,-5.3225,-5.3225,-5.3225,-5.3225,-5.3225,-5.3225,-5.3225,-5.3225,-5.3225,-5.3225,-5.2784,-5.2234,-5.2931,-5.2784,-5.2234,-5.2931,-5.3225,-5.3225,-5.3225,-5.3225,-5.2968,-5.1463,-5.0949,-5.0949,-5.0949,-5.0949,-5.0986,-5.1096,-5.1132,-5.1279,-5.1977,-5.216,-5.2344,-5.3041,-5.3225,-5.3225,-5.3225,-5.3225,-5.2804,-5.1375,-5.0017,-4.9081,-4.9115,-4.7939,-4.7215,-4.7879,-4.7335,-4.6826,-4.6731,-4.4404,-4.2683,-4.2581,-4.2475,-4.2455,-4.2455,-4.2963,-4.3301,-4.3403,-4.4045,-4.4418,-4.4418,-4.4519,-4.4587,-4.4587,-4.4688,-4.506,-4.5703,-4.5805,-4.6244,-4.6955,-4.7597,-4.797,-5.4902,-5.6067,-5.6797,-5.6133,-5.4297,-5.1562,-4.7422,-4.3944,0.0,0.0,-3.3898,-3.2455,-3.1323,-3.2411,-3.4808,-3.8904,-4.1463,-4.4816,-5.0048,-5.1933,-5.3203,0.0,-5.4671,-5.4596,-5.4193,-5.4163,0.0,0.0,-5.3382,-5.342,-5.3004,-5.3115,-5.3225,-5.3225,-5.3225,-5.3225,-5.3225,-5.3225,-5.3225,-5.3225,-5.3225,-5.3225,-5.3225,-5.3225,-5.3225,-5.3225,-5.3225,0.0,-5.3225,-5.3225,-5.3115,-5.3004,-5.3151,-5.3115,-5.3004,-5.3151,-5.3225,-5.3225,-5.3225,-5.3225,-5.3041,-5.2087,-5.1793,-5.1793,-5.1793,-5.1793,-5.194,-5.2601,-5.2784,-5.2821,-5.2968,-5.3004,-5.3041,-5.3188,-5.3225,-5.3225,-5.3225,-5.3225,-5.2926,-5.1998,-5.1595,-5.1188,-5.0592,-5.0222,-4.9913,-4.9505,-4.9316,-4.9062,-4.8506,-4.6409,-4.4716,-4.4095,-4.3541,-4.3234,-4.3234,-4.276,-4.276,-4.3369,-4.3538,-4.3606,-4.3606,-4.4248,-4.4587,-4.4587,-4.5196,-4.5568,-4.5703,-4.6312,-4.6989,-4.7733,-4.7868,-4.824,-5.6104,-5.7362,-5.779,-5.6126,-5.3867,-5.0547,-4.4922,0.0,0.0,0.0,-3.207,-3.1367,-3.0898,-3.2187,0.0,-3.7169,-3.8879,-4.1981,-4.7989,-4.9471,0.0,-5.4126,-5.5032,-5.5186,0.0,-5.4671,-5.4355,-5.3272,-5.3565,-5.3643,-5.3188,-5.3225,-5.3225,-5.3225,-5.3225,-5.3225,-5.3225,-5.3225,-5.3225,-5.3225,-5.3225,-5.3225,-5.3225,-5.3225,-5.3225,-5.3225,-5.3225,-5.3225,-5.3225,-5.3225,-5.3225,-5.3225,-5.3225,-5.3225,-5.3261,-5.3665,-5.3555,-5.3261,-5.3702,-5.3555,-5.3151,-5.2747,-5.2637,-5.2637,-5.2637,-5.2637,-5.2711,-5.3115,-5.3225,-5.3225,-5.3225,-5.3225,-5.3225,-5.3225,-5.3225,-5.3225,-5.3225,-5.3225,-5.3115,-5.2711,-5.227,-5.2013,-5.205,-5.1353,-5.0831,-5.0946,-5.0575,-5.0235,-4.9937,-4.8626,-4.7462,-4.6815,-4.6079,-4.5666,-4.5666,-4.4886,-4.4748,-4.5597,-4.5199,-4.5164,-4.5631,-4.6013,-4.6222,-4.6222,-4.6951,-4.7541,-4.7958,-4.8305,-4.8841,-4.9569,-4.9569,-4.9743,-5.6489,-5.7912,-5.8143,-5.5873,-5.3356,-4.9609,-4.2773,-3.918,0.0,0.0,-3.0625,-3.0625,-3.0625,0.0,-3.3242,0.0,-3.6247,-3.8917,-4.5533,-4.6912,-4.8875,0.0,-5.4929,0.0,-5.4547,-5.479,0.0,-5.3314,-5.3484,-5.3526,-5.3225,-5.3225,-5.3225,-5.3225,-5.3225,-5.3225,-5.3225,-5.3225,-5.3225,-5.3225,-5.3225,-5.3225,-5.3225,-5.3225,-5.3225,-5.3225,-5.3225,-5.3225,-5.3225,-5.3225,-5.3225,-5.3225,-5.3225,-5.3225,-5.3298,-5.4106,-5.3995,-5.3592,-5.4363,-5.4252,-5.3702,-5.3518,-5.3335,-5.3225,-5.3225,-5.3225,-5.3225,-5.3225,-5.3225,-5.3225,-5.3225,-5.3225,-5.3261,-5.3445,-5.3482,-5.3482,-5.3482,-5.3335,-5.3225,-5.3225,-5.2711,-5.2454,-5.3115,-5.216,-5.1536,-5.216,-5.172,-5.1316,-5.1316,-5.083,-5.0317,-4.9901,-4.871,-4.7948,-4.7948,-4.7346,-4.724,-4.7877,-4.7346,-4.7227,-4.7913,-4.7948,-4.7948,-4.7948,-4.8742,-4.9451,-5.0004,-5.0181,-5.0571,-5.1086,-5.1086,-5.1192,-5.6549,-5.7835,-5.8252,-5.646,-5.3693,-4.9609,-4.2773,0.0,-3.5859,-3.0781,-2.9726,-2.9726,-2.9726,0.0,0.0,0.0,0.0,-3.7964,-4.3983,-4.6771,-4.9163,-5.1798,0.0,0.0,-5.4516,-5.4516,-5.419,-5.3272,-5.323,-5.323,-5.3225,-5.3225,-5.3225,-5.3225,-5.3225,-5.3225,-5.3225,-5.3225,-5.3225,-5.3225,-5.3225,-5.3225,-5.3225,-5.3225,-5.3225,-5.3225,-5.3225,-5.3225,0.0,-5.3225,-5.3225,-5.3225,-5.3225,-5.3225,-5.3298,-5.4106,-5.4363,-5.4399,-5.5207,-5.5427,-5.5244,-5.4509,-5.3812,-5.3225,-5.3225,-5.3225,-5.3225,-5.3225,-5.3225,-5.3225,-5.3225,-5.3225,-5.3408,-5.4106,-5.4289,-5.4289,-5.4289,-5.3739,-5.3225,-5.3225,-5.3151,-5.3115,-5.3188,-5.3078,-5.3004,-5.3078,-5.3041,-5.3004,-5.3004,-5.2926,-5.2883,-5.284,-5.0376,-4.8777,-4.8777,-4.8706,-4.8706,-4.8777,-4.8706,-4.8706,-4.8777,-4.8777,-4.8777,-4.8777,-4.9508,-4.9933,-5.0004,-5.0661,-5.1015,-5.1086,-5.1086,-5.1475,-5.4741,-5.7159,-5.8296,-5.6039,-5.2679,-4.8359,-4.2539,0.0,-3.457,-3.0469,-2.9609,-2.9453,-2.8906,-2.8828,-2.9726,0.0,0.0,0.0,-4.0003,-4.202,-4.4781,-4.9854,-5.2056,0.0,0.0,0.0,-5.4156,-5.3272,-5.3225,-5.3225,-5.3225,-5.3225,-5.3225,-5.3225,-5.3225,-5.3225,-5.3225,-5.3225,-5.3225,-5.3225,-5.3225,-5.3225,-5.3225,-5.3225,-5.3225,-5.3225,-5.3225,-5.3482,0.0,-5.3408,-5.3482,-5.3885,-5.3408,-5.3518,-5.4032,-5.484,-5.5097,-5.5244,-5.6051,-5.6014,-5.5537,-5.5207,-5.4583,-5.3849,-5.3371,-5.3225,-5.3225,-5.3225,-5.3555,-5.3922,-5.3922,-5.4289,-5.473,-5.506,-5.5097,-5.4987,-5.4509,-5.4142,-5.3775,-5.3298,-5.3225,-5.3225,-5.3225,-5.3225,-5.3225,-5.3225,-5.3225,-5.3225,-5.3225,-5.3225,-5.3225,-5.3225,-5.1741,-5.075,-5.075,-5.0315,-5.0242,-5.0714,-5.0315,-5.0242,-5.075,-5.075,-5.075,-5.075,-5.1547,-5.1946,-5.1946,-5.2226,-5.2371,-5.2371,-5.2842,-5.3241,-5.172,-5.4989,-5.6824,-5.4732,-5.133,-4.7109,0.0,0.0,-3.3359,-2.9922,-2.9023,-2.8633,-2.8047,-2.793,-2.8555,-3.0586,-3.0239,-3.1739,-3.7557,-3.9148,-4.186,0.0,0.0,-5.1886,0.0,-5.4156,-5.3979,-5.323,-5.3225,-5.3225,-5.3225,-5.3225,-5.3225,-5.3225,-5.3225,-5.3225,-5.3225,-5.3225,-5.3225,-5.3225,-5.3225,-5.3225,-5.3225,-5.3225,-5.3225,-5.3225,-5.3225,-5.3518,0.0,-5.3445,-5.3555,-5.3995,-5.3445,-5.3702,-5.4509,-5.528,-5.5757,-5.6051,-5.6895,-5.6785,-5.6271,-5.6014,-5.5574,-5.495,-5.4142,-5.3592,-5.3225,-5.3225,-5.3775,-5.4436,-5.4693,-5.5354,-5.5941,-5.5941,-5.5941,-5.5794,-5.5244,-5.4913,-5.4583,-5.4032,-5.3739,-5.3628,-5.3885,-5.3518,-5.3298,-5.3518,-5.3371,-5.3225,-5.3225,-5.3408,-5.3482,-5.3225,-5.3115,-5.2858,-5.238,-5.183,-5.1867,-5.2637,-5.194,-5.1867,-5.2674,-5.2491,-5.2344,-5.2344,-5.2931,-5.3335,-5.3555,-5.3555,-5.3702,-5.3922,-5.4473,-5.4876,-4.7489,-5.0845,-5.3405,-5.2416,-4.9753,-4.6055,0.0,0.0,-3.2422,-2.9023,-2.7617,-2.7031,-2.7031,-2.6992,-2.7851,-3.0469,-3.0788,-3.248,-3.756,-3.9685,0.0,0.0,0.0,-4.9928,-5.1217,-5.2855,-5.3643,-5.323,-5.3225,0.0,-5.3225,-5.3225,-5.3225,-5.3225,-5.3225,-5.3225,-5.3225,-5.3225,-5.3225,-5.3225,-5.3225,-5.3225,-5.3225,-5.3225,-5.3225,-5.3225,-5.3225,-5.3225,0.0,-5.3225,-5.3225,-5.3225,-5.3225,-5.3702,-5.4509,-5.528,-5.6088,-5.6895,-5.7703,-5.796,-5.785,-5.7042,-5.6785,-5.6638,-5.5794,-5.4473,-5.3225,-5.3225,-5.3775,-5.4583,-5.5354,-5.6161,-5.6785,-5.6785,-5.6785,-5.6785,-5.6785,-5.6161,-5.5574,-5.5574,-5.4913,-5.462,-5.5427,-5.4252,-5.3482,-5.4289,-5.3702,-5.3225,-5.3225,-5.3922,-5.4069,-5.3298,-5.462,-5.4913,-5.3335,-5.3188,-5.3518,-5.4326,-5.3628,-5.3555,-5.4326,-5.3628,-5.3188,-5.3188,-5.3225,-5.3592,-5.4399,-5.4399,-5.4803,-5.5574,-5.5574,-5.6014,-4.2359,-4.4811,-4.6494,-4.5629,-4.3349,-4.0413,-3.7061,0.0,0.0,-2.8789,-2.7617,-2.6992,-2.6992,-2.6523,-2.7148,-3.0391,-3.1274,-3.2954,-3.693,0.0,0.0,-4.6167,-5.0798,-5.375,0.0,0.0,-5.4083,-5.3643,-5.3359,-5.3225,-5.3225,-5.3225,-5.3225,-5.3225,-5.3225,-5.3225,-5.3225,-5.3225,-5.3225,-5.3225,-5.3225,-5.3225,-5.3225,-5.3225,-5.3225,-5.3225,-5.3225,-5.3518,-5.3995,-5.3445,-5.3849,-5.473,-5.3628,-5.4363,-5.6014,-5.5684,-5.6455,-5.7666,-5.7923,-5.7997,-5.796,-5.7703,-5.7262,-5.6748,-5.6492,-5.5684,-5.495,-5.55,-5.5831,-5.6235,-5.7042,-5.7409,-5.7629,-5.7629,-5.7629,-5.7483,-5.6932,-5.6602,-5.6271,-5.5684,-5.539,-5.528,-5.5537,-5.517,-5.4913,-5.517,-5.4987,-5.484,-5.484,-5.506,-5.5097,-5.4876,-5.528,-5.495,-5.3335,-5.4216,-5.4693,-5.4436,-5.4693,-5.495,-5.5207,-5.4987,-5.4583,-5.4032,-5.4546,-5.4693,-5.4399,-5.495,-5.5611,-5.6418,-5.6418,-5.6859,0.0,-3.9591,-4.0965,-4.0777,-3.8838,-3.6366,0.0,0.0,0.0,0.0,0.0,0.0,-2.6953,-2.6562,-2.7109,-2.9961,-3.1046,-3.2688,-3.6084,0.0,0.0,-4.6915,0.0,0.0,0.0,-5.4389,-5.4288,-5.3832,-5.3404,-5.3225,-5.3225,-5.3225,-5.3225,-5.3225,-5.3225,-5.3225,-5.3225,-5.3225,-5.3225,-5.3225,-5.3225,-5.3225,-5.3225,-5.3225,-5.3225,-5.3225,-5.3225,-5.3482,0.0,-5.3408,-5.3812,-5.462,-5.3922,-5.4766,-5.6308,-5.6124,-5.6859,-5.7997,-5.7997,-5.7997,-5.7997,-5.7997,-5.7666,-5.7262,-5.7262,-5.6492,-5.5757,-5.6565,-5.6822,-5.7005,-5.7776,-5.7997,-5.7997,-5.7997,-5.7997,-5.785,-5.7373,-5.7262,-5.7116,-5.6602,-5.6271,-5.6161,-5.6455,-5.5978,-5.5684,-5.6014,-5.5794,-5.5574,-5.5574,-5.5868,-5.5941,-5.5611,-5.6124,-5.5831,-5.4252,-5.5023,-5.55,-5.5317,-5.55,-5.5721,-5.6051,-5.5757,-5.5354,-5.484,-5.5317,-5.55,-5.5317,-5.6088,-5.6748,-5.7262,-5.7262,-5.7519,0.0,-3.494,-3.6443,-3.7201,-3.5671,-3.3553,-3.1992,0.0,0.0,0.0,0.0,0.0,-2.7109,-2.7226,-2.7812,-2.9726,-3.0676,-3.2338,-3.5593,-3.8402,0.0,0.0,-5.0664,0.0,-5.2717,-5.385,-5.4355,-5.3869,-5.3484,-5.323,-5.3225,-5.3225,-5.3225,-5.3225,-5.3225,-5.3225,-5.3225,-5.3225,-5.3225,-5.3225,-5.3225,-5.3225,-5.3225,-5.3225,-5.3225,0.0,-5.3225,-5.3225,0.0,-5.3225,-5.3225,-5.3371,-5.4069,-5.4876,-5.5757,-5.6455,-5.7262,-5.7997,-5.7997,-5.7997,-5.7997,-5.7997,-5.7997,-5.7997,-5.7997,-5.6969,-5.5904,-5.6675,-5.6895,-5.7079,-5.7813,-5.7997,-5.7997,-5.7997,-5.7997,-5.7997,-5.7997,-5.7997,-5.7997,-5.7997,-5.7409,-5.7116,-5.7886,-5.6748,-5.6014,-5.6785,-5.6235,-5.5757,-5.5757,-5.6418,-5.6602,-5.5831,-5.7116,-5.7373,-5.5904,-5.5757,-5.6051,-5.6748,-5.6161,-5.6088,-5.6859,-5.6161,-5.5721,-5.5684,-5.5684,-5.6088,-5.6895,-5.7629,-5.7997,-5.7997,-5.7997,-5.7997,-2.8289,0.0,-3.0248,-3.0479,-3.0105,-2.9412,0.0,0.0,0.0,0.0,0.0,0.0,0.0,-2.9453,-3.0195,-3.3906,-3.5203,-3.6664,-3.9263,-4.3902,0.0,-5.1625,-5.3664,-5.4605,-5.4095,-5.4613,-5.479,-5.4355,-5.3943,-5.3526,-5.3225,-5.3225,-5.3225,-5.3225,-5.3225,-5.3225,-5.3225,-5.3225,-5.3225,-5.3225,-5.3225,-5.3225,-5.3225,-5.3225,-5.3225,-5.3225,-5.3225,-5.3225,-5.3225,-5.3225,-5.3555,-5.4069,-5.3665,-5.473,-5.6455,-5.6051,-5.6785,-5.7997,-5.7997,-5.7997,-5.7997,-5.7997,-5.7997,-5.7997,-5.7997,-5.774,-5.7483,-5.7666,-5.7703,-5.7776,-5.796,-5.7997,-5.7997,-5.7997,-5.7997,-5.7997,-5.7997,-5.7997,-5.7997,-5.7997,-5.785,-5.7776,-5.796,-5.7666,-5.7483,-5.7703,-5.7556,-5.7446,-5.7446,-5.7593,-5.7666,-5.7446,-5.7776,-5.785,-5.7483,-5.7446,-5.7262,-5.6822,-5.7189,-5.7519,-5.7703,-5.7519,-5.7152,-5.6528,-5.6528,-5.6895,-5.7703,-5.7923,-5.7997,-5.7997,-5.7997,-5.7997,-2.6295,-2.7173,-2.8217,-2.8679,-2.8507,-2.8101,-2.7692,0.0,0.0,0.0,0.0,0.0,0.0,0.0,-3.1484,-3.5351,-3.6728,-3.854,0.0,0.0,-4.974,-5.2318,-5.4126,-5.5126,0.0,-5.5082,-5.4933,-5.4516,-5.4048,-5.3643,-5.3188,-5.3225,-5.3225,-5.3225,-5.2858,-5.2821,-5.3225,-5.2821,-5.2637,-5.2637,-5.227,-5.2307,-5.2637,-5.2637,-5.2858,-5.3225,-5.3225,-5.3225,-5.3225,-5.3225,-5.3482,-5.3849,-5.3775,-5.4546,-5.5684,-5.5611,-5.6381,-5.7446,-5.7446,-5.7703,-5.7997,-5.7997,-5.7997,-5.7997,-5.7997,-5.7997,-5.7997,-5.7997,-5.7997,-5.7997,-5.7997,-5.7997,-5.7997,-5.7997,-5.7997,-5.7997,-5.7997,-5.7997,-5.7997,-5.7997,-5.7997,-5.7997,-5.7997,-5.7997,-5.7997,-5.7997,-5.7997,-5.7997,-5.7997,-5.7997,-5.7997,-5.7997,-5.7997,-5.7997,-5.7997,-5.7997,-5.7813,-5.7373,-5.7776,-5.7997,-5.7997,-5.7997,-5.7813,-5.7373,-5.7336,-5.7556,-5.7997,-5.7997,-5.7997,-5.7997,-5.7997,-5.7997,-2.6016,-2.7383,-2.8789,-2.9062,-2.875,-2.8398,-2.832,0.0,0.0,0.0,0.0,0.0,0.0,-3.1601,0.0,0.0,0.0,0.0,-4.5274,-4.7663,-4.974,-5.201,-5.3703,0.0,-5.5472,-5.5322,-5.4988,-5.4516,-5.4118,-5.3683,-5.323,-5.3078,-5.3041,-5.3041,-5.2234,-5.2123,-5.2858,-5.216,-5.183,-5.1793,-5.1242,-5.1353,-5.1977,-5.2123,-5.2564,-5.3225,0.0,0.0,-5.3225,-5.3225,-5.3225,-5.3298,-5.3959,-5.4289,-5.4473,-5.517,-5.5941,-5.6638,-5.6748,-5.7262,-5.785,-5.796,-5.7923,-5.785,-5.796,-5.7997,-5.7997,-5.7997,-5.7997,-5.7997,-5.7997,-5.7997,-5.7997,-5.7997,-5.7997,-5.7997,-5.7997,-5.7997,-5.7997,-5.7997,-5.7997,-5.8033,-5.8143,-5.818,-5.8217,-5.8364,-5.8364,-5.8364,-5.8364,-5.8364,-5.8364,-5.8364,-5.8364,-5.8364,-5.8364,-5.8364,-5.8364,-5.8364,-5.8143,-5.7997,-5.7997,-5.7997,-5.7997,-5.7997,-5.7997,-5.7997,-5.7997,-5.7997,-5.8042,-5.8097,-5.8097,-5.8215,-2.75,-2.9687,-3.0898,-2.8086,-2.8398,-2.918,0.0,0.0,0.0,0.0,0.0,0.0,0.0,-3.4844,-3.6953,0.0,0.0,-4.637,0.0,0.0,-5.2856,-5.3972,0.0,-5.528,-5.4741,-5.5237,-5.5287,-5.4547,-5.442,-5.405,-5.323,-5.2564,-5.216,-5.216,-5.1389,-5.1059,-5.1169,-5.1059,-5.0986,-5.0986,-5.1536,-5.1867,-5.2013,-5.2711,-5.3078,-5.3225,0.0,-5.3225,-5.3225,-5.3225,-5.3225,-5.3225,-5.3335,-5.3812,-5.4399,-5.4546,-5.5097,-5.5868,-5.6565,-5.6895,-5.7116,-5.7776,-5.7556,-5.7116,-5.7776,-5.7997,-5.7997,-5.7997,-5.7997,-5.7997,-5.7997,-5.7997,-5.7997,-5.7997,-5.7997,-5.7997,-5.7997,-5.7997,-5.7997,-5.7997,-5.7997,-5.8217,-5.8914,-5.9024,-5.9245,-5.9942,-6.0015,-6.0015,-6.0015,-6.0015,-6.0015,-6.0015,-6.0015,-6.0015,-6.0015,-6.0015,-6.0015,-6.0015,-5.8731,-5.7997,-5.7997,-5.7997,-5.7997,-5.7997,-5.7997,-5.7997,-5.7997,-5.7997,-5.8194,-5.8591,-5.8591,-5.9169,-2.668,-2.8789,-3.0508,-2.9375,-3.1094,-3.2695,0.0,0.0,0.0,0.0,0.0,0.0,0.0,0.0,-3.9883,-4.3476,0.0,-4.9524,-5.1934,-5.2374,-5.2818,0.0,0.0,-5.5088,-5.5126,-5.5088,-5.4915,-5.451,-5.4069,-5.3447,-5.2569,-5.2197,-5.1793,-5.1353,-5.0582,-5.0141,-5.0141,-4.9664,-4.9921,-5.0802,-5.0729,-5.1132,-5.2013,-5.238,-5.2784,-5.3225,0.0,-5.3225,-5.3225,-5.3225,-5.3225,-5.3225,-5.3225,-5.3445,-5.3812,-5.4252,-5.462,-5.506,-5.5868,-5.6455,-5.6859,-5.7226,-5.7409,-5.7519,-5.7886,-5.7997,-5.7997,-5.7997,-5.7997,-5.7997,-5.7997,-5.7997,-5.7997,-5.7997,-5.7997,-5.7997,-5.7997,-5.7997,-5.7997,-5.7997,-5.8364,-5.8767,-5.9171,-5.9575,-5.9979,-6.0346,-6.0419,-6.0419,-6.0419,-6.0419,-6.0419,-6.0419,-6.0419,-6.0419,-6.0419,-6.0419,-6.0419,-6.0419,-5.9318,-5.8657,-5.8657,-5.8657,-5.8437,-5.7997,-5.9169,-5.9529,-5.9085,-5.9752,-6.0222,-6.0454,-6.0454,-6.0754,-2.6484,-2.8203,-3.0078,-3.0742,0.0,0.0,0.0,0.0,0.0,0.0,0.0,0.0,0.0,-3.9805,0.0,-4.7695,-5.0121,-5.1606,-5.2221,-5.2585,-5.3049,-5.3703,-5.4203,-5.4741,-5.5357,-5.4664,-5.4173,-5.4065,-5.3345,-5.2619,-5.1888,-5.1581,-5.1169,-5.0545,-4.9701,-4.9297,-4.9297,-4.8636,-4.904,-5.0508,-5.0068,-5.0618,-5.2013,-5.2197,-5.2637,-5.3225,-5.3225,-5.3225,-5.3225,-5.3225,-5.3225,-5.3225,-5.3225,-5.3225,-5.3298,-5.3885,-5.4252,-5.4473,-5.5097,-5.5721,-5.6308,-5.6675,-5.7079,-5.7519,-5.7886,-5.7997,-5.7997,-5.7997,-5.7997,-5.7997,-5.7997,-5.7997,-5.7997,-5.7997,-5.7997,-5.7997,-5.7997,-5.8143,-5.829,-5.829,-5.8951,-5.9538,-5.9758,-6.0272,-6.075,-6.0933,-6.1153,-6.119,-6.1006,-6.1153,-6.119,-6.097,-6.097,-6.097,-6.097,-6.1077,-6.1171,-6.1171,-6.025,-5.9697,-5.9697,-5.9797,-5.9553,-5.8924,-6.0501,-6.1082,-6.0447,-6.1394,-6.1949,-6.2053,-6.2053,-6.2201,-2.8867,-3.0039,-3.082,-3.0898,0.0,0.0,0.0,0.0,0.0,0.0,0.0,0.0,0.0,-4.2969,-4.6055,-5.043,-5.1726,-5.3055,-5.5517,0.0,-5.5434,-5.5511,-5.4934,-5.4511,-5.4587,-5.3818,-5.3152,-5.2755,-5.2352,-5.1882,-5.1377,-5.0377,-4.9738,-4.9664,-4.8857,-4.8379,-4.8379,-4.8343,-4.8783,-4.9664,-5.0362,-5.1169,-5.2013,-5.2784,-5.3151,-5.3225,-5.3225,-5.3225,-5.3225,-5.3225,-5.3225,-5.3225,-5.3225,-5.3225,-5.3225,-5.3298,-5.3775,-5.4399,-5.4473,-5.4509,-5.484,-5.6308,-5.6345,-5.6051,-5.7556,-5.7997,-5.7997,-5.7997,-5.7997,-5.7997,-5.7997,-5.7997,-5.7997,-5.7997,-5.7997,-5.7997,-5.7997,-5.8584,-5.9134,-5.9134,-5.9758,-6.0566,-6.13,-6.1484,-6.1777,-6.2511,-6.3319,-6.3539,-6.2732,-6.3319,-6.3503,-6.2732,-6.2658,-6.2658,-6.2658,-6.3076,-6.3356,-6.3356,-6.1911,-6.1055,-6.1055,-6.1467,-6.1656,-6.1618,-6.1768,-6.1842,-6.1766,-6.1878,-6.2088,-6.2552,-6.2552,-6.3217,-2.7812,-2.9805,-3.1719,-3.1719,0.0,0.0,0.0,0.0,0.0,0.0,0.0,0.0,0.0,0.0,-4.8457,-5.1591,-5.3118,-5.4388,-5.5825,-5.5818,-5.5511,-5.5011,-5.4703,-5.428,-5.3741,-5.2895,-5.2461,-5.259,-5.1939,-5.1261,-5.0592,-5.0155,-4.9566,-4.882,-4.8489,-4.8086,-4.7572,-4.8049,-4.8489,-4.8783,-4.9627,-5.0729,-5.2013,-5.2307,-5.2747,-5.3225,-5.3225,-5.3225,-5.3225,-5.3225,-5.3225,-5.3225,-5.3225,-5.3225,-5.3225,-5.3225,-5.3408,-5.3665,-5.3665,-5.3995,-5.4583,-5.5684,-5.6198,-5.6565,-5.7666,-5.7997,-5.7997,-5.7997,-5.7997,-5.7997,-5.7997,-5.7997,-5.7997,-5.7997,-5.7997,-5.7997,-5.7997,-5.8621,-5.9208,-5.9208,-6.0272,-6.1227,-6.1557,-6.2438,-6.3246,-6.3576,-6.431,-6.4751,-6.442,-6.42,-6.4163,-6.4347,-6.4347,-6.4462,-6.479,-6.4539,-6.447,-6.481,-6.3272,-6.2371,-6.2371,-6.256,-6.2406,-6.1916,-6.3217,-6.3617,-6.3155,-6.3978,-6.4461,-6.4676,-6.5175,-6.5678,-2.75,-2.9336,-3.1523,0.0,0.0,0.0,0.0,0.0,0.0,0.0,0.0,0.0,0.0,0.0,0.0,0.0,-5.364,-5.4839,-5.5766,-5.5549,-5.5126,-5.4549,-5.401,-5.3433,-5.2856,-5.201,-5.1659,-5.1973,-5.1343,-5.0681,-5.0122,-4.987,-4.9338,-4.8532,-4.8125,-4.7792,-4.7498,-4.7792,-4.8049,-4.8306,-4.8893,-5.0031,-5.161,-5.161,-5.1903,-5.2454,-5.2454,-5.2601,-5.2821,-5.2821,-5.2968,-5.3225,-5.3225,-5.3225,-5.3225,-5.3225,-5.3225,-5.3225,-5.3225,-5.3555,-5.4216,-5.5244,-5.5978,-5.6638,-5.7666,-5.7997,-5.7997,-5.7997,-5.7997,-5.7997,-5.7997,-5.7997,-5.7997,-5.7997,-5.7997,-5.807,-5.8327,-5.9024,-5.9648,-5.9905,-6.1043,-6.1998,-6.1998,-6.2915,-6.3759,-6.4053,-6.4787,-6.5228,-6.4971,-6.4861,-6.4971,-6.5264,-6.5301,-6.5533,-6.6052,-6.5671,-6.5674,-6.6218,-6.5297,-6.4457,-6.3754,-6.3892,-6.384,-6.3536,-6.4703,-6.5235,-6.4891,-6.5832,-6.6282,-6.6282,-6.7128,-6.7513,-2.8555,-2.8945,-3.0039,0.0,0.0,0.0,0.0,0.0,0.0,0.0,0.0,-5.1445,-5.1445,0.0,0.0,-5.2146,-5.314,-5.4122,-5.5665,-5.5088,-5.4472,-5.4472,-5.2972,-5.1895,-5.1895,-5.1164,-5.0702,-5.0702,-5.0336,-5.0073,-5.0073,-4.9356,-4.8878,-4.8878,-4.772,-4.7498,-4.8269,-4.7498,-4.7498,-4.8269,-4.8269,-4.9187,-5.0802,-5.0802,-5.0802,-5.0802,-5.0802,-5.1242,-5.1977,-5.1977,-5.2454,-5.3188,-5.3188,-5.3188,-5.3225,-5.3225,-5.3225,-5.3225,-5.3225,-5.3225,-5.3482,-5.506,-5.5574,-5.5868,-5.7483,-5.7997,-5.7997,-5.7997,-5.7997,-5.7997,-5.7997,-5.7997,-5.7997,-5.7997,-5.7997,-5.8217,-5.9061,-5.9832,-6.0639,-6.1447,-6.2254,-6.2805,-6.2805,-6.2805,-6.3135,-6.398,-6.4787,-6.5007,-6.4237,-6.5521,-6.6219,-6.5411,-6.5338,-6.557,-6.6089,-6.6579,-6.7051,-6.7578,-6.8129,-6.7428,-6.5207,-6.5635,-6.6282,-6.709,-6.632,-6.632,-6.709,-6.709,-6.709,-6.7128,-6.8013,-6.8398,-2.9453,-3.0703,0.0,-3.3672,0.0,0.0,0.0,0.0,0.0,0.0,0.0,-5.3437,-5.4023,0.0,0.0,-5.322,-5.3543,-5.3933,-5.4916,-5.4203,-5.3356,-5.2741,-5.2202,-5.1702,-5.1125,-5.0279,-4.9779,-4.9779,-4.9662,-4.9499,-4.9196,-4.953,-4.9504,-4.8911,-4.7999,-4.7235,-4.6617,-4.6948,-4.6654,-4.5773,-4.6948,-4.8343,-4.9958,-4.9958,-5.0251,-5.0802,-5.0802,-5.0949,-5.1169,-5.1169,-5.1646,-5.2344,-5.2344,-5.2711,-5.3225,-5.3225,-5.3225,-5.3225,-5.3225,-5.3225,-5.3371,-5.4436,-5.4766,-5.506,-5.6675,-5.7152,-5.7262,-5.785,-5.7997,-5.7997,-5.7997,-5.7997,-5.7997,-5.7997,-5.7997,-5.8217,-5.9061,-5.9832,-6.0639,-6.1447,-6.2254,-6.2805,-6.2805,-6.3319,-6.398,-6.4824,-6.5632,-6.6072,-6.5815,-6.6696,-6.7026,-6.6219,-6.6659,-6.7345,-6.8264,-6.795,-6.807,-6.9011,-6.8652,-6.8114,-6.7428,-6.7576,-6.7782,-6.8013,-6.7782,-6.7782,-6.8013,-6.8013,-6.8013,-6.8052,-6.8898,-6.9321,-3.0078,-3.1719,0.0,-3.6211,-4.0508,-4.5039,-4.8125,0.0,0.0,0.0,0.0,-5.5195,-5.5703,-5.4101,0.0,-5.3608,-5.3641,-5.3718,-5.4051,-5.328,-5.251,-5.1972,-5.1625,-5.1241,-5.0741,-4.9894,-4.9394,-4.9394,-4.9086,-4.8779,-4.8537,-4.8861,-4.8846,-4.834,-4.7286,-4.6513,-4.6096,-4.614,-4.5847,-4.5186,-4.6177,-4.7168,-4.8122,-4.8453,-4.8857,-4.937,-4.9994,-5.0288,-5.0362,-5.0655,-5.1096,-5.1573,-5.1867,-5.2307,-5.2747,-5.3078,-5.3225,-5.3225,-5.3225,-5.3225,-5.3335,-5.4142,-5.4399,-5.4693,-5.6308,-5.6822,-5.6969,-5.7776,-5.7997,-5.7997,-5.7997,-5.7997,-5.7997,-5.7997,-5.7997,-5.8217,-5.9061,-5.9832,-6.0639,-6.1447,-6.2254,-6.2805,-6.2805,-6.3503,-6.4347,-6.5191,-6.5999,-6.6512,-6.6512,-6.6916,-6.7136,-6.699,-6.762,-6.8368,-6.9231,-6.9019,-6.923,-7.014,-6.9667,-6.9398,-6.9398,-6.8744,-6.8552,-6.8898,-6.859,-6.859,-6.8936,-6.8936,-6.8936,-6.8936,-6.9783,-7.0167,-3.0742,0.0,0.0,-3.9101,-4.3008,0.0,-5.1914,-5.4961,-5.7148,-5.8633,0.0,-5.6719,-5.6719,-5.4685,-5.3175,-5.3643,-5.3641,-5.3456,-5.3167,-5.2279,-5.1702,-5.1779,-5.1087,-5.0587,-5.0587,-4.9779,-4.924,-4.9163,-4.8432,-4.8009,-4.8009,-4.7712,-4.7556,-4.7472,-4.6073,-4.5624,-4.6345,-4.5281,-4.511,-4.5735,-4.5773,-4.5736,-4.57,-4.6617,-4.7021,-4.7095,-4.86,-4.9297,-4.9407,-5.0251,-5.0618,-5.0765,-5.1499,-5.1867,-5.2087,-5.2821,-5.3151,-5.3225,-5.3225,-5.3225,-5.3335,-5.4069,-5.4289,-5.4583,-5.6198,-5.6712,-5.6859,-5.774,-5.7997,-5.7997,-5.7997,-5.7997,-5.7997,-5.7997,-5.7997,-5.8217,-5.9061,-5.9832,-6.0639,-6.1447,-6.2254,-6.2805,-6.2805,-6.3466,-6.4273,-6.5191,-6.5999,-6.6512,-6.6586,-6.6639,-6.6948,-6.7684,-6.8259,-6.8795,-6.9353,-6.9811,-7.033,-7.0871,-7.0898,-7.0898,-7.0898,-6.9436,-6.9013,-6.9783,-6.9052,-6.9013,-6.9821,-6.9821,-6.9821,-6.9821,-7.0552,-7.0898,-3.3242,-3.3633,0.0,0.0,-4.6992,-5.1875,-5.5039,-5.6719,-5.7539,-5.7226,-5.7422,-5.7617,-5.7617,-5.6524,-5.5432,-5.4856,-5.4048,-5.3165,-5.2454,-5.0952,-5.0202,-5.0894,-5.0202,-4.9663,-4.9663,-4.8894,-4.8125,-4.7509,-4.7278,-4.7163,-4.7163,-4.7684,-4.7813,-4.7495,-4.6578,-4.6001,-4.5904,-4.5363,-4.4846,-4.44,-4.4773,-4.4635,-4.4048,-4.5516,-4.6177,-4.6214,-4.7205,-4.7645,-4.7719,-4.8526,-4.9224,-4.9848,-5.0031,-5.0875,-5.2013,-5.2197,-5.2674,-5.3225,-5.3225,-5.3225,-5.3225,-5.3408,-5.3482,-5.3775,-5.5354,-5.5868,-5.6161,-5.7593,-5.7997,-5.7997,-5.7997,-5.7997,-5.7997,-5.7997,-5.7997,-5.8217,-5.9061,-5.9832,-6.0639,-6.1447,-6.2254,-6.2805,-6.2805,-6.2989,-6.3576,-6.5081,-6.5999,-6.6733,-6.7357,-6.7788,-6.8134,-6.832,-6.884,-6.9353,-6.9883,-7.0061,-7.033,-7.0871,-7.0898,-7.0898,-7.0898,-7.0552,-7.0437,-7.0629,-7.0475,-7.0437,-7.0629,-7.0629,-7.0629,-7.0667,-7.0821,-7.0898,-3.3281,0.0,0.0,-4.4883,0.0,-5.3164,-5.4961,-5.6367,-5.6907,-5.5545,-5.6622,-5.7546,-5.6709,-5.6097,-5.5255,-5.3861,-5.3147,-5.2473,-5.1588,-5.026,-4.9586,-5.001,-4.9317,-4.8779,-4.8779,-4.8009,-4.7355,-4.6932,-4.6509,-4.6278,-4.6278,-4.6663,-4.68,-4.6605,-4.602,-4.5658,-4.5469,-4.4899,-4.4407,-4.3998,-4.407,-4.3901,-4.3534,-4.5149,-4.6104,-4.6544,-4.7352,-4.7682,-4.7719,-4.8122,-4.8563,-4.9003,-4.9444,-5.0105,-5.0912,-5.172,-5.227,-5.2674,-5.3078,-5.3225,-5.3225,-5.3225,-5.3225,-5.3518,-5.5097,-5.5574,-5.5941,-5.7556,-5.7997,-5.7997,-5.7997,-5.7997,-5.7997,-5.7997,-5.7997,-5.8107,-5.8547,-5.9575,-6.0529,-6.0933,-6.1998,-6.2805,-6.2805,-6.3466,-6.431,-6.5191,-6.6329,-6.7169,-6.7492,-6.8097,-6.8567,-6.8884,-6.9393,-6.9775,-7.0095,-7.033,-7.0622,-7.0898,-7.0898,-7.1091,-7.1514,-7.1514,-7.1321,-7.0898,-7.0898,-7.0898,-7.0898,-7.0898,-7.1091,-7.1514,-7.1514,-7.1745,-3.2695,0.0,-4.0195,-4.7656,-5.1016,0.0,-5.3594,-5.4993,-5.5666,-5.4121,-5.5633,-5.675,-5.5152,-5.4715,-5.4077,-5.2396,-5.1973,-5.1549,-5.0587,-4.9625,-4.9009,-4.9163,-4.8432,-4.7894,-4.7894,-4.7278,-4.6855,-4.6701,-4.6009,-4.5586,-4.5586,-4.5586,-4.5586,-4.5586,-4.5303,-4.5201,-4.5201,-4.4535,-4.4204,-4.4204,-4.3791,-4.3529,-4.3534,-4.5002,-4.5993,-4.6544,-4.7498,-4.7902,-4.7902,-4.8196,-4.8306,-4.8379,-4.9077,-4.9444,-4.9774,-5.1242,-5.1867,-5.2123,-5.2931,-5.3225,-5.3225,-5.3225,-5.3225,-5.3518,-5.5097,-5.5574,-5.5941,-5.7556,-5.7997,-5.7997,-5.7997,-5.7997,-5.7997,-5.7997,-5.8051,-5.8142,-5.8142,-5.9384,-6.0525,-6.0525,-6.1813,-6.2953,-6.3101,-6.4168,-6.5037,-6.5264,-6.6507,-6.7405,-6.731,-6.8137,-6.8935,-6.9393,-6.9918,-7.0266,-7.0266,-7.0805,-7.1129,-7.1129,-7.1283,-7.1668,-7.2399,-7.2399,-7.2091,-7.136,-7.136,-7.136,-7.136,-7.136,-7.1706,-7.2399,-7.2399,-7.2822,0.0,0.0,-4.3476,0.0,-4.9219,-5.1797,0.0,0.0,-5.4104,0.0,-5.467,-5.5113,-5.4013,-5.3687,-5.3282,-5.2262,-5.1414,-5.0606,-4.9702,-4.824,-4.7509,-4.8202,-4.7548,-4.7048,-4.7048,-4.6971,-4.6586,-4.5817,-4.5663,-4.5586,-4.5586,-4.5586,-4.5586,-4.5586,-4.5568,-4.555,-4.555,-4.5159,-4.4966,-4.4943,-4.4261,-4.3791,-4.3534,-4.4452,-4.4525,-4.4048,-4.5553,-4.6214,-4.6324,-4.7719,-4.8306,-4.8306,-4.8416,-4.893,-4.9701,-5.0618,-5.1389,-5.2123,-5.2931,-5.3225,-5.3225,-5.3225,-5.3225,-5.3518,-5.5097,-5.5574,-5.5941,-5.7556,-5.7997,-5.7997,-5.7997,-5.7997,-5.7997,-5.7997,-5.8326,-5.8591,-5.8591,-5.9855,-6.1001,-6.1001,-6.2345,-6.3721,-6.4427,-6.413,-6.4169,-6.5132,-6.5878,-6.6565,-6.7207,-6.8824,-6.9918,-6.9992,-7.0463,-7.0777,-7.0777,-7.1563,-7.2014,-7.2014,-7.2745,-7.3206,-7.3322,-7.3322,-7.3283,-7.3168,-7.3168,-7.3168,-7.3168,-7.3168,-7.3206,-7.3322,-7.3322,-7.3399,-3.4492,-3.7734,-4.0976,0.0,-4.7016,-4.8779,-5.015,0.0,-5.2003,-5.0948,-5.178,-5.2743,-5.2743,-5.2646,-5.2299,-5.1453,-5.0568,-4.9817,-4.9433,-4.7971,-4.7048,-4.7394,-4.6663,-4.6163,-4.6163,-4.6163,-4.6009,-4.5624,-4.5586,-4.5586,-4.5586,-4.5586,-4.5586,-4.5586,-4.5586,-4.5586,-4.5586,-4.5263,-4.4896,-4.4482,-4.4146,-4.3818,-4.3497,-4.3864,-4.4085,-4.4232,-4.5406,-4.6177,-4.6654,-4.7352,-4.7902,-4.8306,-4.8306,-4.8526,-4.8967,-4.9811,-5.0618,-5.1426,-5.2234,-5.2821,-5.3225,-5.3225,-5.3225,-5.3445,-5.4583,-5.5428,-5.6232,-5.7376,-5.8256,-5.8756,-5.8756,-5.8591,-5.8375,-5.8375,-5.8756,-5.9065,-5.9065,-6.0145,-6.139,-6.2321,-6.3109,-6.3941,-6.5066,-6.5332,-6.5699,-6.6717,-6.7454,-6.8124,-6.8789,-6.9583,-7.0233,-7.0524,-7.0777,-7.0898,-7.0898,-7.1706,-7.2206,-7.2206,-7.3014,-7.3707,-7.4168,-7.4168,-7.4399,-7.4899,-7.3976,-7.3514,-7.3514,-7.3514,-7.3745,-7.4168,-7.4168,-7.4437,0.0,0.0,-3.7891,-4.1758,-4.4081,-4.583,0.0,0.0,-4.9756,0.0,-4.9316,-5.0356,-5.0972,-5.1183,-5.1087,-5.0471,-4.9471,-4.8779,-4.8779,-4.7509,-4.6586,-4.6586,-4.6009,-4.5586,-4.5586,-4.5586,-4.5586,-4.5586,-4.5586,-4.5586,-4.5586,-4.5586,-4.5586,-4.5586,-4.5586,-4.5586,-4.5586,-4.5361,-4.4919,-4.429,-4.4204,-4.3974,-4.3631,-4.3529,-4.3828,-4.4452,-4.5259,-4.5957,-4.6544,-4.691,-4.7462,-4.8012,-4.8233,-4.8306,-4.8416,-4.926,-5.0186,-5.1074,-5.1848,-5.2739,-5.3524,-5.3524,-5.3524,-5.3672,-5.4485,-5.5505,-5.6631,-5.7416,-5.8502,-5.9389,-5.9389,-5.9139,-5.8874,-5.8874,-5.9212,-5.9673,-6.0127,-6.0903,-6.1951,-6.3678,-6.3978,-6.4437,-6.5879,-6.6446,-6.7014,-6.7956,-6.8714,-6.936,-6.9718,-7.008,-7.0463,-7.0871,-7.0898,-7.0975,-7.1206,-7.2014,-7.2629,-7.2822,-7.3668,-7.4399,-7.5014,-7.5014,-7.5361,-7.5976,-7.4784,-7.413,-7.413,-7.413,-7.4437,-7.5014,-7.5014,-7.5399,0.0,-3.418,0.0,-3.6406,-4.0112,0.0,0.0,0.0,-4.7521,-4.8161,-4.8259,-4.8279,-4.8317,-4.8971,-4.951,-4.9471,-4.8086,-4.7048,-4.7048,-4.624,-4.5663,-4.5663,-4.5624,-4.5586,-4.5586,-4.5586,-4.5586,-4.5586,-4.5586,-4.5586,-4.5586,-4.5586,-4.5586,-4.5586,-4.5586,-4.5586,-4.5586,-4.5586,-4.54,-4.5033,-4.4726,-4.4346,-4.3937,-4.3627,-4.3497,-4.3608,-4.4415,-4.4782,-4.4966,-4.6471,-4.7094,-4.7241,-4.8012,-4.8306,-4.8416,-4.926,-5.0379,-5.1486,-5.2305,-5.3409,-5.442,-5.442,-5.442,-5.4571,-5.5367,-5.6229,-5.7054,-5.7849,-5.8713,-5.9389,-5.9389,-5.9389,-5.9354,-5.9354,-5.969,-6.0493,-6.2064,-6.2483,-6.3023,-6.4692,-6.5035,-6.5531,-6.7207,-6.6897,-6.6802,-6.7959,-6.856,-6.8913,-6.8946,-7.0094,-7.0871,-7.0898,-7.0898,-7.1245,-7.2052,-7.2937,-7.3783,-7.4514,-7.5399,-7.5899,-7.5938,-7.5938,-7.5938,-7.6015,-7.5899,-7.5861,-7.5861,-7.5861,-7.5899,-7.5938,-7.5938,-7.5976,0.0,0.0,0.0,-3.6483,-3.8439,-4.0231,-4.09,-4.2425,-4.3794,-4.4064,-4.5393,-4.6663,-4.724,-4.8009,-4.8586,-4.8586,-4.7625,-4.6894,-4.6894,-4.6163,-4.5586,-4.5586,-4.5586,-4.5586,-4.5586,-4.5586,-4.5586,-4.5586,-4.5586,-4.5586,-4.5586,-4.5586,-4.5586,-4.5586,-4.5586,-4.5586,-4.5586,-4.5586,-4.5438,-4.5115,-4.4776,-4.4373,-4.3967,-4.3627,-4.3497,-4.3497,-4.3791,-4.4232,-4.4745,-4.5333,-4.6177,-4.7131,-4.7425,-4.7865,-4.8343,-4.8636,-4.9377,-5.0379,-5.1452,-5.2485,-5.3406,-5.4237,-5.4484,-5.456,-5.4861,-5.6071,-5.7422,-5.7688,-5.9007,-6.0311,-6.0311,-6.0074,-5.9855,-5.9855,-6.0395,-6.1335,-6.2744,-6.3217,-6.3726,-6.487,-6.5557,-6.6414,-6.7841,-6.8359,-6.8799,-6.975,-7.0034,-7.0162,-7.0162,-7.0584,-7.0898,-7.0898,-7.1398,-7.186,-7.2168,-7.3476,-7.4399,-7.4668,-7.5515,-7.6015,-7.6015,-7.6015,-7.6015,-7.6015,-7.6015,-7.6015,-7.6015,-7.6015,-7.6015,-7.6015,-7.6015,-7.6015,-3.1887,0.0,0.0,0.0,0.0,-3.7507,-3.8436,0.0,-4.1046,-4.1316,-4.3162,-4.5009,-4.5855,-4.6701,-4.7355,-4.7663,-4.7009,-4.6471,-4.6471,-4.597,-4.5586,-4.5586,-4.5586,-4.5586,-4.5586,-4.5586,-4.5586,-4.5586,-4.5586,0.0,-4.5586,-4.5586,-4.5586,-4.5586,-4.5586,-4.5586,-4.5586,-4.5586,-4.5475,-4.5263,-4.4825,-4.4455,-4.4175,-4.3693,-4.3497,-4.3497,-4.3497,-4.3791,-4.4305,-4.4599,-4.5587,-4.6945,-4.7203,-4.7866,-4.8711,-4.8532,-4.9159,-5.0155,-5.1249,-5.2236,-5.3225,-5.4495,-5.4905,-5.4905,-5.4905,-5.6289,-5.7813,-5.7813,-5.9268,-6.0781,-6.0781,-6.0597,-6.0338,-6.0338,-6.1218,-6.2295,-6.3117,-6.3717,-6.4432,-6.5541,-6.623,-6.7122,-6.8575,-6.9321,-6.9975,-7.0783,-7.0898,-7.0898,-7.0898,-7.0898,-7.0898,-7.0898,-7.1668,-7.2322,-7.2591,-7.3899,-7.4822,-7.513,-7.5668,-7.6015,-7.6015,-7.6015,-7.6015,-7.6015,-7.6015,-7.6015,-7.6015,-7.6015,-7.6015,-7.6015,-7.6015,-7.6284,0.0,0.0,0.0,0.0,0.0,0.0,-3.6503,0.0,-3.9392,-4.02,-4.1739,-4.3239,-4.4085,-4.4932,-4.5778,-4.6701,-4.6124,-4.5586,-4.5586,-4.5586,-4.5586,-4.5586,-4.5586,-4.5586,-4.5547,-4.5547,-4.5547,-4.5547,-4.5547,-4.5547,-4.5586,-4.5586,-4.5586,-4.5586,-4.5586,-4.5586,-4.5586,-4.5586,-4.5586,-4.5586,-4.4943,-4.4624,-4.4599,-4.3855,-4.3495,-4.3495,-4.3495,-4.3532,-4.3569,-4.4342,-4.5355,-4.6525,-4.7383,-4.839,-4.9408,-4.9043,-4.9696,-5.0892,-5.1714,-5.2845,-5.404,-5.5308,-5.5703,-5.5703,-5.5703,-5.6934,-5.8319,-5.8319,-5.9511,-6.0781,-6.0781,-6.0781,-6.0819,-6.0819,-6.2089,-6.332,-6.332,-6.4012,-6.5128,-6.6782,-6.7128,-6.7705,-6.9398,-6.9706,-7.0014,-7.0783,-7.0898,-7.0898,-7.0898,-7.0898,-7.0898,-7.0898,-7.1706,-7.2591,-7.3437,-7.4284,-7.5091,-7.5938,-7.6015,-7.6015,-7.6015,-7.6015,-7.6015,-7.6015,-7.6015,-7.6015,-7.6015,-7.6015,-7.6015,-7.6053,-7.6053,-7.6938,-3.2776,0.0,0.0,0.0,0.0,0.0,-3.4045,-3.5391,-3.6622,-3.6853,-3.8738,-4.0777,-4.2239,-4.2701,-4.3316,-4.4778,-4.5355,-4.5586,-4.5586,-4.5586,-4.5586,-4.5586,-4.5586,-4.5355,-4.4701,-4.4662,-4.4662,0.0,-4.4662,-4.4932,-4.5547,-4.5586,-4.5586,-4.5586,-4.5586,-4.5586,-4.5586,-4.5586,-4.5586,-4.5586,-4.518,-4.4849,-4.4599,-4.4095,-4.3849,-4.3849,-4.3849,-4.4035,-4.427,-4.3952,-4.4338,-4.5321,-4.6397,-4.741,-4.829,-4.9039,-4.9566,-5.0128,-5.1847,-5.2653,-5.3238,-5.5078,-5.5703,-5.5703,-5.5703,-5.6934,-5.8319,-5.8319,-5.9511,-6.0781,-6.0781,-6.0781,-6.0973,-6.1589,-6.2551,-6.3474,-6.4089,-6.4936,-6.5859,-6.6898,-6.8129,-6.9129,-6.9629,-7.0167,-7.0629,-7.086,-7.0898,-7.0898,-7.0898,-7.0898,-7.0898,-7.0898,-7.2245,-7.3245,-7.3476,-7.4822,-7.5745,-7.5976,-7.6015,-7.6015,-7.6015,-7.6015,-7.6015,-7.6015,-7.6015,-7.6015,-7.6015,-7.6015,-7.6322,-7.6938,-7.7553,-7.8054,-3.366,-3.3545,-3.3827,-3.461,0.0,0.0,-3.3442,-3.4007,-3.443,-3.443,-3.6161,-3.8123,-3.9431,-4.0277,-4.12,-4.2508,-4.3739,-4.4778,-4.5509,-4.5586,-4.5586,-4.5586,-4.5586,-4.524,-4.4393,-4.4316,-4.4316,-4.4316,-4.4316,-4.4662,-4.5547,-4.5586,-4.5586,-4.5586,-4.5586,-4.5586,-4.5586,-4.5586,-4.5586,-4.5586,-4.5263,-4.4988,-4.48,-4.4428,-4.4233,-4.4233,-4.4233,-4.4373,-4.4572,-4.4154,-4.4736,-4.6001,-4.6685,-4.7796,-4.9029,-4.9576,-4.9955,-5.0502,-5.2044,-5.2844,-5.3391,-5.5154,-5.5703,-5.5703,-5.5703,-5.6934,-5.8319,-5.8319,-5.9511,-6.0781,-6.0781,-6.0781,-6.1012,-6.1897,-6.2704,-6.3551,-6.4397,-6.5551,-6.6628,-6.7475,-6.8475,-6.9398,-7.009,-7.0591,-7.0898,-7.0898,-7.0898,-7.0898,-7.0898,-7.0898,-7.0898,-7.0898,-7.2476,-7.3514,-7.3514,-7.5053,-7.6015,-7.6015,-7.6015,-7.6015,-7.6015,-7.6015,-7.6015,-7.6015,-7.6015,-7.6015,-7.6015,-7.6015,-7.6438,-7.7323,-7.813,-7.8669,-3.493,-3.4122,-3.3814,-3.5276,-3.4545,0.0,-3.4083,-3.3737,-3.3237,-3.2968,-3.4199,-3.5622,-3.643,-3.7815,-3.92,-4.02,-4.1662,-4.3316,-4.5201,-4.547,-4.547,-4.547,-4.5355,-4.497,-4.4124,-4.4008,-4.4008,-4.4008,-4.4201,-4.4662,-4.5547,-4.5586,-4.5586,-4.5586,-4.5586,-4.5586,-4.5586,-4.5586,-4.5586,-4.5586,-4.5283,-4.5137,-4.5115,-4.48,-4.4676,-4.4676,-4.4676,-4.4701,-4.4726,-4.4726,-4.5708,-4.7266,-4.7503,-4.875,-5.0335,-5.0214,-5.0656,-5.1481,-5.236,-5.3238,-5.4167,-5.533,-5.5703,-5.5703,-5.5703,-5.6934,-5.8357,-5.855,-5.9665,-6.0781,-6.0781,-6.0781,-6.105,-6.2012,-6.2781,-6.3589,-6.4551,-6.5897,-6.7205,-6.809,-6.8398,-6.9013,-7.0514,-7.0821,-7.0898,-7.0898,-7.0898,-7.0898,-7.0898,-7.0898,-7.0898,-7.0898,-7.236,-7.336,-7.336,-7.4899,-7.5861,-7.5861,-7.5938,-7.6015,-7.6015,-7.6015,-7.6015,-7.6015,-7.6053,-7.6092,-7.6207,-7.6169,-7.6476,-7.7169,-7.8169,-7.9015,-3.7969,-3.7661,-3.693,-3.6546,-3.6738,0.0,-3.4622,-3.5122,-3.5391,-3.3314,-3.3737,-3.4737,-3.5584,-3.6007,-3.6969,-3.9161,-3.9815,-4.1085,-4.4124,-4.4547,-4.4547,-4.4547,-4.397,-4.3239,-4.2354,-4.2277,-4.2277,-4.2277,-4.3547,-4.4662,-4.5547,-4.5586,-4.5586,-4.5586,-4.5586,-4.5586,-4.5586,-4.5586,-4.5586,-4.5586,-4.555,-4.5381,-4.5115,-4.5011,-4.4988,-4.4988,-4.4988,-4.5159,-4.5419,-4.5419,-4.5311,-4.5357,-4.6953,-4.7853,-4.8378,-5.0005,-5.1083,-5.1928,-5.2773,-5.3656,-5.4523,-5.5412,-5.5703,-5.5703,-5.5703,-5.6934,-5.8588,-5.9935,-6.055,-6.0781,-6.0781,-6.0781,-6.1166,-6.2704,-6.3205,-6.3743,-6.532,-6.5897,-6.6359,-6.7205,-6.8475,-6.9552,-6.9898,-7.0475,-7.0898,-7.0898,-7.0898,-7.0898,-7.0898,-7.0898,-7.0898,-7.0898,-7.1822,-7.2437,-7.2437,-7.3976,-7.4938,-7.4938,-7.563,-7.6015,-7.6015,-7.6169,-7.6245,-7.6245,-7.6399,-7.6852,-7.7535,-7.7198,-7.6784,-7.6322,-7.8515,-7.9246,-3.9662,-3.8969,-3.8084,-3.8507,-3.7661,0.0,0.0,-3.5122,-3.4584,-3.3699,-3.3545,-3.3699,-3.4122,-3.4545,-3.5276,-3.6546,-3.7469,-3.8892,-4.1431,-4.2162,-4.2393,-4.2393,-4.2047,-4.147,-4.0623,-4.0546,-4.0739,-4.1123,-4.2739,-4.3893,-4.4316,-4.4355,-4.4355,-4.4355,-4.4355,-4.4547,-4.4932,-4.4932,-4.5163,-4.5586,-4.5586,-4.5532,-4.5361,-4.5361,-4.5361,-4.5361,-4.5361,-4.5438,-4.5586,-4.5586,-4.5419,-4.529,-4.712,-4.8102,-4.8698,-5.0163,-5.1202,-5.201,-5.2895,-5.378,-5.4626,-5.5434,-5.5703,-5.5703,-5.5703,-5.6934,-5.8665,-6.0319,-6.0781,-6.0781,-6.0781,-6.0781,-6.1204,-6.2897,-6.332,-6.3782,-6.5513,-6.5897,-6.6013,-6.6397,-6.7513,-6.8552,-6.8975,-6.9744,-7.0283,-7.0283,-7.0629,-7.0898,-7.0898,-7.0898,-7.0898,-7.0898,-7.1668,-7.2206,-7.2206,-7.336,-7.4284,-7.4668,-7.513,-7.5592,-7.613,-7.6245,-7.6338,-7.645,-7.6566,-7.703,-7.7905,-7.7263,-7.7394,-7.8228,-7.9507,-8.0123,-4.1123,-4.0354,-3.9623,-4.0315,-3.8969,-3.7315,0.0,0.0,0.0,-3.4199,0.0,0.0,0.0,0.0,0.0,0.0,0.0,0.0,0.0,-3.9008,0.0,-4.02,-3.9815,-3.9392,-3.9084,-3.9046,-3.9392,-4.02,-4.1585,-4.2508,-4.2816,-4.2854,-4.2931,-4.3085,-4.3085,-4.3393,-4.4047,-4.4085,-4.4509,-4.5355,-4.5355,-4.5432,-4.5586,-4.5586,-4.5586,-4.5586,-4.5586,-4.5586,-4.5586,-4.5586,-4.5586,-4.574,-4.7278,-4.8394,-4.924,-5.0125,-5.1087,-5.201,-5.2895,-5.378,-5.4626,-5.5434,-5.5703,-5.5742,-5.6088,-5.7165,-5.8665,-6.0319,-6.0781,-6.0781,-6.0781,-6.0781,-6.1204,-6.2897,-6.332,-6.3782,-6.5513,-6.5897,-6.5897,-6.5897,-6.6397,-6.7128,-6.8013,-6.8859,-6.9436,-6.9436,-7.0167,-7.0667,-7.0667,-7.0783,-7.0898,-7.0898,-7.1514,-7.1937,-7.1937,-7.2783,-7.3668,-7.4476,-7.4707,-7.5284,-7.6284,-7.6361,-7.649,-7.6715,-7.6882,-7.7391,-7.827,-7.7516,-7.8204,-8.0176,-8.015,-8.0624,-4.347,-4.4278,-4.4047,-4.12,-4.247,-4.3085,-3.7892,0.0,-3.7738,-3.4776,0.0,-3.4045,0.0,0.0,0.0,0.0,0.0,0.0,-3.4853,-3.5507,-3.693,-3.9161,-3.743,-3.6622,-3.8007,-3.8161,-3.8507,-3.9354,-3.9623,-4.0392,-4.1893,-4.197,-4.2316,-4.3085,-4.3085,-4.3124,-4.3239,-4.3239,-4.3624,-4.4432,-4.4432,-4.4855,-4.5586,-4.5586,-4.5586,-4.5586,-4.5586,-4.5586,-4.5586,-4.5586,-4.5586,-4.5701,-4.6663,-4.7548,-4.8355,-4.924,-5.0548,-5.201,-5.2895,-5.378,-5.4626,-5.5434,-5.5703,-5.5972,-5.755,-5.8127,-5.8665,-6.0319,-6.0781,-6.0781,-6.0781,-6.0781,-6.1204,-6.2897,-6.332,-6.3782,-6.5513,-6.5897,-6.5897,-6.5897,-6.5974,-6.6282,-6.709,-6.7975,-6.8552,-6.8552,-6.9283,-6.986,-6.986,-7.0475,-7.0898,-7.0898,-7.0975,-7.1052,-7.1052,-7.2014,-7.2976,-7.385,-7.4745,-7.563,-7.6544,-7.6736,-7.6922,-7.7142,-7.7887,-7.8663,-7.9477,-7.9399,-7.9345,-7.9337,-7.9298,-7.9726,-4.4739,-4.4624,-4.3932,-4.2931,-4.2662,-4.197,-3.9469,-3.87,-3.8123,-3.6699,0.0,0.0,0.0,0.0,0.0,0.0,-3.4507,-3.4622,0.0,0.0,-3.4237,-3.6776,0.0,0.0,-3.5776,-3.6238,-3.6507,-3.6353,-3.77,-3.8623,-3.8854,-3.9815,-4.0508,-4.0893,-4.1354,-4.1816,-4.2354,-4.2354,-4.3008,-4.4316,-4.4316,-4.4739,-4.5586,-4.5586,-4.5586,-4.5586,-4.5586,-4.5586,-4.5586,-4.5586,-4.5586,-4.5701,-4.6547,-4.7394,-4.8279,-4.9663,-5.0587,-5.1395,-5.2741,-5.3433,-5.3972,-5.528,-5.5703,-5.5934,-5.7165,-5.7896,-5.855,-5.9704,-6.0396,-6.0781,-6.0781,-6.0781,-6.1204,-6.2897,-6.332,-6.3782,-6.5513,-6.5897,-6.5897,-6.5897,-6.5897,-6.6013,-6.6359,-6.709,-6.7667,-6.7667,-6.8821,-6.9706,-6.9706,-7.0398,-7.0937,-7.1052,-7.1052,-7.1129,-7.1245,-7.2118,-7.3035,-7.3839,-7.5375,-7.6361,-7.6775,-7.6962,-7.709,-7.7187,-7.8047,-7.8901,-7.9717,-7.9717,-8.0146,-8.1005,-8.0459,-8.0654,-4.5432,-4.4893,-4.4124,-4.4008,-4.2739,-4.1277,-4.0392,-3.9585,-3.8854,-3.8123,-3.7853,0.0,0.0,0.0,-3.5828,-3.4737,0.0,-3.4712,0.0,-3.3353,0.0,0.0,0.0,0.0,0.0,-3.4622,-3.4776,-3.3891,-3.5545,-3.6546,-3.6392,-3.7584,-3.8584,-3.9277,-3.9854,-4.0585,-4.1431,-4.17,-4.2547,-4.397,-4.4201,-4.4739,-4.5586,-4.5586,-4.5586,-4.5586,-4.5586,-4.5586,-4.5586,-4.5586,-4.5586,-4.5701,-4.6817,-4.7586,-4.8279,-4.9779,-5.0625,-5.1241,-5.2702,-5.351,-5.4087,-5.528,-5.5703,-5.5857,-5.6742,-5.7588,-5.8473,-5.9281,-6.0127,-6.0819,-6.0858,-6.0858,-6.1281,-6.3036,-6.3435,-6.3897,-6.5667,-6.6051,-6.6051,-6.6051,-6.6051,-6.609,-6.6346,-6.6782,-6.709,-6.709,-6.859,-6.9706,-6.9706,-7.0437,-7.1052,-7.1168,-7.1274,-7.1448,-7.1819,-7.2482,-7.3303,-7.4449,-7.6082,-7.6958,-7.6958,-7.734,-7.7422,-7.7187,-7.8515,-7.9375,-7.9687,-8.0195,-8.1054,-8.2265,-8.1406,-8.1484,-4.5586,0.0,-4.6201,-4.3739,-4.3662,-4.3316,-4.0085,-4.0546,-4.0969,-3.8507,-3.9277,-3.9869,-3.8214,-3.7935,-3.7357,-3.5738,-3.6098,0.0,0.0,-3.4891,-3.5122,-3.4314,-3.5007,0.0,0.0,-3.3737,-3.3891,-3.3006,-3.3006,-3.3776,-3.5468,-3.5584,-3.6738,-3.92,-3.9315,-3.9738,-4.0508,-4.1393,-4.2239,-4.3162,-4.3932,-4.4739,-4.5586,-4.5586,-4.5586,-4.5586,-4.5586,-4.5586,-4.5586,-4.5586,-4.5586,-4.574,-4.7432,-4.8086,-4.8202,-4.9125,-5.0471,-5.201,-5.2895,-5.4241,-5.5626,-5.5665,-5.5703,-5.5857,-5.6742,-5.7588,-5.8473,-5.9281,-6.0127,-6.0819,-6.0935,-6.0973,-6.1458,-6.3353,-6.3792,-6.4243,-6.5999,-6.6384,-6.6384,-6.6384,-6.6384,-6.6654,-6.7487,-6.7346,-6.709,-6.709,-6.859,-6.9706,-6.9706,-7.0552,-7.1168,-7.1206,-7.1359,-7.1821,-7.2677,-7.2877,-7.3782,-7.5739,-7.6679,-7.7186,-7.7186,-7.8007,-7.8047,-7.7226,-7.9648,-8.0508,-7.9687,-8.1406,-8.2265,-8.2265,-8.1406,-8.1484,0.0,0.0,-4.6547,-4.5124,0.0,0.0,-4.147,-4.1854,-4.1931,-3.9392,-4.02,-4.0662,-3.8407,-3.8012,-3.7627,-3.6454,-3.6521,-3.6111,0.0,-3.443,-3.4545,-3.4237,-3.3968,-3.3545,0.0,0.0,-3.1545,-3.1275,-3.1775,-3.2352,-3.2968,-3.4584,-3.6161,-3.7546,-3.87,-3.9969,-4.1354,-4.1662,-4.2508,-4.3893,-4.4162,-4.4739,-4.5586,-4.5586,-4.5586,-4.5586,-4.5586,-4.5586,-4.5586,-4.5586,-4.5586,-4.5778,-4.7432,-4.8086,-4.8355,-5.0317,-5.1433,-5.2125,-5.3549,-5.478,-5.5703,-5.5703,-5.5703,-5.5857,-5.6742,-5.7588,-5.8473,-5.9281,-6.0127,-6.0819,-6.0973,-6.0973,-6.1472,-6.3352,-6.3806,-6.4294,-6.604,-6.6389,-6.6389,-6.6389,-6.6389,-6.67,-6.757,-6.8036,-6.8259,-6.8142,-6.9232,-6.9963,-6.9848,-7.0771,-7.1426,-7.1541,-7.1593,-7.2034,-7.3041,-7.4219,-7.5449,-7.6679,-7.7031,-7.7187,-7.7187,-7.8047,-7.8359,-7.8086,-8.0,-8.0859,-8.0547,-8.1719,-8.2304,-8.2304,-8.1992,-8.2031,-4.6817,-4.7124,0.0,-4.6278,-4.5624,0.0,-4.2739,0.0,-4.3278,-4.07,-4.1277,-4.1777,-4.0115,-3.9076,-3.8267,-3.7728,-3.7112,-3.6227,0.0,-3.4661,-3.4661,-3.4661,-3.416,-3.3583,-3.2968,-3.1929,-3.1044,-3.0417,-3.0929,-3.1391,0.0,-3.3545,-3.5238,-3.6661,-3.8084,-3.9777,-4.1777,-4.2124,-4.297,-4.4316,-4.4624,-4.5047,-4.5586,-4.5586,-4.5586,-4.5586,-4.5586,-4.5586,-4.5586,-4.5586,-4.5778,-4.6201,-4.7586,-4.8279,-4.8817,-5.1087,-5.2279,-5.3049,-5.4434,-5.528,-5.5703,-5.5703,-5.5895,-5.628,-5.6819,-5.7819,-5.8819,-5.9358,-6.0127,-6.0858,-6.105,-6.1092,-6.1595,-6.3526,-6.3967,-6.4474,-6.6182,-6.6572,-6.665,-6.6962,-6.704,-6.7413,-6.8565,-6.9214,-6.9483,-6.9262,-7.004,-7.0722,-7.0899,-7.1582,-7.2195,-7.2569,-7.2689,-7.312,-7.4139,-7.5547,-7.6601,-7.7148,-7.7187,-7.7344,-7.7656,-7.8476,-7.9062,-7.9375,-8.0742,-8.1445,-8.1445,-8.2031,-8.2304,-8.2304,-8.2304,-8.2304]}]]